ECMWFFLT1_sfc_temp_060.txt.gz
Temp
69 68 69 69 70 70 68 68 67 67 68 67 67 68 69 72 74 74 74 73 73 74 73 72 72 73 73 74 72 73 70 70 70 67 65 65 65 65 68 67 66 67 68 67 67 64 60 56 57 62 64 64 64 65 68 70 71 69 69 69 72 71 69
69 69 69 69 68 67 66 66 66 66 67 66 68 67 68 73 74 72 72 73 72 74 74 74 74 74 73 71 70 71 70 70 69 68 67 66 66 65 65 66 66 66 66 67 67 67 61 58 58 58 58 62 63 66 67 70 70 69 68 68 70 70 67
68 68 68 66 66 66 65 66 66 65 66 66 69 71 73 77 75 75 72 74 71 72 73 74 73 73 72 71 70 70 71 70 69 69 67 66 65 65 68 66 62 63 64 63 64 64 65 64 59 59 59 58 59 63 66 66 68 69 70 69 69 71 69
67 66 66 65 66 65 65 65 64 65 67 66 67 69 73 76 75 75 74 75 75 74 75 75 73 74 72 71 71 71 71 70 69 69 68 66 65 66 66 65 64 65 63 62 61 64 63 61 60 60 62 63 63 62 64 68 69 71 72 69 68 69 68
67 67 66 66 66 66 66 64 65 65 64 66 66 66 72 75 74 74 75 75 74 75 74 73 73 73 73 72 71 70 70 70 69 69 69 67 66 66 66 66 66 68 66 65 65 63 64 62 63 62 61 64 66 66 69 66 71 71 71 71 71 69 69
67 68 68 67 67 67 66 65 65 64 65 64 64 67 72 73 73 73 73 73 73 74 74 74 73 74 73 72 72 71 70 69 68 69 68 67 67 66 66 68 67 69 67 67 67 67 66 65 64 62 65 66 63 66 69 69 66 71 72 71 72 71 70
67 69 68 67 67 67 66 66 66 66 66 66 67 70 72 74 74 74 74 74 74 74 73 73 73 73 74 74 72 71 71 70 70 69 68 68 68 69 69 67 67 65 65 68 66 66 66 64 63 63 63 64 66 65 68 68 71 68 69 72 73 72 70
68 69 69 67 67 66 66 66 66 68 69 70 72 73 74 73 73 73 73 73 73 73 73 72 73 73 73 73 73 71 71 70 70 69 68 68 69 70 68 67 66 67 66 68 67 67 70 68 66 65 65 61 61 63 63 69 69 69 68 71 74 72 69
68 68 67 67 67 66 66 67 67 68 71 73 73 73 73 74 73 73 73 73 73 73 72 72 73 71 72 71 71 70 69 73 70 69 69 70 69 69 68 67 67 67 68 67 68 68 69 69 68 67 66 65 61 58 61 61 64 66 73 69 71 71 69
69 68 67 66 66 66 66 67 68 70 72 73 73 73 73 73 73 72 72 72 73 73 73 73 73 72 72 71 70 70 70 71 70 71 70 69 69 69 68 67 67 67 67 67 66 66 68 67 68 67 68 67 65 60 57 58 59 60 69 71 66 68 71
69 69 68 67 68 67 68 69 71 71 72 73 74 74 73 73 73 74 73 72 72 73 73 74 74 73 71 70 71 71 70 71 70 70 70 71 69 69 68 67 68 68 67 67 66 66 67 67 67 67 66 67 69 64 61 58 58 63 62 66 70 67 70
69 69 69 68 69 70 70 71 71 71 72 72 72 72 72 73 72 73 73 72 71 72 73 73 73 72 72 71 70 69 71 71 70 69 70 70 70 69 69 67 68 67 67 66 66 66 67 67 67 66 66 67 67 67 66 62 58 63 67 63 67 72 69
68 67 67 67 68 71 72 72 72 72 71 72 72 73 73 73 72 72 73 73 72 72 73 72 73 72 72 71 71 71 70 70 70 69 70 71 73 70 68 68 67 68 67 67 66 67 66 68 67 67 66 66 68 70 67 64 61 61 64 63 66 70 71
66 66 65 65 63 68 71 71 72 72 73 71 72 72 73 73 74 73 74 74 74 72 71 72 73 71 71 70 71 71 72 72 71 70 70 69 72 71 70 70 68 69 69 67 67 67 68 68 68 68 69 68 67 69 67 65 62 62 64 65 66 69 71
66 66 65 64 65 68 70 70 71 72 71 72 73 74 74 73 74 74 74 74 74 74 73 73 72 71 72 70 71 74 72 72 71 71 70 69 69 72 70 69 70 69 70 69 67 69 69 69 70 69 68 69 68 68 69 68 65 60 59 64 64 69 68
66 65 64 63 65 67 69 70 73 71 72 72 73 73 74 73 74 74 74 73 74 73 73 73 72 72 71 71 71 71 72 71 70 69 69 69 72 71 69 69 68 68 68 67 67 66 66 68 70 71 69 68 68 69 72 71 67 62 62 62 65 67 66
66 64 63 62 64 68 70 71 72 72 73 72 73 73 74 74 74 73 73 73 73 73 73 72 72 74 73 72 71 71 72 71 71 70 70 71 73 70 69 68 68 68 68 66 65 63 63 66 67 67 67 69 69 70 68 68 70 65 63 62 65 69 67
66 65 64 63 66 69 71 71 71 73 72 72 73 73 73 74 73 73 72 74 74 73 73 73 72 73 71 72 73 71 72 71 71 71 72 71 72 70 68 67 69 68 67 66 63 64 64 64 68 66 68 70 70 70 69 70 69 68 64 63 63 66 67
66 65 64 64 67 70 69 70 71 72 73 73 72 72 72 73 74 74 74 74 75 74 74 73 73 74 73 73 71 71 72 70 72 72 71 73 72 70 68 68 68 68 67 64 65 65 64 65 68 68 70 72 73 69 67 68 67 66 67 65 64 62 66
62 64 65 67 68 70 69 69 71 73 73 73 72 71 72 72 72 73 74 74 74 74 74 72 71 72 73 73 72 73 70 70 72 71 72 73 72 70 70 69 67 67 67 66 65 64 66 67 68 68 69 69 71 67 66 67 68 68 65 65 65 63 64
62 62 63 68 68 67 66 66 68 70 72 72 72 72 72 72 72 73 72 72 72 69 66 63 61 62 66 69 71 72 71 69 70 70 71 71 70 70 68 66 65 65 66 66 67 68 68 66 67 68 68 69 67 66 65 67 67 66 64 65 63 63 62
63 63 65 65 66 68 68 66 67 71 71 71 72 73 72 73 73 73 73 71 68 66 62 56 51 49 56 62 65 69 71 71 70 70 71 71 71 71 66 66 66 67 65 60 54 57 58 61 68 67 67 68 65 65 64 66 66 65 66 64 63 65 63
62 63 65 66 67 68 69 69 68 70 71 71 71 71 71 71 72 72 69 65 64 60 57 53 45 41 43 52 61 66 68 70 71 71 69 70 69 71 67 66 66 64 59 58 53 49 48 50 55 61 62 65 66 65 65 65 65 65 64 63 62 61 61
62 62 63 67 68 69 69 69 69 69 68 68 68 69 70 67 65 65 64 62 59 56 53 49 42 39 40 42 55 60 63 66 69 70 70 68 67 68 68 67 64 61 62 62 57 48 47 47 45 46 47 49 55 65 66 64 64 65 64 63 63 63 61
63 63 65 67 67 69 67 65 65 66 65 66 66 66 65 65 64 62 61 60 57 55 52 43 40 41 41 41 44 55 62 66 68 68 69 69 68 68 67 67 66 67 67 66 65 63 53 47 47 48 47 47 46 45 50 61 62 62 62 61 61 62 62
61 61 62 63 63 63 63 64 63 63 63 64 64 63 63 62 61 61 59 57 55 53 51 42 40 41 41 41 39 50 65 65 65 68 69 69 69 68 67 66 66 68 69 67 68 66 65 59 47 47 51 54 54 50 48 49 52 60 62 61 61 60 63
60 61 61 61 61 61 60 60 61 62 63 63 63 62 62 60 60 59 57 55 53 51 48 42 40 41 41 40 39 46 63 64 66 68 69 69 68 68 68 66 66 67 67 67 67 66 66 63 61 61 62 63 64 61 54 49 43 40 48 61 61 60 62
59 59 59 58 58 58 58 58 58 58 59 59 60 61 60 59 58 58 57 56 53 51 47 40 40 40 41 40 41 48 63 66 67 67 67 66 67 67 67 68 67 67 63 55 46 45 60 64 63 63 62 63 63 63 63 63 62 60 58 61 61 62 62
58 58 58 57 56 56 56 57 57 57 57 56 58 60 61 61 59 58 58 57 54 52 48 40 40 41 41 40 45 62 65 65 66 66 67 68 67 67 67 67 66 61 55 52 42 39 43 54 64 65 64 64 63 64 65 64 58 58 63 64 64 64 63
53 55 55 56 55 55 56 56 56 57 57 57 57 58 58 59 60 60 58 56 53 51 49 42 40 40 41 40 48 61 63 66 66 66 66 66 65 57 56 62 62 57 53 47 40 39 41 49 62 62 62 62 63 64 65 66 55 51 51 52 52 46 42
51 51 51 52 52 52 53 55 57 58 56 56 55 56 56 56 57 58 57 56 55 52 49 44 40 41 41 41 46 59 63 64 64 63 64 64 62 54 49 50 54 52 48 43 37 38 40 51 59 59 60 60 61 62 60 57 63 60 53 51 49 47 47
52 51 50 50 51 50 50 51 53 55 56 57 56 57 57 55 54 56 56 56 55 53 50 47 41 40 41 41 48 58 60 60 59 59 61 63 62 55 50 45 43 42 42 39 36 36 37 47 55 54 55 56 57 59 52 54 56 56 59 60 60 60 57
53 52 51 51 51 51 52 52 52 53 56 58 57 59 59 57 55 55 56 55 54 52 49 47 43 40 41 42 43 54 56 54 53 54 58 60 61 56 54 51 45 39 38 38 37 37 37 39 47 52 53 54 55 54 50 51 54 55 55 56 59 60 60
52 53 53 52 52 52 52 53 54 55 55 56 56 56 57 57 57 56 55 55 54 53 51 48 44 40 41 42 43 47 53 50 50 51 55 58 60 59 54 51 48 42 40 39 38 37 37 37 39 47 51 52 52 45 44 50 51 49 54 55 57 58 59
53 54 55 53 52 53 55 57 57 57 56 56 56 56 56 56 57 57 57 56 54 52 52 50 49 42 41 41 41 43 49 49 47 51 54 56 57 58 56 53 51 43 40 40 40 39 38 39 38 44 49 46 42 40 45 46 49 52 55 56 56 56 58
55 58 57 57 56 56 57 58 58 58 57 57 57 56 57 57 57 57 57 56 54 53 52 50 45 46 41 40 40 41 40 45 42 51 51 52 54 55 54 52 52 45 40 41 41 40 40 38 39 45 44 42 40 38 39 46 50 51 51 53 53 53 55
57 57 57 57 57 57 57 58 58 59 59 58 57 57 58 58 58 58 57 56 53 53 53 51 46 44 44 39 40 40 42 40 40 46 48 52 53 53 52 50 47 40 41 42 41 40 40 39 41 40 39 39 38 38 43 47 48 50 48 49 49 50 52

ECMWFFLT1_sfc_temp_063.txt.gz
Temp
64 64 66 66 66 66 65 65 65 64 65 65 65 66 67 67 65 64 64 65 67 68 68 67 66 66 68 68 66 68 66 66 65 63 61 61 61 61 62 62 62 64 63 60 62 60 58 55 57 61 61 60 61 62 62 63 65 64 63 63 65 64 63
65 65 66 66 65 65 64 64 64 64 64 65 66 66 66 66 65 65 66 66 67 67 68 68 67 67 67 66 66 66 65 65 65 64 63 62 62 61 61 60 61 61 60 60 61 62 58 57 57 58 58 60 59 60 62 64 66 64 64 64 66 65 63
65 65 65 65 64 64 63 62 62 63 63 63 64 66 65 66 65 66 67 67 68 68 68 67 67 66 66 67 67 66 66 65 64 65 64 62 63 63 62 61 59 59 59 59 60 59 60 60 56 57 58 57 56 59 61 63 65 64 65 65 65 65 62
65 65 64 64 63 62 62 62 62 62 63 63 64 65 65 66 66 67 66 67 67 66 67 66 66 66 67 67 67 67 66 66 64 64 63 62 63 62 62 61 61 61 60 58 59 60 59 57 57 57 57 58 58 58 62 66 66 67 66 65 64 63 62
66 65 64 63 63 63 62 61 62 62 62 63 63 63 65 66 67 67 67 68 68 66 67 67 67 68 67 67 66 66 66 66 65 64 63 62 62 62 62 61 61 63 61 61 61 61 60 58 59 57 57 59 62 61 66 62 66 66 65 65 65 63 62
66 66 65 64 64 63 62 61 61 61 61 62 62 63 64 66 68 68 68 68 67 67 68 69 68 69 68 67 67 66 66 65 64 64 62 63 63 62 62 63 63 63 62 62 62 62 61 61 60 57 59 60 58 59 62 62 61 64 65 65 64 64 62
65 66 65 64 64 63 63 62 62 62 62 63 63 64 65 67 68 68 68 68 68 67 67 67 68 68 68 67 67 66 66 65 65 64 63 63 63 63 64 63 63 62 63 64 63 62 62 61 58 59 59 59 61 60 62 62 63 63 63 65 65 64 62
64 64 64 65 64 63 63 62 63 63 63 63 64 65 66 68 68 68 68 68 67 67 67 67 68 68 66 67 67 66 66 66 65 64 63 63 64 64 63 63 62 62 62 63 64 63 64 63 62 61 60 57 56 57 58 61 63 61 62 61 65 63 61
65 64 64 64 65 64 64 63 63 63 65 65 66 66 67 69 68 67 67 67 67 67 67 67 67 67 67 66 65 66 66 68 65 64 64 64 64 64 63 63 62 62 63 63 64 63 63 64 64 63 62 61 58 55 55 55 58 59 65 61 61 62 61
65 64 63 64 64 64 64 64 64 65 66 66 67 68 68 68 67 67 67 67 67 67 66 66 67 66 66 66 65 65 65 66 65 65 64 65 64 64 63 63 62 63 62 63 62 63 64 65 65 65 64 62 62 58 54 53 53 55 61 64 58 60 61
65 64 63 64 63 63 63 63 64 64 65 68 69 69 68 68 67 68 67 67 66 67 66 67 67 66 66 65 66 65 65 65 65 64 64 65 64 64 63 63 63 62 63 63 62 62 62 63 64 65 63 63 63 61 55 55 53 56 57 59 60 59 60
64 63 63 63 63 63 63 63 64 65 66 68 68 67 68 67 66 66 67 66 66 67 66 66 66 66 66 65 65 64 65 65 64 64 65 65 65 65 63 63 62 62 62 62 62 63 62 62 63 63 63 63 62 62 60 56 54 57 62 58 59 64 62
63 63 63 63 63 64 64 65 65 65 67 67 67 68 68 67 66 66 66 66 66 66 65 66 67 66 65 65 64 65 65 65 65 65 65 65 67 65 63 62 62 62 62 61 62 62 62 62 63 62 62 62 62 61 60 59 57 57 58 60 60 62 63
63 64 63 63 64 65 65 66 67 67 68 67 67 68 68 67 66 67 67 67 67 65 65 64 64 65 64 64 64 64 65 65 65 64 64 64 67 65 64 63 62 63 63 62 61 62 62 62 63 62 62 62 62 62 62 60 58 57 58 61 61 62 62
62 64 63 62 64 65 67 68 68 69 68 68 68 68 68 67 66 67 67 67 65 66 65 64 65 65 65 63 62 66 65 64 63 64 63 64 65 66 65 64 63 63 64 63 62 63 64 63 64 63 63 63 63 62 64 62 59 57 57 57 57 62 61
62 62 63 63 65 65 67 68 69 69 69 68 68 68 67 66 66 66 65 65 65 66 64 65 63 64 63 63 62 64 64 63 63 62 62 63 64 64 63 61 62 63 64 62 62 63 64 63 64 65 63 62 64 63 65 66 61 57 58 56 58 60 60
62 61 62 63 64 64 66 67 69 69 69 68 67 67 67 67 66 66 65 66 66 64 64 64 63 66 66 64 62 63 62 62 63 64 63 63 63 64 63 61 61 62 63 62 61 61 61 61 61 64 62 61 62 64 63 63 64 60 58 58 58 62 61
61 61 61 62 64 65 65 68 68 69 67 66 67 68 67 65 65 66 66 66 65 64 65 64 64 63 62 62 62 63 62 63 63 61 62 63 65 63 63 62 63 62 62 61 60 59 60 60 63 61 64 64 65 63 64 63 63 64 61 59 58 60 61
61 60 60 61 64 65 67 68 68 68 67 67 67 67 66 65 66 66 66 67 64 64 64 63 62 63 63 63 62 63 61 62 62 62 62 63 64 63 62 63 63 63 62 61 60 59 58 59 61 61 63 64 66 63 63 62 62 62 62 60 59 58 57
60 60 61 62 64 66 67 67 68 67 67 68 67 66 66 65 63 64 63 62 60 59 58 58 58 59 61 61 61 61 62 61 61 63 63 63 64 62 62 62 61 61 61 60 60 59 59 58 61 60 61 62 65 60 62 61 61 61 60 59 55 58 58
60 60 61 62 63 65 65 65 66 67 68 67 65 65 64 63 62 62 61 59 57 55 54 53 52 54 58 59 60 60 60 61 60 61 63 64 63 62 62 62 61 61 61 61 60 58 60 60 61 60 61 62 61 61 61 60 60 60 59 58 57 55 57
60 60 61 61 61 61 63 65 65 67 66 65 65 64 63 63 61 59 58 56 55 53 51 49 47 46 52 56 59 60 60 62 61 61 62 62 61 61 60 60 60 60 61 61 58 60 61 62 62 61 61 60 58 58 59 60 60 57 57 58 57 56 55
60 60 60 60 61 61 60 60 63 64 64 63 62 62 62 61 60 58 55 53 52 51 49 47 45 43 44 49 54 60 59 59 60 61 60 60 60 61 61 60 62 63 59 56 53 50 49 52 57 61 60 59 58 58 56 57 58 58 58 57 56 56 55
60 60 59 59 61 61 61 61 61 62 62 62 61 60 60 58 56 55 53 52 50 48 46 45 42 40 41 43 53 57 58 58 58 59 60 61 59 59 58 59 58 59 59 57 52 47 46 47 47 48 49 52 58 61 58 56 56 56 55 56 55 55 56
60 59 60 60 60 60 60 60 60 61 60 59 59 58 57 55 54 53 51 50 48 48 45 43 40 41 41 40 45 54 56 58 59 58 59 61 61 59 59 58 57 60 59 58 56 54 51 46 45 45 46 46 46 47 53 59 57 54 53 53 53 55 54
59 58 59 59 59 59 59 59 59 59 58 58 57 56 54 54 52 51 50 49 47 46 45 42 41 41 41 41 40 49 58 57 60 60 61 61 60 58 58 59 58 61 61 60 58 57 56 53 49 48 48 47 47 48 45 46 52 58 55 55 58 54 55
57 57 58 58 58 57 58 58 58 58 58 57 56 54 53 52 51 51 50 48 47 46 44 42 41 41 42 42 41 46 59 58 59 59 60 61 61 60 58 58 57 54 51 49 48 50 55 54 54 55 55 55 54 49 46 48 45 46 50 55 55 59 54
55 56 56 56 55 55 55 55 55 55 54 54 54 53 53 51 51 50 50 49 48 46 44 41 41 41 42 43 46 53 60 61 61 60 58 57 57 58 58 56 54 51 49 46 44 45 50 54 55 56 55 57 57 57 56 55 53 52 52 54 56 57 57
54 54 54 54 53 53 53 53 53 53 53 53 54 54 54 53 51 50 49 48 47 46 45 40 41 41 42 43 50 59 61 61 61 59 55 53 53 54 55 53 51 49 46 45 44 43 47 56 57 57 57 57 58 57 55 53 47 48 52 53 53 53 53
51 51 51 52 52 52 52 52 52 53 54 53 53 54 54 53 53 51 50 48 46 45 44 42 41 42 43 44 52 59 59 59 59 57 52 51 50 50 52 52 50 48 45 44 41 42 45 50 54 53 53 54 55 53 50 53 50 47 47 47 46 46 46
50 49 50 50 50 50 50 51 51 52 53 53 53 53 53 53 53 51 49 47 47 46 44 43 42 42 43 44 50 56 56 56 56 56 52 51 49 47 49 51 50 46 45 42 40 42 44 50 51 51 51 51 52 51 49 50 53 53 49 48 48 48 48
49 49 49 49 49 49 50 50 50 51 50 52 52 53 53 52 51 51 50 48 50 46 45 44 42 42 43 44 50 53 53 53 53 53 53 50 50 48 47 46 45 45 44 41 38 39 41 48 49 49 49 49 49 49 47 46 48 49 50 51 52 53 53
50 49 49 49 49 49 49 49 50 50 50 52 53 52 52 52 51 50 49 48 47 46 46 44 43 42 43 43 45 50 50 50 50 50 52 52 49 48 48 47 44 40 39 39 38 37 37 40 47 47 47 47 47 48 45 45 46 46 46 47 49 50 51
50 50 50 49 49 49 49 49 50 50 50 50 51 52 52 51 50 50 50 50 49 47 48 46 44 42 42 42 43 45 47 46 45 48 49 49 48 47 46 45 44 42 40 39 39 37 37 36 38 44 45 47 47 43 41 43 44 45 45 47 48 48 50
51 50 50 50 49 49 50 51 50 50 50 50 50 51 52 51 50 50 50 50 49 48 49 49 48 43 42 42 41 43 46 44 44 47 48 47 47 46 46 45 45 42 40 40 40 40 40 39 36 40 41 41 38 38 41 42 42 43 45 46 47 45 47
49 51 51 51 51 49 50 51 51 50 51 51 51 52 53 52 50 49 49 49 48 48 47 47 44 45 42 41 41 41 41 42 41 46 46 45 44 45 44 43 44 43 40 40 40 40 40 39 41 41 40 39 38 35 37 42 41 43 42 44 45 45 44
48 48 48 49 49 49 49 50 50 50 52 51 52 53 52 52 51 49 48 48 48 48 47 45 43 42 43 41 41 41 40 39 39 43 46 44 44 43 43 42 42 40 40 40 40 39 40 40 39 37 36 36 36 36 39 39 40 42 41 41 42 43 45

ECMWFFLT1_sfc_temp_066.txt.gz
Temp
64 64 65 65 65 65 64 64 64 64 65 66 65 65 66 65 64 64 64 63 64 66 66 65 66 65 64 65 65 65 65 65 64 63 61 61 61 61 59 59 59 61 63 59 62 60 58 55 57 60 59 59 59 60 61 61 62 61 61 61 62 61 59
65 65 65 65 64 64 63 63 63 64 64 64 65 65 65 65 65 64 64 63 64 65 66 66 65 65 65 64 63 63 64 64 65 64 62 61 61 60 59 57 59 59 58 58 60 59 57 56 56 57 58 59 59 59 59 60 62 61 62 62 62 61 60
64 64 64 64 64 63 63 62 62 63 63 63 64 65 65 65 64 64 64 64 64 66 66 66 65 65 64 64 64 64 64 63 63 63 63 62 61 61 61 60 58 57 57 57 56 57 57 58 56 56 58 57 56 58 59 59 61 61 61 61 61 61 59
63 64 64 63 63 62 62 62 62 62 62 62 63 63 64 65 64 65 64 64 65 66 66 66 65 64 64 65 65 64 64 63 62 62 62 61 61 61 60 60 60 61 59 57 57 58 57 55 56 57 58 58 57 57 59 60 61 62 62 60 60 59 58
64 64 64 63 63 63 62 61 60 60 61 61 62 62 62 64 64 64 65 65 65 65 66 65 65 65 65 65 64 64 64 63 63 62 62 61 61 61 60 60 61 61 59 60 59 59 58 57 59 57 57 57 57 57 60 58 62 62 61 61 61 59 58
64 64 65 64 63 62 61 61 60 60 60 61 61 62 62 63 64 64 64 64 64 65 65 65 65 66 65 65 64 64 64 63 62 62 61 61 62 61 60 59 60 61 60 60 60 60 59 59 59 56 57 57 54 56 59 60 58 61 60 61 61 59 59
62 64 64 64 62 62 61 61 61 61 61 62 62 63 64 64 64 65 65 65 65 65 65 64 65 65 65 65 65 64 64 63 63 62 62 62 62 62 61 60 60 61 59 61 61 60 59 58 56 57 56 56 56 57 58 60 60 59 59 60 60 59 57
63 63 63 63 62 62 61 61 62 63 63 63 63 64 64 65 65 65 65 65 65 64 65 65 66 65 65 65 65 64 64 63 63 62 61 61 62 61 61 61 61 60 60 60 61 61 61 61 60 59 59 55 55 56 56 59 60 58 57 57 59 58 57
64 64 63 63 63 62 61 62 62 62 63 63 64 64 65 66 66 65 66 65 65 65 65 65 65 65 65 64 64 64 63 65 63 62 61 62 62 61 61 60 61 61 61 61 61 61 62 62 62 61 61 60 57 53 52 54 55 55 59 56 58 58 56
65 64 63 63 63 62 62 62 62 63 63 64 64 65 65 66 66 66 66 65 65 65 65 65 65 65 64 64 64 63 63 63 63 63 61 61 61 61 60 60 61 61 60 61 61 61 61 61 62 63 63 62 60 57 52 51 51 50 56 57 55 56 57
65 64 63 63 63 62 62 62 62 62 63 65 66 64 63 64 66 68 65 65 65 65 65 64 65 65 64 63 63 63 63 63 63 62 62 62 61 62 61 61 60 60 60 60 61 61 61 61 61 62 61 59 61 59 56 54 53 51 53 56 54 54 55
64 63 62 63 62 63 62 62 62 63 64 64 65 65 64 64 65 65 65 64 64 64 64 64 64 64 64 63 62 62 62 63 62 61 61 62 62 62 61 61 59 60 60 60 60 61 61 61 61 60 60 60 60 57 58 55 52 52 57 55 56 58 57
63 62 62 61 61 61 63 63 63 63 64 65 65 66 66 66 66 65 65 65 64 64 63 63 64 64 63 63 63 62 62 62 62 62 61 62 63 62 61 60 60 60 60 60 60 60 60 61 62 61 60 60 59 58 56 56 55 54 54 58 57 57 58
61 61 61 62 61 62 63 63 64 65 66 65 64 65 66 66 66 66 66 65 65 64 63 62 63 63 63 63 62 63 63 63 63 62 62 62 63 63 62 61 60 61 61 60 60 60 60 60 61 62 61 59 60 58 58 55 55 52 55 54 54 56 57
61 61 61 61 61 62 63 63 64 65 65 63 64 66 67 67 67 66 66 65 65 64 64 64 62 62 63 62 62 64 63 63 63 62 62 62 62 63 62 61 61 60 61 61 60 60 61 60 60 60 61 61 60 58 59 59 54 54 54 54 54 55 55
61 61 60 60 62 62 62 64 65 65 63 62 64 66 67 67 67 67 66 65 64 64 64 64 62 62 62 62 61 62 63 62 62 62 61 62 62 61 61 60 60 61 61 60 59 60 61 61 61 61 61 61 62 60 60 61 57 54 55 53 53 55 55
60 60 60 61 62 62 62 65 65 63 63 64 64 66 67 67 66 66 65 65 64 64 64 63 62 63 63 62 61 61 60 61 61 62 61 61 61 61 61 60 60 60 60 60 59 58 59 60 60 61 60 60 61 61 60 59 61 58 54 54 53 57 55
60 60 60 61 62 62 62 61 62 64 63 64 66 66 66 66 65 66 65 65 64 64 63 63 62 61 61 60 61 61 61 60 61 61 61 61 63 62 60 60 60 60 60 59 57 59 59 59 60 59 60 62 61 60 60 60 60 58 57 56 54 54 54
60 60 60 60 61 61 61 62 62 62 63 65 66 66 66 66 66 66 64 63 61 60 59 58 58 58 59 58 59 59 61 61 61 60 60 60 62 61 61 60 60 60 60 60 59 59 58 59 59 58 59 57 59 60 60 59 58 56 59 58 55 53 52
59 59 59 60 61 61 61 61 62 62 62 65 65 64 63 62 62 61 60 60 58 57 56 56 56 56 57 57 58 58 58 58 59 58 58 61 61 61 60 60 60 60 61 60 60 59 58 57 59 57 57 58 59 60 59 60 59 58 57 56 53 54 55
59 59 60 60 61 61 61 61 62 61 63 65 63 62 61 60 59 59 57 56 55 55 54 54 53 54 56 57 57 56 57 58 58 58 59 60 61 60 59 60 60 61 61 60 60 59 58 59 57 58 58 60 60 59 57 56 56 56 55 54 55 54 51
59 59 60 60 60 60 61 61 61 61 61 61 61 61 60 59 57 56 55 54 53 52 50 49 48 48 53 56 56 57 57 58 59 60 60 59 58 58 57 58 57 57 59 62 58 58 58 59 59 59 59 60 59 57 54 55 56 55 53 54 53 53 51
59 59 59 59 59 59 59 59 59 60 60 60 59 60 59 58 56 55 53 52 51 49 48 47 47 45 46 52 55 58 57 56 57 58 59 58 56 57 57 57 58 62 59 58 56 53 52 53 56 61 60 59 58 56 55 55 55 54 55 53 53 53 51
59 58 58 58 58 59 59 59 58 59 59 58 58 57 56 55 54 53 52 51 49 47 46 45 42 40 41 46 54 55 57 55 55 57 58 58 57 57 55 56 55 57 56 54 50 48 49 50 51 51 52 55 57 58 56 54 53 53 54 55 50 51 52
58 58 58 59 59 59 58 58 57 58 57 56 55 54 53 52 51 51 50 49 48 47 45 43 40 41 42 42 50 55 56 57 57 57 57 57 58 57 55 55 55 56 56 56 54 52 50 46 46 47 46 47 48 49 51 56 54 52 50 52 52 53 52
58 57 58 58 58 58 57 56 55 55 55 55 54 52 51 51 50 50 49 48 46 46 44 42 40 41 42 42 46 54 57 57 57 55 55 56 56 55 54 54 52 51 51 53 52 51 52 52 47 45 47 48 47 45 42 42 44 52 53 52 52 51 51
57 57 57 57 57 56 55 53 53 52 51 52 51 50 50 50 49 48 48 47 46 45 45 43 41 42 43 45 47 52 56 55 54 55 55 55 55 54 53 51 50 49 48 48 48 49 52 53 53 55 55 54 53 51 47 46 46 45 49 52 52 52 52
56 56 56 56 55 54 53 52 52 51 50 50 50 50 50 48 48 47 47 47 47 46 44 41 41 42 44 48 49 51 55 54 52 52 52 52 52 52 51 49 48 47 47 48 47 47 51 53 54 54 53 53 52 51 51 51 51 51 52 52 51 50 51
53 53 54 54 54 53 52 52 51 50 49 48 50 50 49 49 47 47 46 47 47 46 44 41 42 44 46 48 50 56 55 53 51 50 50 50 51 51 51 50 49 48 49 49 46 43 48 53 53 53 52 51 50 48 49 49 45 46 48 48 49 50 51
50 51 52 52 52 51 51 51 50 51 50 50 49 49 48 48 48 47 47 47 46 45 44 42 42 44 45 48 51 56 54 53 51 49 48 48 49 50 50 51 50 50 49 48 43 43 45 49 52 51 50 50 49 49 48 49 47 46 44 44 44 45 45
49 49 49 49 49 49 49 49 49 51 49 50 49 49 48 48 47 47 46 46 46 45 45 43 42 43 44 46 50 54 54 52 50 49 49 48 48 47 49 50 50 47 46 45 40 41 43 50 51 50 50 49 50 48 48 47 49 49 47 48 46 46 46
49 48 48 48 48 49 49 48 49 49 50 50 49 49 49 47 47 47 48 48 49 47 46 45 42 42 43 45 50 53 53 52 50 49 48 48 47 47 47 46 45 44 44 41 39 40 41 47 49 48 47 48 47 46 43 43 44 46 47 48 49 49 50
49 49 48 48 48 48 49 48 48 48 48 48 47 48 49 48 47 47 47 47 47 47 46 44 43 41 42 43 46 52 52 51 49 48 49 48 47 46 47 47 45 39 39 39 38 38 38 40 46 46 47 47 46 45 42 42 43 43 43 43 44 45 46
49 49 49 49 49 49 49 49 49 48 47 47 46 45 46 48 48 47 47 48 48 47 47 45 42 41 41 42 43 46 49 49 49 49 48 47 47 46 46 45 44 41 39 39 39 38 38 37 40 44 44 44 43 41 39 41 42 43 42 43 44 44 45
48 48 49 49 49 49 49 50 49 48 47 47 47 46 46 45 46 46 47 47 47 46 47 47 45 41 41 41 41 43 45 45 46 47 47 46 45 44 43 42 42 40 39 39 39 39 39 39 40 43 39 36 35 35 39 41 42 42 42 43 43 43 44
46 47 47 47 48 47 48 49 49 49 49 48 47 46 45 45 44 44 46 46 46 46 45 45 43 43 41 40 40 40 41 43 42 46 44 42 42 41 41 41 43 41 39 39 39 39 40 40 41 38 36 36 35 34 37 39 40 41 41 41 42 42 42
45 45 46 46 45 45 46 46 47 48 48 48 46 45 44 44 44 44 44 44 45 45 45 45 42 41 41 39 40 39 39 39 40 42 42 40 40 39 41 41 42 40 41 41 41 41 41 41 40 37 36 35 36 37 38 40 40 41 40 40 41 41 41

ECMWFFLT1_sfc_temp_069.txt.gz
Temp
64 63 64 63 64 64 63 63 63 63 64 65 64 65 65 65 64 63 63 63 63 63 64 64 64 63 63 64 64 64 63 63 62 61 61 61 60 59 59 58 58 58 61 56 59 57 56 54 56 59 59 59 59 61 61 60 59 60 60 60 60 58 57
64 63 63 64 63 63 62 62 63 63 63 63 64 65 65 65 65 64 63 63 63 63 65 64 64 64 63 63 62 62 61 62 62 62 62 61 60 59 58 55 57 58 57 56 58 57 55 55 55 57 57 59 58 58 58 59 59 59 60 60 60 59 58
62 61 62 62 62 62 62 62 62 63 63 63 63 64 64 64 64 64 63 63 63 63 64 63 64 64 63 63 63 63 62 62 62 62 62 61 61 60 60 57 55 55 56 56 56 55 55 55 55 56 58 57 56 56 57 57 59 59 59 60 59 58 57
61 61 61 62 63 63 62 62 62 62 62 62 63 63 64 64 64 64 63 63 63 64 64 63 63 64 63 64 63 63 63 62 61 61 61 61 61 60 59 59 59 59 58 56 56 56 54 53 55 57 58 59 57 55 57 57 59 60 60 58 58 58 56
64 63 62 62 63 63 62 62 62 62 61 61 62 62 62 63 63 63 64 64 63 63 64 64 64 64 64 64 63 63 63 63 62 62 61 60 60 60 59 59 59 60 59 59 58 58 57 55 57 57 57 58 58 55 57 56 59 59 58 58 58 58 56
64 64 64 64 64 63 62 61 60 60 61 60 61 61 62 63 63 63 63 63 63 64 64 64 64 64 63 63 63 63 62 62 62 61 60 60 61 60 59 59 59 59 59 58 59 58 57 57 58 56 58 59 55 55 56 56 56 58 58 58 58 57 56
64 64 64 64 63 62 61 61 61 61 61 61 61 61 62 63 63 63 64 64 64 64 64 64 64 64 63 63 63 63 62 62 62 61 61 61 61 61 60 59 59 59 57 59 59 58 57 57 56 57 57 56 52 54 54 55 57 57 58 58 57 57 56
64 64 64 63 62 61 61 61 61 62 62 62 62 63 63 63 63 63 63 63 63 63 63 63 64 64 63 63 63 63 63 62 62 61 61 61 61 60 59 60 59 59 58 58 59 59 59 59 58 57 57 54 52 52 54 54 54 56 55 56 57 56 55
64 62 61 60 61 62 61 61 61 61 62 63 62 62 62 63 63 63 63 63 63 63 63 63 63 63 63 63 62 62 62 63 61 61 60 60 61 60 60 59 60 59 59 59 60 60 60 60 59 59 59 58 55 51 51 51 51 53 56 56 56 56 55
63 62 61 60 61 61 61 62 61 62 62 62 62 63 62 62 63 63 63 63 63 63 63 63 64 63 63 63 62 62 62 62 61 61 60 60 60 60 59 59 60 60 59 59 60 60 60 59 60 60 61 60 59 55 51 49 49 50 54 55 54 54 56
62 62 61 61 62 61 60 61 61 61 61 62 63 63 62 62 62 65 63 63 62 62 63 63 64 64 63 62 62 62 62 62 61 60 60 61 60 60 59 59 59 59 59 59 59 59 59 59 59 60 60 59 59 58 55 52 51 50 52 53 53 54 52
62 62 63 62 62 61 60 61 61 62 62 61 62 62 62 62 62 62 62 62 62 62 63 63 63 63 63 62 62 61 61 62 61 60 60 60 60 60 59 59 57 58 58 59 59 59 59 59 59 59 58 59 59 57 58 56 50 50 52 55 54 53 55
62 62 62 61 61 62 62 61 61 61 61 61 62 62 62 62 62 61 62 62 62 62 62 63 63 63 62 62 61 61 61 61 61 60 59 60 61 60 59 59 58 59 58 58 59 59 58 59 59 58 58 58 57 57 56 55 54 54 52 54 54 53 55
61 62 62 62 62 62 62 61 61 61 61 61 61 62 62 62 62 62 62 62 62 62 62 62 62 62 62 61 61 62 61 62 61 60 60 59 60 60 60 60 59 59 59 59 58 58 58 59 59 59 59 58 58 56 58 54 53 51 53 50 51 53 53
62 62 61 61 61 61 61 61 61 61 60 61 62 63 62 62 62 63 63 63 63 62 62 62 62 62 62 61 61 62 61 61 61 60 59 60 59 61 60 60 60 59 59 60 58 59 59 58 59 58 58 59 58 56 57 58 51 51 52 52 51 51 51
61 61 60 60 60 60 60 60 61 61 61 61 62 62 62 62 62 63 63 63 62 62 62 62 61 62 62 62 61 61 61 61 61 60 59 60 60 60 59 59 59 59 59 58 58 58 58 58 59 59 59 59 59 57 57 58 53 53 51 51 50 51 51
61 60 60 59 59 60 60 61 62 61 61 61 61 62 62 63 62 62 61 61 62 61 61 61 61 62 62 62 61 61 60 60 61 60 61 60 60 60 60 59 59 59 58 58 57 56 57 58 58 59 59 57 58 58 57 55 59 57 53 54 51 54 52
60 60 60 59 59 60 60 61 61 61 60 60 61 61 61 62 61 61 61 62 62 61 61 61 61 61 61 61 62 61 60 60 60 60 60 61 62 60 60 60 60 59 59 58 56 56 57 58 59 58 57 58 59 59 58 57 58 57 55 55 53 51 50
59 60 60 59 60 60 61 61 61 61 61 61 61 61 61 60 61 62 62 61 61 60 60 60 60 60 60 60 60 60 60 60 60 59 59 59 61 60 60 60 59 59 59 59 58 57 57 58 57 57 58 58 59 58 56 56 56 55 56 56 54 50 49
59 60 60 60 61 60 60 60 61 61 61 61 60 60 60 61 60 60 59 59 58 57 57 57 57 57 58 58 58 58 58 58 58 57 57 59 59 59 59 59 58 59 60 59 59 58 57 57 57 57 57 58 59 58 56 56 56 55 55 53 50 51 50
59 60 60 60 61 61 60 60 61 61 60 60 59 60 60 59 57 57 57 56 54 55 56 55 54 54 55 57 57 57 58 58 57 56 56 56 57 58 58 58 58 59 60 60 60 58 58 57 57 57 57 57 57 56 56 54 53 53 52 52 52 49 49
59 59 59 60 60 60 60 60 60 60 60 58 58 59 59 57 56 55 54 54 53 53 52 51 50 51 55 55 56 56 56 57 57 57 55 56 56 56 56 56 55 56 59 62 58 57 57 58 58 57 56 56 57 56 53 52 53 52 51 52 51 49 48
59 59 59 59 60 60 60 59 58 59 59 58 56 56 56 56 56 54 53 52 51 50 48 48 48 47 50 55 55 57 56 57 57 57 57 56 54 55 54 53 57 60 57 57 54 52 51 53 56 59 56 57 57 56 53 51 52 52 52 51 51 50 48
58 58 58 59 59 58 58 58 57 57 56 56 55 55 54 54 54 54 53 52 50 48 46 47 43 43 44 51 55 57 58 57 56 56 57 57 55 54 52 53 53 56 55 54 49 46 47 48 49 52 53 56 58 58 55 54 53 51 52 53 49 50 50
58 58 58 57 58 58 57 57 56 55 53 53 53 53 52 52 52 52 51 51 49 48 46 43 41 43 44 48 52 56 57 58 57 56 54 55 54 53 52 51 50 51 53 54 51 49 48 45 44 43 42 41 41 42 48 56 55 51 51 51 49 50 50
57 56 57 57 57 57 56 55 53 53 52 52 51 51 51 50 50 51 51 50 48 48 46 42 41 43 44 46 48 53 55 55 55 54 54 54 53 52 51 50 49 49 50 55 52 50 51 49 47 46 46 46 45 44 42 42 45 52 53 53 52 48 47
56 56 56 56 55 54 53 52 51 50 49 50 49 49 50 50 50 50 50 49 48 47 46 43 43 44 44 44 46 50 54 54 53 53 53 52 51 49 49 48 48 48 47 48 49 51 51 51 51 52 51 51 51 50 46 45 45 46 49 50 50 49 50
55 54 54 54 53 51 50 49 49 48 47 47 48 49 50 49 49 49 49 49 48 46 45 42 43 43 44 45 45 48 53 52 51 50 49 49 49 48 48 48 48 47 47 47 47 50 53 52 52 51 50 49 49 48 49 49 49 50 51 52 51 51 49
52 53 53 52 51 50 49 48 47 47 46 45 46 48 48 49 48 48 48 48 48 46 45 42 43 43 44 45 47 52 51 51 50 49 49 49 49 49 49 49 48 47 47 47 46 46 50 54 53 51 49 48 47 47 47 47 43 44 48 49 50 50 48
49 50 51 50 50 49 48 47 47 47 45 44 44 45 46 47 47 47 47 47 46 45 45 43 42 44 44 45 48 51 51 50 49 48 48 49 49 49 49 49 47 47 46 46 42 43 45 49 51 50 49 47 47 46 45 47 45 43 43 42 42 42 43
48 48 48 48 48 48 48 47 47 46 44 43 43 43 45 45 46 47 46 46 46 45 44 43 42 43 45 46 49 51 51 50 49 48 48 48 48 48 48 50 50 47 46 44 40 42 45 49 50 48 48 46 46 45 44 44 47 46 44 43 43 43 43
48 48 48 47 47 47 47 46 46 45 44 44 43 44 44 45 45 46 46 46 48 45 44 44 42 42 44 46 50 52 52 50 49 48 48 47 48 47 47 45 45 44 45 42 40 41 43 47 48 48 48 48 46 45 42 41 43 43 44 46 46 47 46
48 48 48 48 48 47 47 46 45 44 44 44 43 44 44 46 45 45 45 45 45 44 43 43 42 41 43 44 46 52 52 51 49 48 48 48 47 46 46 45 44 39 39 39 39 39 40 43 47 46 47 48 47 45 42 41 41 42 44 44 44 44 44
47 48 49 48 48 48 47 46 45 45 44 44 44 44 45 46 45 44 45 45 44 44 44 43 42 40 42 43 44 47 50 49 48 48 47 47 46 46 45 45 44 40 39 39 39 39 40 40 42 45 45 44 42 40 40 41 42 44 43 43 44 43 43
46 47 48 48 48 47 48 47 46 45 44 44 44 44 44 44 44 44 44 44 43 42 44 44 43 40 40 41 42 44 47 47 47 47 46 46 45 45 44 43 42 40 39 39 39 39 38 38 38 39 35 35 34 37 41 41 42 42 42 42 42 42 42
44 45 45 46 47 46 47 47 47 46 45 45 44 44 44 44 43 43 43 42 42 42 42 43 41 41 39 39 39 40 41 43 42 48 47 45 43 42 43 43 42 41 39 39 39 39 39 38 38 36 35 36 36 38 40 42 42 42 41 41 41 40 40
43 43 44 44 44 45 46 46 47 46 45 44 44 43 43 43 43 42 41 41 41 41 42 42 41 40 39 38 38 38 39 40 41 44 45 43 43 43 43 42 41 39 40 39 39 39 39 39 39 38 39 39 39 40 42 41 40 40 39 39 39 38 38

ECMWFFLT1_sfc_temp_072.txt.gz
Temp
64 63 64 64 65 65 65 65 65 65 65 65 64 65 65 65 64 63 64 64 64 64 65 65 65 64 64 64 64 64 64 65 64 63 62 62 61 61 61 59 59 58 62 59 63 60 58 55 56 60 60 60 61 61 61 62 62 62 62 63 63 62 61
64 63 64 64 64 64 64 64 64 64 64 65 65 64 65 65 65 64 64 63 63 64 65 65 65 64 64 63 63 62 62 63 64 63 63 62 62 61 59 57 58 60 59 59 60 60 58 56 56 57 57 59 60 60 61 61 62 63 63 63 63 62 62
63 63 63 63 63 63 63 63 63 63 63 64 64 64 64 64 65 64 63 64 63 64 65 64 64 64 64 64 64 64 63 63 63 63 63 63 63 61 61 59 58 58 59 59 58 58 59 58 57 57 58 58 57 59 60 60 62 62 63 63 62 62 61
63 63 63 62 63 62 63 62 63 62 62 63 63 63 63 64 64 65 64 64 64 64 65 64 64 64 64 64 64 63 63 63 62 62 62 62 62 61 61 61 61 61 60 59 58 59 57 55 57 57 59 60 60 58 60 61 62 63 63 62 62 61 60
64 64 63 63 63 63 63 62 62 61 61 62 63 63 63 64 64 64 64 64 64 64 64 64 65 65 65 65 63 63 63 63 63 62 62 61 61 61 61 61 61 62 61 61 61 61 60 59 59 58 58 60 60 60 60 60 62 62 63 62 62 61 60
64 64 64 63 64 63 63 62 61 61 61 61 62 62 63 64 64 63 63 63 63 63 64 64 64 65 65 64 63 63 63 63 63 62 62 61 62 61 61 61 61 61 62 61 61 61 60 60 60 57 59 60 58 58 59 61 60 61 62 61 62 61 61
63 63 63 64 64 63 62 61 61 61 60 61 62 62 64 64 63 64 63 63 63 63 64 64 64 64 64 63 63 62 63 63 63 62 62 62 62 63 63 61 60 61 60 60 61 61 60 59 58 59 58 58 59 58 57 60 60 60 60 62 62 61 60
62 62 62 63 63 62 61 61 62 61 61 61 62 62 63 63 63 63 63 62 63 63 63 63 64 63 63 63 63 63 63 63 63 63 62 62 61 62 61 62 61 60 60 60 61 62 63 62 61 60 59 55 55 56 57 58 59 60 60 60 62 60 60
62 61 60 61 62 62 62 61 61 61 61 61 62 62 62 63 62 62 63 63 63 63 63 63 63 63 63 62 62 63 62 64 62 62 62 62 62 62 62 61 61 61 61 61 62 62 63 62 62 62 62 60 56 53 55 56 56 59 60 60 59 60 60
62 62 61 61 61 62 61 61 61 61 61 62 62 63 62 62 62 62 62 62 63 63 63 63 62 62 62 62 63 62 62 63 63 63 62 62 62 62 62 61 62 61 60 60 61 61 61 61 62 63 64 62 61 58 54 55 55 56 59 60 60 60 60
62 62 62 62 61 61 61 61 61 61 61 62 62 63 63 62 62 64 62 62 62 62 63 62 63 63 62 61 62 62 63 63 62 62 61 62 61 61 61 61 61 61 61 61 61 61 61 61 62 62 63 63 63 61 58 56 56 56 57 58 60 60 57
62 62 62 62 61 61 61 61 61 61 62 62 62 62 62 62 62 62 62 62 62 62 62 62 62 62 62 61 62 62 62 62 62 61 61 61 61 61 60 60 60 61 60 61 61 60 61 61 62 62 62 63 61 62 60 59 57 57 58 58 59 59 59
61 62 62 61 61 61 61 62 61 61 61 62 62 62 62 62 62 62 62 62 62 62 62 62 62 62 62 62 62 62 62 62 61 61 60 61 61 61 61 60 60 60 60 61 60 60 60 61 61 61 62 62 61 60 60 59 58 58 56 58 60 58 59
60 61 61 61 61 61 61 61 61 62 62 61 61 61 62 62 62 62 62 62 62 62 62 62 62 61 61 61 61 62 62 62 62 61 61 60 61 61 61 61 60 60 61 61 60 60 60 61 61 61 62 61 61 59 61 59 58 55 56 54 57 58 57
61 61 61 61 61 61 61 61 61 61 61 61 62 62 62 62 62 62 62 62 62 62 62 62 61 61 61 61 61 62 62 62 62 61 61 60 61 61 61 61 61 60 61 61 60 60 61 59 61 60 61 62 62 59 60 61 56 56 56 56 55 55 56
61 61 61 61 61 62 61 61 61 61 61 61 62 62 62 62 62 62 62 62 62 61 61 62 61 61 61 62 61 61 62 62 62 61 60 61 60 61 60 61 61 60 60 60 60 61 60 60 60 61 61 61 62 59 60 61 58 57 56 56 54 56 55
61 61 60 61 61 61 61 61 62 62 62 61 61 61 62 62 62 62 62 62 62 61 61 61 61 62 62 62 61 61 62 62 62 62 61 61 61 61 61 60 60 60 60 60 59 59 59 60 60 60 60 59 59 59 57 58 62 60 57 58 54 59 56
60 60 60 60 60 61 61 61 62 62 61 60 61 61 61 61 61 61 61 61 61 61 62 61 61 61 62 62 61 61 62 62 62 62 62 62 62 61 61 61 61 60 60 60 58 58 59 59 60 60 59 59 60 60 59 59 61 61 57 58 55 55 55
59 59 60 60 60 60 61 61 62 62 62 61 61 61 61 60 61 61 61 61 61 61 61 61 61 61 62 62 61 62 62 62 62 62 62 61 62 62 62 61 60 60 60 60 59 59 59 60 60 60 59 60 61 61 59 59 59 58 60 59 57 54 54
59 59 59 59 60 61 61 61 62 62 62 61 61 60 60 60 60 61 61 61 61 61 61 61 61 61 62 61 61 61 61 61 61 61 61 61 62 62 62 62 61 60 61 61 60 59 59 59 59 59 59 60 61 60 59 59 60 56 56 57 55 56 55
60 60 60 59 59 60 61 61 61 62 61 61 60 60 60 60 60 60 60 60 60 60 60 60 60 61 61 61 60 61 61 60 60 60 60 60 61 61 61 61 60 60 61 61 61 60 60 59 60 59 59 60 61 59 59 57 56 55 55 57 57 55 54
60 60 60 60 60 60 60 61 61 61 61 61 60 60 61 60 58 57 57 56 57 58 58 59 59 59 59 59 60 60 60 60 60 59 58 58 58 58 58 58 57 58 60 61 57 57 58 58 60 59 59 59 60 59 58 57 56 54 54 55 55 53 54
58 59 59 59 60 60 61 60 60 60 60 60 60 59 58 57 57 56 55 55 55 55 55 54 54 53 56 60 59 60 59 59 60 59 58 57 56 56 56 57 59 61 59 57 54 51 50 52 56 60 59 59 59 59 57 54 54 55 53 50 52 53 53
56 58 59 59 59 60 60 60 60 59 59 59 58 57 56 56 55 55 55 54 54 53 51 51 46 44 48 52 59 59 59 58 58 58 58 57 55 54 54 54 55 56 55 54 52 47 46 47 49 51 52 55 58 60 57 55 55 54 55 56 53 53 55
54 57 58 58 59 59 59 59 58 57 56 55 55 54 54 54 54 54 54 54 52 51 50 47 43 44 46 47 53 59 59 58 57 57 57 56 55 54 53 52 52 53 55 53 52 51 48 44 42 42 41 42 42 44 48 56 57 54 53 52 52 53 54
53 56 57 57 58 57 57 56 55 54 54 53 53 53 52 51 52 52 53 52 50 50 49 43 43 44 45 46 48 54 58 57 57 56 56 55 54 53 52 52 52 50 53 56 54 53 51 49 45 45 45 46 45 43 40 39 45 58 56 56 56 54 54
52 53 54 54 54 53 52 51 50 50 50 50 50 49 50 49 50 51 52 51 50 49 49 45 43 43 43 44 46 50 56 55 55 54 54 53 52 52 52 53 52 51 51 53 53 53 53 53 53 52 52 52 52 50 46 45 44 45 52 57 55 54 53
50 52 51 51 50 49 49 48 47 47 47 47 47 47 46 47 49 49 50 50 50 49 47 42 41 42 43 44 45 48 53 53 52 51 50 50 50 50 50 50 51 51 51 53 53 53 54 53 52 51 50 50 50 50 49 49 50 54 54 54 55 54 52
49 49 49 49 48 47 46 46 45 45 45 44 44 45 44 46 46 47 48 49 49 47 45 41 41 42 44 44 47 52 52 51 50 50 50 50 50 50 50 50 50 50 51 51 49 46 49 53 52 51 50 50 49 49 48 46 42 44 49 51 52 50 49
48 48 48 47 46 46 45 45 45 45 43 43 43 43 43 44 45 45 47 47 48 46 46 42 41 43 44 45 48 52 51 50 49 48 48 49 50 50 50 50 50 49 49 50 46 44 45 49 52 50 50 48 48 48 48 49 44 42 42 41 41 41 41
48 47 46 45 45 44 44 44 44 44 43 43 43 43 44 44 44 45 45 46 47 47 45 43 41 42 44 45 49 51 50 49 48 48 48 48 48 48 49 50 50 49 48 48 43 43 44 50 52 50 49 48 48 47 46 48 49 47 44 43 42 42 42
47 47 46 45 45 44 44 43 44 44 44 43 43 44 44 43 44 44 44 45 48 46 45 44 42 42 44 45 49 52 51 50 48 48 48 47 47 47 47 45 44 45 46 43 40 42 45 50 52 51 50 49 47 47 46 47 49 49 49 50 49 50 48
46 47 46 46 45 45 45 44 44 44 44 44 43 43 43 43 42 42 43 44 44 44 44 44 42 41 42 44 46 52 52 51 48 47 48 48 47 47 47 46 43 39 39 39 40 40 41 44 50 49 50 50 48 45 46 47 47 48 47 47 47 47 46
44 46 47 46 46 46 45 44 44 44 43 44 43 43 43 43 42 42 42 42 42 43 44 43 41 40 41 42 43 46 51 50 50 49 49 48 48 46 45 44 43 40 38 38 39 39 40 40 43 48 49 48 47 45 44 47 46 45 46 46 45 45 45
44 45 46 47 46 46 46 46 45 45 44 44 44 43 43 43 42 42 42 42 42 41 43 43 42 40 39 41 41 43 48 49 49 50 47 46 45 44 43 42 41 39 38 38 37 37 37 38 39 41 39 38 38 40 45 45 45 45 45 45 44 44 44
43 44 44 45 46 45 46 46 45 45 44 44 43 43 43 43 42 42 42 41 41 41 42 42 40 41 39 39 40 40 41 44 43 48 46 43 42 42 42 42 42 40 38 38 38 38 38 38 39 39 37 38 39 39 42 45 45 45 44 44 44 43 42
42 42 43 44 45 45 45 45 45 45 44 43 42 42 42 42 41 41 40 40 41 41 42 42 41 40 40 39 39 39 40 40 42 45 45 43 43 42 42 42 41 38 38 38 38 38 38 39 40 38 38 38 39 41 44 44 44 43 42 42 42 41 41

ECMWFFLT1_sfc_temp_075.txt.gz
Temp
66 67 70 70 70 66 64 66 66 65 66 66 67 70 72 71 70 71 71 72 71 70 70 70 69 68 68 69 69 70 71 72 71 71 68 67 66 67 69 68 68 69 72 70 72 70 68 63 62 64 66 65 65 66 68 69 69 69 68 69 71 70 71
67 69 70 67 64 64 64 65 65 65 66 66 66 67 67 66 67 67 68 69 71 72 74 72 71 68 67 67 66 66 68 71 72 72 71 69 69 69 67 66 68 69 70 70 71 72 69 66 64 63 62 63 65 66 67 69 69 69 70 70 72 73 72
67 66 67 66 66 65 64 65 66 64 64 65 66 67 66 67 67 67 66 67 68 71 73 74 73 68 67 67 67 67 70 70 71 72 71 72 71 72 71 69 67 67 68 68 68 70 69 70 66 66 66 62 60 64 66 66 67 69 71 71 71 74 74
66 65 64 65 65 64 63 65 64 63 64 65 65 65 66 67 68 68 67 68 69 70 72 73 72 72 69 66 66 67 68 69 70 71 71 71 71 71 70 70 70 69 68 67 68 69 68 67 67 67 67 68 66 63 65 68 69 70 71 71 72 73 73
67 65 63 65 66 64 65 64 63 63 63 64 64 64 65 66 66 67 68 68 68 69 69 72 73 73 73 67 66 68 68 69 70 70 69 67 68 69 69 71 71 72 72 72 73 72 70 69 69 68 67 67 68 70 69 66 70 70 70 71 73 73 73
67 66 65 65 66 64 66 66 64 64 65 64 64 63 64 65 66 65 66 66 67 68 69 71 72 73 73 67 65 66 67 69 69 69 69 67 68 68 69 70 72 73 73 74 74 73 73 72 71 68 70 70 66 67 68 66 63 69 71 71 72 72 73
65 65 66 66 67 68 68 67 67 66 65 65 65 64 65 65 65 65 66 66 68 69 70 70 71 71 68 65 65 65 66 67 66 67 69 69 69 70 71 70 71 72 73 74 74 73 72 70 70 69 67 67 67 67 68 66 68 66 68 70 72 72 71
67 68 68 68 67 67 67 67 67 68 66 67 66 66 67 66 65 65 65 65 65 65 67 69 68 68 67 66 67 67 67 67 67 66 66 68 69 69 69 71 71 72 73 74 73 73 75 73 72 71 69 63 63 65 64 65 66 67 70 70 71 70 71
68 68 68 68 67 67 68 68 68 68 68 68 67 67 66 67 67 66 65 65 65 65 66 67 67 66 66 66 66 67 66 68 67 67 66 67 68 69 70 71 72 72 72 73 74 74 75 74 74 73 71 69 64 61 63 63 64 66 72 71 71 72 72
67 67 67 67 67 68 68 68 68 69 69 68 68 68 67 67 67 67 67 66 64 65 65 66 65 66 66 66 67 67 66 67 67 67 66 67 68 69 71 71 71 72 72 72 73 73 74 74 74 74 74 71 70 67 62 62 64 65 70 74 70 71 74
66 67 67 67 68 68 68 66 66 67 69 70 69 68 68 67 67 67 67 66 65 65 65 65 66 67 67 66 67 67 68 67 66 65 66 67 67 68 69 71 72 72 72 72 72 72 73 73 73 73 73 74 74 70 69 66 66 70 70 72 74 72 72
67 68 68 67 67 68 67 67 68 68 69 69 68 67 67 67 66 67 67 66 65 65 65 65 65 66 67 66 67 67 67 67 65 64 65 65 67 65 66 68 70 71 71 71 71 71 72 72 73 74 73 74 73 72 71 70 67 69 73 68 72 75 73
68 68 67 66 66 66 67 68 68 66 67 68 67 66 67 67 67 67 67 66 65 65 64 64 66 65 65 66 67 66 66 67 65 65 65 66 67 66 67 67 70 71 71 72 71 71 72 72 73 73 73 72 73 72 72 71 69 67 69 72 72 72 74
65 66 65 65 65 66 67 68 69 69 68 66 65 65 67 68 69 69 69 68 68 66 65 65 66 66 66 66 67 66 66 67 67 65 65 65 66 65 68 69 71 71 72 71 72 71 72 73 72 72 73 73 72 72 71 70 69 69 67 68 70 72 72
65 65 64 63 64 67 68 68 68 69 67 66 66 66 67 68 68 69 69 69 69 69 68 68 67 66 66 66 66 66 66 67 66 66 64 64 64 66 67 69 72 72 72 72 72 73 73 72 73 72 73 73 73 72 72 72 70 69 67 66 68 71 69
64 64 63 63 64 66 67 68 69 67 66 66 67 67 67 67 67 68 68 68 70 69 68 68 67 66 66 66 66 65 66 67 67 65 64 64 65 67 68 70 71 71 70 70 71 72 72 71 72 73 72 73 73 72 73 74 71 69 68 68 69 69 69
62 62 63 63 63 64 65 67 68 66 66 67 67 67 67 67 67 67 67 68 69 69 68 67 67 67 67 67 67 66 67 67 67 66 65 66 67 68 70 70 70 70 69 69 70 70 69 68 66 70 71 72 72 71 71 71 72 70 70 68 67 72 71
61 61 62 62 62 63 64 65 66 66 66 66 67 67 66 67 67 67 66 67 68 68 68 67 66 66 67 68 68 67 66 67 67 66 65 65 66 67 71 70 71 71 70 70 70 69 68 66 68 69 69 72 72 72 70 70 72 72 70 69 68 70 70
59 60 61 62 63 65 66 66 66 66 66 66 67 66 66 66 67 68 68 69 70 70 69 68 68 67 68 68 67 66 66 65 65 64 63 63 66 68 71 71 72 72 71 70 69 69 68 67 68 70 70 70 72 72 70 70 70 70 71 71 70 66 67
59 60 61 62 64 65 67 66 66 66 67 67 66 66 66 66 66 68 69 69 70 70 70 70 69 68 68 68 66 65 66 66 65 64 63 64 65 71 72 72 71 71 71 71 70 69 68 68 68 69 70 69 72 71 69 70 71 67 63 66 69 70 68
59 60 61 63 64 64 64 65 65 66 66 65 65 66 66 66 66 67 68 69 70 70 69 69 70 69 69 69 67 66 65 65 67 65 63 63 65 66 69 70 70 71 71 71 71 71 70 68 68 68 70 70 70 69 69 69 69 64 64 65 67 67 69
57 59 60 61 63 64 64 64 64 65 65 65 65 66 66 66 66 65 67 68 69 68 68 68 69 68 68 68 67 65 64 66 67 66 64 63 64 66 69 69 70 69 69 67 62 64 64 63 67 65 66 66 69 69 69 69 68 67 67 66 65 67 67
57 58 58 60 62 64 65 65 64 65 65 66 65 65 65 65 66 66 65 67 68 67 67 68 63 57 59 67 65 64 64 64 64 63 63 63 65 64 65 67 68 64 60 58 55 52 52 53 58 66 67 67 67 69 68 68 68 68 68 66 65 65 65
56 56 58 59 62 64 65 65 64 65 64 64 63 63 63 63 64 65 66 66 66 65 65 65 52 48 50 53 63 63 64 65 64 62 63 64 63 64 66 69 68 63 61 58 58 48 49 48 50 53 55 58 61 67 69 67 68 68 67 67 66 65 64
55 55 56 56 58 60 61 62 62 63 63 62 62 61 60 61 62 63 64 66 65 63 64 54 46 47 47 49 55 65 65 65 64 64 65 66 66 65 65 64 65 65 66 65 63 58 51 43 42 42 43 45 47 48 50 63 67 67 67 67 64 64 66
54 54 54 54 53 53 54 56 55 55 56 58 59 58 59 59 60 61 62 62 62 59 58 45 44 46 45 47 50 59 68 67 65 65 66 66 65 65 64 64 63 64 63 57 61 63 61 56 46 43 44 45 43 43 44 43 47 64 70 66 62 60 63
53 53 53 52 51 51 51 50 50 50 51 53 54 54 54 55 56 56 57 57 57 57 56 45 42 44 44 45 47 56 67 66 65 65 65 64 63 64 64 64 64 63 64 63 64 63 63 62 61 62 62 63 62 55 47 46 46 44 57 65 62 62 62
51 52 53 52 50 50 48 48 48 48 48 47 48 48 49 49 50 51 51 52 52 52 50 42 41 42 43 45 47 53 63 62 62 61 61 62 63 63 64 65 65 64 64 63 63 62 63 63 62 61 61 60 60 58 56 57 61 66 65 66 65 62 61
51 52 52 51 50 48 48 47 46 47 47 47 47 47 47 47 47 48 49 49 49 48 46 41 41 43 44 45 49 61 61 60 59 59 59 60 60 61 62 64 65 64 63 62 52 48 55 64 63 61 59 59 57 53 50 44 42 46 54 59 59 56 52
50 50 51 51 50 49 48 46 46 47 46 46 46 45 45 45 46 46 47 47 46 45 46 42 41 43 45 47 52 61 61 62 60 59 59 59 60 60 61 63 65 64 62 61 48 45 47 54 63 61 59 57 58 57 55 51 44 41 41 41 40 40 41
49 49 49 50 49 49 49 50 48 47 45 45 45 45 45 45 45 45 45 45 45 45 46 43 40 41 44 48 53 60 62 61 59 58 58 58 59 58 56 50 59 65 62 58 43 44 46 57 62 60 59 57 56 55 54 54 53 49 43 43 42 42 43
49 48 48 48 49 49 49 48 48 47 46 45 44 45 45 43 43 43 44 44 46 44 44 43 40 40 42 46 55 60 61 60 58 57 57 55 56 56 55 51 46 53 58 51 41 43 46 57 61 59 58 57 54 53 52 54 54 54 55 55 54 55 53
49 49 49 48 49 49 50 48 47 46 45 45 44 44 44 43 42 42 43 43 43 43 43 43 42 39 41 42 47 59 60 59 56 55 56 56 55 54 55 54 49 40 40 40 41 41 44 50 60 60 59 57 54 50 53 53 54 55 55 55 55 55 54
48 49 50 49 49 49 49 48 48 47 45 45 45 44 44 43 42 42 42 43 42 43 43 42 42 39 40 41 43 50 58 56 56 56 55 54 53 52 51 51 50 40 38 39 39 40 41 44 48 57 58 56 54 51 50 52 51 49 54 54 55 55 55
49 48 49 50 49 48 48 48 48 47 46 46 45 44 44 43 43 42 42 42 42 42 44 43 42 41 39 41 41 45 54 54 54 55 52 51 51 49 48 47 45 40 37 38 38 39 40 41 43 51 48 42 41 43 53 54 55 55 56 57 57 56 56
48 49 48 49 49 48 48 48 47 47 46 45 45 44 43 43 43 42 42 42 42 43 43 43 40 41 40 40 40 41 42 46 43 52 51 48 47 46 47 44 42 39 38 38 39 39 40 40 43 45 39 40 41 42 47 54 54 56 56 55 53 52 52
49 48 47 48 49 50 50 50 48 47 46 45 43 43 43 43 42 41 41 41 42 42 43 43 41 39 40 39 39 39 40 40 42 47 47 46 45 44 42 40 39 38 38 38 38 38 39 40 42 38 40 40 42 46 55 54 55 54 53 53 53 52 51

ECMWFFLT1_sfc_temp_078.txt.gz
Temp
72 73 75 76 74 71 69 69 70 69 69 72 71 71 70 71 70 69 70 69 70 76 75 73 70 70 71 73 72 70 70 69 69 67 69 72 71 72 75 74 74 75 77 76 76 73 71 68 68 72 73 72 72 69 72 76 77 77 75 76 79 79 78
73 72 73 75 76 74 72 73 71 71 72 72 72 71 71 71 69 69 70 70 69 72 76 74 70 70 71 71 70 68 68 69 68 67 66 70 73 75 73 73 74 75 76 76 76 77 73 70 70 68 67 71 71 71 70 75 78 77 76 76 78 80 78
73 74 74 75 74 74 73 73 73 72 70 68 68 69 71 71 70 69 69 71 70 70 71 75 72 71 70 70 71 71 72 72 70 67 66 68 73 75 75 75 73 73 74 74 74 74 75 74 71 71 70 66 64 68 73 74 76 77 77 76 76 80 80
72 72 72 73 74 73 73 72 72 72 71 69 67 68 69 71 70 70 69 70 70 69 70 69 69 70 70 70 71 71 70 69 68 67 66 69 68 70 73 76 75 73 72 73 73 74 73 72 72 73 74 74 72 69 71 74 75 77 78 77 77 79 79
72 72 72 72 73 72 72 72 72 71 70 69 67 67 68 70 70 69 69 69 69 69 69 70 68 68 69 71 71 71 69 68 67 67 66 67 67 72 70 74 76 77 77 76 78 76 75 74 73 73 74 75 76 75 75 74 77 77 76 78 78 80 80
73 72 72 72 73 74 74 73 73 73 73 71 69 68 68 69 69 69 69 68 69 71 72 72 71 69 67 68 69 70 69 69 69 68 66 68 72 72 70 75 78 78 77 77 76 76 76 76 75 73 75 78 72 74 77 75 73 78 79 78 79 81 81
72 73 73 74 74 75 75 74 74 74 74 72 72 71 70 70 70 69 69 69 70 71 73 74 72 70 68 67 68 68 69 70 71 70 69 70 73 74 75 76 77 78 77 77 71 73 76 74 73 73 73 75 75 75 76 75 77 74 75 79 79 80 79
73 73 73 73 73 73 73 73 74 74 73 73 73 73 73 72 71 70 69 68 69 70 72 73 73 71 68 66 67 68 69 71 71 70 69 71 73 74 73 75 75 76 77 75 76 76 77 76 76 75 74 70 69 71 71 75 76 75 76 78 80 80 79
73 73 73 73 72 72 72 73 74 74 74 74 74 74 73 73 72 70 69 69 70 70 71 72 72 71 67 66 66 67 68 71 70 70 72 72 72 73 72 73 71 75 76 77 77 77 74 76 78 78 76 74 69 66 70 70 73 75 79 74 78 79 79
69 70 70 71 71 72 72 72 72 74 75 75 74 74 74 74 72 72 70 69 69 70 70 70 70 71 70 68 68 68 70 73 71 71 71 72 73 73 72 71 71 69 67 68 76 77 76 76 78 78 78 76 75 70 67 67 68 71 76 77 72 77 79
68 69 70 71 73 73 72 72 72 73 74 75 74 74 73 72 72 72 72 71 70 70 71 70 70 71 70 68 68 68 70 71 71 71 71 71 71 72 73 73 73 70 68 69 75 76 76 76 76 78 78 80 79 75 73 70 69 74 75 77 79 78 78
67 68 69 71 71 72 72 72 72 73 73 73 73 72 72 73 73 72 72 71 71 70 70 70 70 70 69 66 67 67 68 68 68 69 68 71 72 72 73 73 73 70 68 66 72 74 76 76 77 79 79 79 78 77 76 74 70 72 79 74 79 83 81
69 69 69 68 70 72 73 73 73 72 71 69 71 74 73 73 74 74 73 71 70 70 70 70 71 70 68 67 67 67 67 66 66 67 69 72 72 72 72 72 71 70 68 65 70 74 77 77 78 79 79 78 78 77 76 75 70 68 77 77 79 81 82
68 69 68 69 70 71 72 72 71 70 69 66 68 71 73 74 75 75 74 72 72 70 70 69 70 70 69 68 67 67 68 68 68 67 71 70 72 71 71 73 73 72 71 69 70 75 78 79 78 78 79 79 78 77 76 75 73 72 74 78 78 80 81
69 70 69 69 69 71 72 71 68 67 68 68 68 70 74 74 74 74 73 73 72 71 70 70 70 69 69 68 66 67 68 68 69 71 71 71 71 71 70 72 73 73 70 69 69 78 79 79 80 79 79 79 79 78 77 77 72 72 67 73 77 81 79
67 67 68 69 69 69 69 70 71 69 68 67 70 72 72 72 72 73 73 72 72 72 70 70 69 69 70 69 68 67 68 69 68 69 69 69 69 71 70 70 71 71 70 68 69 75 78 78 80 80 78 79 79 78 80 80 77 74 73 72 76 77 77
65 65 66 68 68 69 70 70 71 70 69 68 69 71 71 72 71 71 71 72 73 73 72 71 70 70 70 70 69 68 68 69 69 70 69 70 70 71 71 71 71 71 69 68 71 70 73 78 77 79 78 78 78 78 78 77 78 77 75 72 73 78 77
62 63 63 65 67 69 70 70 71 71 70 68 69 70 71 71 70 71 70 71 74 74 72 71 69 70 70 71 71 70 70 70 69 68 69 72 70 71 72 71 72 72 71 70 68 69 74 75 78 78 76 78 78 78 78 77 77 77 75 73 73 77 78
62 62 62 63 64 66 68 70 70 69 71 71 71 70 71 71 70 70 71 72 74 74 72 71 73 72 72 72 72 72 71 71 69 69 72 73 73 72 72 72 71 71 72 71 69 70 75 75 77 77 76 76 79 79 75 76 76 75 76 71 73 72 75
61 61 62 63 64 66 68 69 70 70 70 70 70 70 71 71 71 70 71 72 73 73 73 73 74 74 74 74 73 73 72 69 67 67 72 72 72 72 73 73 71 70 69 69 69 70 74 74 74 75 75 75 78 77 75 72 76 74 73 69 73 74 74
61 62 63 64 64 66 68 69 69 70 69 69 69 69 70 71 71 71 71 71 72 72 71 70 74 74 74 74 73 72 71 69 70 71 71 71 71 71 72 73 73 71 71 67 69 72 72 70 74 74 75 76 76 75 74 75 66 69 71 69 71 72 74
62 63 64 64 63 63 64 66 67 69 69 69 69 70 70 70 70 70 70 70 71 70 68 66 68 70 73 72 72 71 70 70 71 70 69 69 69 69 71 72 71 71 68 66 61 58 59 62 72 73 73 76 75 74 73 75 74 72 71 70 69 72 74
63 63 63 63 64 63 63 63 63 64 64 65 68 69 71 70 70 69 68 69 70 68 66 68 67 59 61 70 70 72 71 71 71 70 68 67 66 68 69 70 70 63 59 59 58 55 54 54 56 67 75 75 74 74 73 72 72 69 70 69 69 67 69
62 62 63 63 64 63 63 62 62 61 61 62 64 66 67 68 69 69 69 69 68 68 67 67 56 51 51 53 65 71 70 69 69 68 67 66 65 66 67 69 68 63 62 60 57 50 51 49 51 53 52 55 60 69 73 70 66 71 69 65 68 70 71
61 61 62 63 62 63 62 62 62 62 62 61 61 62 63 64 66 67 67 68 68 67 66 58 50 49 50 49 57 71 71 70 69 67 66 67 68 67 67 66 66 65 64 65 65 60 56 48 46 45 46 47 48 46 46 61 66 66 67 68 71 70 70
61 61 62 62 62 62 61 59 59 59 59 59 59 58 58 58 58 59 61 65 66 67 66 53 48 49 48 47 49 60 73 71 69 68 66 66 67 68 68 66 65 65 66 62 65 68 67 60 46 42 43 45 45 46 47 45 46 60 67 63 62 63 67
61 60 60 61 61 60 59 56 56 56 57 58 57 56 54 54 54 55 55 56 58 60 57 42 41 44 46 46 47 54 72 69 69 69 69 68 68 69 70 69 68 68 67 66 69 69 68 65 64 64 65 68 67 55 48 47 47 45 58 65 66 61 64
60 60 60 60 59 59 57 56 55 55 54 54 54 53 52 52 53 53 53 54 54 53 51 40 41 42 42 44 45 50 67 70 69 69 70 70 70 71 72 71 71 70 68 68 71 68 70 67 67 67 67 67 65 64 64 65 67 69 69 68 71 70 70
58 59 59 58 58 57 56 55 54 54 53 52 53 53 53 53 52 53 52 52 51 50 49 39 39 41 42 42 43 60 66 67 66 68 68 70 71 72 72 71 70 69 69 71 59 52 61 70 69 68 66 64 61 58 54 46 41 45 60 67 66 64 61
57 57 57 56 56 55 54 54 53 53 51 51 50 49 50 50 51 52 51 50 49 47 48 42 39 40 41 40 47 61 62 63 64 65 66 67 68 68 69 70 71 69 68 69 52 48 50 57 68 67 65 63 61 60 57 53 44 41 41 40 40 40 40
56 56 56 55 55 55 55 54 53 53 51 49 48 48 48 48 48 49 49 48 47 45 45 43 39 40 40 39 45 58 60 62 63 62 62 65 65 64 58 48 60 69 66 63 44 46 47 60 67 66 64 61 59 56 56 57 57 51 42 42 42 42 42
56 56 55 55 54 54 53 51 51 53 52 52 51 51 49 47 46 47 47 47 46 45 44 43 40 40 41 41 46 56 58 60 62 61 60 60 64 64 60 54 45 55 62 53 42 46 46 59 66 65 64 63 59 57 57 59 59 59 60 60 60 61 59
56 55 56 55 55 54 53 51 50 51 52 52 52 52 50 49 47 46 46 45 44 45 44 43 41 40 41 41 42 53 57 57 56 57 59 61 61 60 60 58 51 40 41 41 43 45 46 51 66 65 66 64 61 59 61 60 60 60 59 59 58 58 58
55 55 56 56 57 57 55 53 51 50 49 50 51 52 52 51 48 45 45 46 45 43 43 43 42 39 40 41 41 47 54 54 53 53 56 55 52 52 53 53 51 40 38 38 39 39 41 42 50 67 67 67 63 60 56 58 56 52 58 56 57 58 58
56 55 56 56 56 56 57 57 54 52 50 49 49 50 51 51 50 46 45 45 45 43 43 42 42 40 39 40 40 42 49 50 51 52 50 51 50 48 48 48 49 41 38 39 39 40 40 42 44 64 57 45 43 46 58 58 58 59 59 57 56 58 60
52 53 54 56 56 55 56 56 56 54 51 49 48 48 48 48 47 46 45 44 44 44 43 42 40 40 39 39 39 39 40 45 43 51 49 48 48 49 49 48 46 39 38 39 39 40 41 42 46 47 41 43 43 44 50 59 58 57 57 57 58 56 56
52 53 54 54 55 55 54 55 55 54 52 51 49 47 46 46 46 45 44 43 43 43 43 43 41 39 39 38 38 38 38 38 41 48 50 50 50 50 49 47 43 38 38 39 39 39 39 41 45 41 42 42 45 49 59 57 58 57 55 55 54 54 55

ECMWFFLT1_sfc_temp_081.txt.gz
Temp
76 75 77 77 77 74 76 76 76 75 75 76 76 76 76 75 74 73 73 71 69 70 68 68 67 68 70 70 72 72 73 72 71 69 68 67 65 69 73 67 67 68 71 69 69 68 66 62 66 72 75 74 75 75 75 75 76 76 75 78 80 79 75
77 77 79 79 78 75 74 76 75 76 76 76 77 77 76 76 75 73 73 72 70 70 70 69 67 67 69 70 71 70 71 71 71 71 68 66 67 66 67 68 68 66 68 68 69 73 65 68 68 68 68 73 73 72 74 76 77 77 78 78 79 80 78
76 77 78 77 76 76 75 74 73 75 76 75 75 77 76 76 75 75 74 73 72 71 70 70 70 70 71 71 71 69 69 70 70 70 69 68 69 69 67 67 65 65 64 65 71 72 75 75 67 68 68 68 65 70 73 73 75 78 79 78 78 80 76
75 75 74 70 73 75 75 75 75 76 75 75 75 75 75 76 76 75 74 74 74 72 71 71 71 72 72 70 70 68 69 70 69 69 68 68 69 68 68 66 64 64 65 65 68 72 73 71 71 70 71 73 71 69 71 74 76 79 80 79 78 80 78
74 75 75 72 74 74 75 75 77 77 76 77 75 74 74 75 74 74 74 74 73 72 71 72 72 73 72 73 70 68 68 69 68 67 67 67 68 68 69 68 65 66 66 66 75 72 74 71 74 73 73 73 70 74 74 73 78 79 79 79 80 80 80
74 73 73 71 70 70 70 70 73 75 77 76 76 74 74 74 74 73 72 71 72 73 73 73 73 73 73 73 72 72 70 68 68 68 66 68 69 69 69 69 68 69 67 67 74 74 75 75 73 74 76 78 72 72 74 74 72 79 80 79 80 81 82
73 74 73 72 71 71 70 68 69 68 70 76 78 76 76 75 74 74 74 73 73 73 74 74 73 73 73 71 71 72 71 70 71 70 69 71 70 70 70 68 67 69 70 72 72 72 72 74 73 74 74 75 76 74 75 75 75 72 76 80 81 81 81
73 74 74 75 74 71 68 68 68 70 70 70 73 77 77 75 76 75 74 74 74 73 74 74 74 73 72 71 71 71 72 73 72 71 70 70 69 69 69 68 67 67 67 67 66 71 79 77 76 75 74 70 71 72 70 76 77 76 72 79 81 80 81
71 72 74 75 74 74 72 71 70 70 72 72 72 72 71 68 72 74 74 74 75 74 74 74 73 73 72 70 71 71 71 74 72 72 70 69 69 69 68 67 66 66 70 68 67 73 78 78 77 76 74 73 68 65 71 71 73 75 80 77 80 81 80
69 70 70 72 73 75 75 74 74 73 73 73 71 71 70 70 68 69 73 74 73 74 74 74 74 73 72 70 70 71 71 73 73 72 71 67 69 68 67 66 66 68 67 69 70 73 75 75 76 76 77 75 75 68 67 67 69 70 75 79 75 78 82
69 69 70 71 73 73 74 75 75 73 72 72 71 70 69 68 68 69 71 73 74 74 74 75 74 73 71 69 70 71 73 73 72 72 72 70 68 67 66 66 66 66 69 67 70 73 74 73 72 76 75 76 75 72 70 67 68 74 74 77 79 77 80
70 70 70 70 71 72 73 74 71 70 72 70 69 68 68 67 67 67 69 70 71 74 75 74 74 73 72 69 69 68 70 71 71 70 71 70 70 67 66 66 67 67 69 69 73 72 72 71 71 75 74 73 76 74 73 72 68 72 78 73 77 81 79
70 69 70 69 69 71 73 73 73 69 68 72 71 69 67 66 66 69 69 68 69 71 74 74 74 73 72 71 70 69 69 70 70 70 70 70 71 70 70 70 68 66 68 68 73 73 73 72 72 73 74 74 76 75 74 71 70 68 75 75 75 78 81
67 69 69 70 69 71 72 73 74 73 72 72 73 71 69 69 69 69 68 67 67 68 72 75 74 73 72 71 71 71 71 71 71 71 71 71 72 71 71 71 72 69 68 67 70 74 73 73 73 73 74 74 74 75 74 70 69 68 72 75 74 75 79
68 68 67 67 68 70 72 73 73 74 73 74 74 73 73 72 71 69 67 66 65 66 68 74 75 74 72 71 71 71 71 70 70 70 71 71 70 70 69 69 69 70 67 68 74 74 75 74 74 73 73 75 75 74 75 73 66 66 68 73 73 77 73
67 66 66 66 66 67 68 70 74 73 73 73 75 73 73 73 71 69 67 65 66 67 69 70 75 74 73 72 72 72 71 70 69 70 69 69 71 71 68 67 67 69 67 68 70 73 74 73 73 72 72 75 73 75 79 78 67 66 68 70 74 75 75
66 65 64 65 65 65 66 68 70 72 73 73 73 74 74 73 71 69 67 66 66 67 68 72 75 75 74 73 73 72 72 71 70 70 70 70 71 70 70 68 68 69 66 67 71 71 72 71 68 66 66 68 72 75 75 75 72 71 69 67 71 72 75
64 64 64 65 64 65 66 67 69 71 73 73 74 74 73 74 71 68 67 67 67 69 69 68 73 74 73 73 73 72 71 71 70 72 71 71 69 70 71 71 72 71 69 70 66 66 71 70 70 66 65 69 70 75 74 73 74 73 69 69 71 76 75
63 64 64 65 65 66 66 66 66 68 70 72 73 73 73 74 74 72 69 68 68 69 71 69 70 71 72 73 73 72 72 71 71 70 70 68 71 71 70 71 71 71 70 72 69 71 71 71 71 69 68 70 72 75 73 71 70 70 69 67 72 74 75
63 64 64 64 65 66 67 66 66 66 67 69 71 72 73 74 74 72 73 72 71 69 68 66 67 71 74 75 74 73 71 68 67 66 70 73 73 71 70 71 69 69 67 70 71 70 71 71 70 69 68 66 68 73 71 73 74 66 66 68 71 74 75
64 65 65 66 65 66 66 67 66 67 66 65 67 69 70 71 72 74 72 71 73 70 67 66 68 69 72 73 73 71 69 68 67 66 68 71 70 70 70 69 69 69 70 73 72 71 71 68 67 65 64 65 65 67 71 69 68 69 69 69 71 69 74
66 66 66 67 66 66 66 66 66 66 66 66 66 66 67 68 70 71 72 71 71 70 67 66 68 69 71 72 71 68 68 68 66 66 65 68 69 69 69 69 68 69 70 67 62 63 64 64 67 64 65 64 63 64 63 64 69 71 70 70 70 72 73
66 66 66 66 66 66 66 66 65 65 64 65 64 64 65 67 68 67 67 69 72 70 68 66 64 58 57 66 70 68 67 65 66 65 64 66 65 66 67 70 68 63 59 59 56 53 52 55 59 66 67 65 64 64 63 62 64 66 70 66 68 68 68
66 66 65 66 65 66 66 65 64 63 62 62 62 63 63 63 64 63 64 65 65 66 67 67 53 51 50 48 59 65 65 65 64 63 63 64 63 65 69 69 65 62 62 60 60 49 50 49 49 51 51 55 59 64 64 62 63 63 61 61 65 67 67
65 64 65 65 64 65 64 64 62 61 60 59 59 60 60 60 60 61 61 62 62 63 63 49 40 42 45 47 50 61 64 63 63 63 63 65 64 67 67 68 65 67 68 71 69 62 55 48 46 44 43 43 44 47 53 61 63 63 64 64 60 63 64
64 63 63 63 63 63 62 62 60 59 58 58 58 57 58 58 58 59 59 59 59 61 62 46 40 41 42 42 44 52 65 64 62 63 63 65 68 66 65 66 68 68 70 63 67 68 66 58 47 44 44 44 43 44 42 43 49 64 68 66 63 63 64
62 62 61 61 61 61 60 59 59 58 57 57 56 56 56 56 56 57 57 57 57 58 58 46 40 40 42 41 41 44 63 64 64 64 64 67 67 66 67 69 68 67 68 66 68 69 67 65 63 63 64 68 66 53 45 43 44 47 59 66 65 64 63
60 61 61 60 60 59 58 57 57 57 57 55 55 54 54 54 54 55 55 54 54 54 55 43 40 38 39 42 42 43 58 64 63 62 63 66 66 65 67 69 68 67 67 66 68 67 68 67 66 66 67 64 63 64 61 60 62 65 67 64 63 65 66
59 60 60 59 58 58 57 56 55 56 56 56 55 54 54 54 53 53 52 51 50 51 54 44 40 39 38 41 42 52 57 61 62 62 64 65 65 65 67 67 66 66 67 68 58 52 59 68 67 66 64 62 62 59 53 45 41 42 58 66 65 65 61
58 59 60 59 59 58 57 56 56 56 55 55 54 54 53 52 52 50 49 50 48 49 51 46 40 39 40 38 45 55 56 60 62 63 64 63 63 63 62 65 66 66 68 68 53 48 51 56 68 67 64 62 61 60 56 53 44 41 41 40 40 40 41
58 58 59 58 58 59 59 58 56 56 54 53 53 54 54 54 52 50 49 48 48 46 48 47 41 39 40 39 45 56 58 60 60 59 60 62 59 55 53 49 59 67 66 64 47 48 47 60 69 66 64 62 60 58 57 57 55 49 43 43 42 42 43
58 57 57 57 57 57 58 58 58 57 56 55 53 54 55 54 52 50 49 48 47 46 45 46 41 39 40 41 48 59 59 59 57 56 57 57 58 57 54 50 47 56 62 53 44 46 47 60 69 66 63 62 60 60 59 59 57 57 59 59 59 60 58
57 57 57 58 58 57 58 58 58 57 56 56 54 53 52 53 51 50 49 48 47 46 43 44 43 38 39 41 42 52 54 53 52 51 50 50 51 51 51 50 47 41 41 41 41 39 40 44 66 65 64 62 60 58 61 61 60 62 62 63 62 61 60
57 57 58 58 58 58 58 57 57 57 56 55 53 52 50 51 51 49 47 48 48 46 45 43 43 39 39 40 40 45 49 50 50 49 48 46 46 46 46 46 47 41 39 40 41 41 42 43 52 66 65 64 61 59 57 57 54 52 57 58 58 59 59
57 56 58 58 57 57 58 58 58 57 56 55 53 51 50 50 50 49 47 47 47 46 47 44 43 40 38 39 39 41 46 47 47 48 46 45 45 44 44 44 43 40 39 40 40 42 43 44 46 57 51 45 45 48 60 60 59 59 59 59 59 59 59
57 57 57 57 57 56 57 57 56 56 55 54 53 51 50 50 49 48 47 47 46 46 46 46 42 42 40 39 38 39 39 42 42 47 46 44 43 43 44 44 43 40 39 40 41 42 43 44 48 49 43 44 45 46 53 61 59 57 55 55 54 53 52
59 58 58 57 57 56 56 56 55 54 54 52 51 50 50 50 49 48 46 46 46 45 45 45 44 41 42 39 39 38 38 38 40 43 44 43 42 42 42 42 41 39 40 40 40 41 41 43 46 42 44 44 45 47 55 53 53 53 51 50 50 50 50

ECMWFFLT1_sfc_temp_084.txt.gz
Temp
72 72 73 73 72 73 73 74 73 73 74 75 74 74 74 74 73 72 72 71 70 70 69 68 67 68 67 67 67 67 66 65 65 64 63 63 63 65 66 65 66 68 68 67 66 63 60 58 60 65 66 67 68 68 70 71 72 70 69 70 72 70 70
74 74 73 73 72 71 71 72 73 74 74 74 74 73 74 74 73 72 72 71 70 70 69 69 68 68 68 67 66 66 66 65 66 67 66 64 65 66 65 66 66 65 66 66 67 65 62 59 60 61 61 65 66 68 69 71 72 71 70 70 72 71 70
73 73 73 71 70 70 70 70 70 70 70 71 72 72 71 72 72 73 72 72 71 71 70 70 69 69 68 68 67 67 67 67 68 68 67 68 67 68 67 66 64 64 64 63 63 62 62 63 60 61 62 62 60 65 68 68 71 71 71 71 70 72 70
71 71 71 71 70 70 69 69 69 69 69 69 68 68 68 71 72 70 70 70 70 71 70 70 69 69 69 68 68 68 68 68 67 68 67 68 68 67 67 66 65 65 63 62 62 62 61 60 60 60 60 64 65 63 66 70 71 73 72 71 70 72 70
70 70 70 69 70 70 70 69 68 67 66 67 68 67 67 70 71 69 68 67 67 68 68 70 70 70 69 69 68 68 68 68 68 67 67 66 67 66 67 67 66 66 65 64 64 64 62 61 61 60 61 61 64 66 69 69 72 72 73 73 74 73 71
69 70 70 70 71 70 69 67 67 67 67 66 65 66 67 67 67 69 67 66 66 67 68 67 68 69 68 68 67 68 68 68 67 67 66 66 67 66 66 67 67 66 65 65 65 64 64 63 62 60 61 62 59 63 67 68 67 72 74 72 74 74 73
68 68 69 69 70 70 69 68 68 67 66 65 65 65 66 66 66 67 66 67 69 72 71 69 68 68 68 66 67 66 67 68 68 67 67 67 67 67 68 67 67 67 66 66 65 64 63 63 61 61 61 62 63 63 68 67 70 68 70 71 73 77 74
67 67 68 69 69 69 70 69 67 66 67 67 66 67 68 67 67 67 67 68 69 69 70 70 71 70 67 67 65 65 67 67 68 68 67 67 67 67 67 67 67 67 66 66 66 65 65 64 64 63 62 59 60 62 64 66 68 69 68 69 72 76 75
67 67 67 68 69 69 70 69 69 67 67 67 67 68 68 69 67 66 66 66 67 68 67 68 68 69 68 66 65 67 66 69 67 66 67 68 67 68 67 68 67 66 67 67 66 65 65 65 64 63 62 61 58 57 63 61 64 66 73 70 73 75 75
67 67 67 68 68 69 69 70 69 69 68 68 68 69 68 69 69 68 66 66 67 67 67 67 67 68 67 65 65 66 67 68 68 67 65 67 68 68 67 67 66 66 66 67 67 66 65 65 64 64 64 62 61 60 60 59 61 63 69 72 68 72 76
66 67 67 67 68 68 69 70 70 70 69 70 69 68 67 67 69 69 68 67 67 67 67 67 68 69 68 65 66 66 68 69 67 67 67 66 66 67 66 66 67 66 67 66 65 66 66 65 64 65 64 65 64 63 63 61 62 66 67 71 72 70 72
66 66 67 67 66 67 68 69 70 70 71 70 69 69 67 67 68 69 68 67 67 67 66 65 66 67 68 65 66 65 66 66 66 66 67 68 66 65 67 66 66 66 67 65 66 65 66 66 67 68 69 70 67 67 66 64 59 63 70 66 68 72 73
67 67 66 65 65 66 67 67 68 68 69 70 69 69 69 68 68 68 68 67 67 67 67 66 66 66 66 66 66 65 65 66 66 67 66 66 67 67 66 65 65 65 66 66 65 65 65 66 68 69 70 69 68 67 66 64 63 60 66 66 68 71 74
64 66 65 65 65 65 65 65 66 67 68 69 70 69 69 69 69 69 69 68 68 67 67 66 66 65 65 65 65 65 65 66 66 66 66 65 65 66 65 65 67 67 67 66 65 65 65 67 68 68 70 69 68 68 68 66 64 63 65 66 67 70 73
64 64 64 64 64 65 65 65 66 67 67 68 70 70 70 69 68 67 68 70 69 68 66 66 66 65 64 64 64 64 64 64 65 65 65 65 65 64 64 64 66 67 67 66 66 66 67 66 69 69 69 69 69 68 70 68 65 64 63 65 65 63 64
63 63 63 63 64 65 65 66 67 65 66 67 69 70 69 69 68 69 67 65 68 69 68 66 65 64 64 64 64 64 64 64 65 65 65 64 65 66 65 64 64 65 67 66 66 66 66 67 69 69 70 70 70 69 70 70 66 64 65 64 67 63 66
63 63 63 63 63 64 65 65 66 66 66 67 67 68 69 70 70 69 68 65 65 67 68 67 66 65 65 65 64 64 64 65 64 64 65 66 65 64 65 64 64 65 65 65 65 64 64 65 64 64 66 67 70 66 64 65 68 65 64 64 67 67 70
63 63 63 63 63 64 64 65 65 66 66 66 66 66 67 69 68 68 67 67 67 65 64 65 66 66 66 65 65 65 65 65 64 64 65 66 65 64 63 63 64 65 65 64 64 64 63 63 64 64 64 66 65 66 65 64 64 63 60 60 64 66 68
63 64 64 64 64 64 65 65 65 65 65 65 65 65 65 66 66 66 68 68 68 66 66 65 65 66 67 66 64 64 64 64 64 64 65 65 64 64 64 64 65 65 63 64 64 64 64 64 65 65 65 64 64 64 63 62 63 63 62 61 62 62 66
63 63 63 64 64 64 65 64 64 64 63 63 63 62 63 63 64 65 66 67 65 64 65 65 64 65 66 66 65 65 64 64 64 63 64 64 65 65 65 66 64 64 63 64 64 64 64 64 65 65 66 66 66 64 63 62 63 61 61 61 62 65 65
63 63 64 64 64 63 64 63 63 62 62 60 60 60 61 61 62 63 63 63 64 63 63 64 63 59 57 60 61 63 63 63 63 63 64 64 65 65 65 64 64 65 65 64 64 64 63 63 64 63 64 65 63 63 61 61 61 61 60 60 60 62 66
63 63 63 63 63 62 62 62 62 61 60 59 59 59 59 60 59 60 60 61 62 62 62 59 50 49 49 50 52 57 62 63 63 63 62 63 64 65 65 65 65 64 65 64 60 60 61 62 63 62 63 64 63 62 61 60 60 60 59 59 59 60 59
62 62 61 61 61 61 61 61 60 59 59 59 58 58 58 58 58 57 57 58 59 59 60 54 49 45 46 47 47 52 57 61 62 62 63 63 63 65 65 64 64 64 60 59 58 54 53 55 59 64 64 63 62 61 60 60 59 59 59 59 59 58 58
61 60 60 60 60 60 60 59 59 58 58 58 57 57 57 56 56 56 55 55 55 56 58 51 45 42 42 43 45 48 52 56 61 62 62 62 63 63 64 65 63 63 61 60 59 53 52 52 54 55 57 59 62 63 61 60 60 59 59 58 58 58 57
59 59 60 59 59 59 59 58 57 57 57 56 56 56 55 55 54 54 54 53 53 53 55 47 42 42 42 41 42 44 48 53 58 61 63 63 63 63 63 63 62 62 62 62 63 58 53 50 48 47 48 50 52 54 55 61 60 59 59 58 58 57 57
59 59 59 59 59 59 58 57 56 56 55 56 56 55 55 54 53 53 52 51 51 52 53 47 43 42 41 40 39 41 47 53 56 59 61 62 63 63 63 61 61 61 63 61 62 61 58 52 46 45 45 46 46 48 49 51 54 62 61 60 58 58 58
58 58 59 59 59 59 57 56 56 56 55 55 55 55 54 53 52 52 51 50 50 50 51 46 42 41 40 39 39 39 44 50 55 58 61 62 62 63 63 62 61 60 61 62 62 61 59 56 54 54 56 58 56 50 46 45 48 52 57 62 61 60 61
57 57 58 58 58 58 57 56 56 55 55 54 54 53 54 53 52 51 50 50 49 48 49 44 41 40 39 39 39 39 46 52 56 58 60 62 63 63 63 62 60 61 61 61 61 61 60 58 58 59 60 59 58 58 58 58 61 63 63 62 62 61 60
56 57 57 57 57 56 56 56 55 55 55 55 54 54 54 54 52 50 50 49 48 47 47 43 41 40 39 39 39 46 52 55 56 58 59 61 62 62 62 62 61 61 62 62 57 51 55 60 61 60 58 55 53 52 49 45 40 41 51 61 60 58 57
55 55 56 56 56 55 55 55 55 56 54 54 52 52 52 52 52 50 49 48 47 46 47 44 41 39 39 39 42 49 54 55 57 58 60 61 60 59 59 61 62 61 62 62 53 47 50 54 61 59 56 54 53 52 51 50 43 41 41 41 40 41 42
54 54 55 55 55 55 55 56 55 55 54 53 52 52 52 52 51 50 48 47 47 46 46 45 41 40 39 39 42 50 54 55 54 53 52 51 51 51 50 49 58 62 60 60 46 47 47 55 60 58 56 54 53 51 51 52 52 47 43 43 43 43 44
55 54 54 54 55 54 54 54 55 55 55 54 53 53 52 51 50 50 49 48 48 46 46 45 42 40 40 39 41 48 51 50 48 48 48 49 49 48 48 47 46 52 56 50 44 46 46 55 60 58 56 55 53 52 52 53 53 53 54 54 55 55 54
55 55 54 54 55 54 55 54 54 53 53 54 53 52 52 51 49 48 48 47 46 46 45 45 44 40 40 40 40 44 48 47 46 45 46 45 46 46 46 45 44 40 40 40 40 41 46 51 59 58 57 55 53 52 55 56 56 56 55 55 55 55 55
55 55 56 55 55 54 54 53 53 52 52 52 51 51 50 50 49 48 48 47 47 46 46 45 44 41 40 40 40 40 43 44 45 45 44 43 43 43 42 43 43 41 41 41 41 42 44 48 51 58 57 56 55 54 53 54 52 51 54 53 53 53 54
56 56 56 56 54 53 53 53 52 52 51 50 49 49 49 49 49 48 48 47 47 46 46 45 44 43 40 40 40 40 41 42 43 44 43 42 42 42 41 42 41 41 40 41 41 42 43 44 45 51 49 45 45 48 55 56 56 55 54 53 52 52 53
55 56 55 55 55 53 53 52 52 51 50 49 48 48 47 48 47 47 46 46 46 46 45 45 43 42 41 40 40 40 39 40 40 44 42 41 41 41 43 43 43 42 40 40 40 41 42 43 45 46 42 43 44 45 49 53 52 52 51 50 48 46 47
56 56 56 55 54 53 52 51 51 50 50 49 48 47 46 46 46 45 45 45 45 45 45 44 43 41 41 40 40 40 39 39 40 42 43 41 41 41 41 42 42 40 41 41 41 40 40 41 42 42 43 43 45 46 50 50 49 48 47 46 46 46 46

ECMWFFLT1_sfc_temp_087.txt.gz
Temp
66 66 67 66 66 66 66 67 68 67 68 68 68 68 69 69 68 67 67 67 67 67 67 67 66 66 66 66 66 66 66 64 64 63 62 63 62 62 64 63 63 63 63 62 61 60 57 57 59 62 63 64 64 64 65 66 67 67 65 66 68 66 66
68 68 67 66 66 66 66 65 65 66 67 67 68 68 67 68 67 67 67 67 66 66 66 65 66 66 66 65 65 65 65 64 64 64 63 63 63 63 62 62 63 62 63 63 62 61 57 56 56 59 59 61 62 63 63 65 66 67 66 66 68 68 67
68 68 68 65 64 65 65 65 65 64 64 64 65 65 65 66 66 66 66 67 66 65 65 65 65 66 66 65 65 65 65 64 64 64 63 63 64 64 63 63 62 63 62 62 61 60 60 59 56 58 59 59 59 62 64 64 65 66 67 67 67 68 67
66 66 66 66 66 66 65 64 64 64 64 64 64 64 64 64 64 66 65 64 64 65 65 65 65 65 66 66 66 65 65 64 64 64 64 64 64 64 64 63 63 63 63 62 62 61 60 57 57 58 59 61 61 60 62 65 66 67 68 67 67 68 67
64 64 65 65 65 66 66 65 63 63 63 63 63 62 63 64 64 64 64 64 64 63 64 64 65 66 65 65 65 65 65 65 65 65 65 64 64 64 64 64 64 64 64 63 63 63 61 60 60 59 58 59 60 61 62 64 67 67 67 67 68 69 69
62 63 65 65 65 65 66 65 64 63 63 63 63 63 63 63 63 63 63 62 63 63 64 64 65 66 64 64 64 64 64 64 65 65 64 64 65 63 64 65 65 64 64 63 63 62 62 61 60 58 59 60 57 59 61 63 62 64 66 67 69 69 69
61 63 64 64 65 65 66 65 65 65 63 62 63 62 63 63 63 63 64 64 64 64 65 65 65 64 64 63 64 64 64 65 64 63 64 64 64 64 64 63 64 65 64 64 63 62 62 61 59 59 59 59 59 58 60 60 63 63 63 65 69 70 69
63 63 63 63 64 64 64 65 65 65 63 63 62 63 64 63 64 64 64 64 64 64 65 65 65 64 64 63 64 64 63 64 65 64 63 64 63 63 64 63 64 64 64 64 63 63 63 63 62 61 59 57 57 57 58 60 61 63 64 66 69 70 69
63 64 64 64 63 63 63 63 64 64 65 64 63 63 64 64 64 64 64 64 64 64 64 63 63 63 64 64 64 64 63 65 63 62 63 63 63 63 63 64 63 63 64 64 64 64 63 63 63 62 61 60 57 54 56 56 59 60 67 66 67 71 70
62 62 62 62 62 61 62 62 62 63 64 65 65 65 64 63 64 64 64 64 64 64 64 64 63 62 63 63 63 63 63 64 63 63 63 63 63 63 63 63 63 64 63 63 63 64 64 63 63 63 63 61 61 58 55 55 57 58 64 68 64 67 71
62 63 63 62 62 60 61 61 61 61 63 65 66 66 66 64 63 65 64 65 64 64 64 64 63 64 63 63 62 63 64 64 64 64 64 64 63 63 63 63 63 62 63 63 63 64 64 64 63 63 63 63 62 60 59 57 57 61 63 67 68 66 70
61 61 62 63 63 62 61 61 61 61 62 64 65 66 66 66 65 65 65 64 64 63 63 63 62 63 63 62 62 62 63 63 62 62 63 63 63 63 63 63 63 62 63 63 63 63 64 64 64 64 63 64 63 62 61 59 56 60 66 64 67 70 70
62 60 60 61 62 62 63 62 62 62 62 63 64 66 66 65 65 66 65 64 64 64 63 63 62 63 62 62 62 62 63 63 62 62 62 63 63 63 63 62 63 63 63 63 63 63 63 64 64 64 64 64 63 63 62 61 60 59 64 65 66 68 71
57 57 57 58 59 61 62 63 63 64 64 63 64 65 65 65 66 65 65 64 63 63 64 63 62 61 61 62 62 62 62 63 63 62 62 62 62 63 62 63 64 63 64 63 63 63 63 64 64 65 66 65 64 63 62 61 61 60 62 64 65 66 65
58 57 57 58 58 59 61 62 63 64 63 64 65 64 65 65 65 64 63 64 64 63 62 62 63 62 61 61 61 62 62 62 61 62 63 63 64 64 62 62 63 63 63 62 63 64 64 64 64 64 65 66 64 62 63 61 60 60 61 60 63 62 62
59 58 59 59 60 61 62 62 63 62 62 62 63 63 62 63 63 64 64 63 64 63 63 62 62 63 63 62 62 62 62 62 61 61 61 62 63 63 61 61 61 62 63 62 63 64 65 64 65 65 65 66 66 63 63 63 60 59 61 61 63 62 63
59 60 60 60 60 61 61 61 61 60 59 59 59 60 60 61 62 61 61 62 62 62 62 62 60 59 59 59 61 62 63 62 62 62 62 62 63 62 61 61 61 62 62 62 62 63 63 63 63 63 64 65 66 64 62 62 63 63 62 61 61 64 64
58 58 58 58 58 60 60 59 59 58 57 57 57 57 58 58 58 58 58 59 60 60 60 54 53 53 53 54 53 54 57 61 63 63 63 63 64 63 62 62 62 63 62 61 61 61 62 62 63 62 63 64 64 66 65 63 61 60 59 59 59 62 63
57 57 57 58 59 59 59 58 57 57 57 57 57 57 57 57 57 56 56 56 57 57 57 52 51 51 51 51 51 51 53 55 59 62 63 62 62 62 62 62 62 62 62 61 61 61 62 62 63 63 62 62 63 62 60 59 60 60 59 58 59 59 60
57 57 57 57 59 59 58 58 58 57 58 57 56 56 56 56 56 55 55 55 54 55 55 51 50 49 48 48 48 49 50 52 55 59 62 63 63 63 63 62 62 61 61 61 61 61 61 62 63 63 63 63 63 60 60 59 60 59 59 58 59 59 59
57 58 58 58 58 58 57 57 57 58 58 57 56 56 55 55 55 55 54 54 54 54 54 50 49 47 47 47 46 46 47 49 52 55 59 62 63 63 63 63 63 62 62 63 62 62 62 62 62 62 62 63 62 60 59 59 58 58 58 58 58 57 58
58 58 58 57 56 56 56 56 57 57 57 56 56 56 56 55 54 53 53 53 53 53 52 49 48 46 45 44 45 44 45 47 49 52 55 59 62 63 62 62 62 62 63 64 59 59 60 61 63 61 62 62 61 60 60 59 58 58 58 58 58 58 57
58 58 57 56 54 54 54 55 56 56 56 56 56 56 55 54 53 52 51 51 51 51 51 49 48 45 44 43 43 43 44 45 47 50 52 55 59 61 62 62 62 63 60 58 57 54 53 54 57 62 63 62 61 60 60 59 58 58 58 57 57 57 56
57 56 57 57 56 55 54 54 54 55 55 55 54 55 54 53 52 51 50 50 49 49 49 49 44 41 41 41 42 42 42 43 45 47 50 54 57 60 61 62 62 62 60 59 58 53 51 51 51 52 55 57 60 62 60 59 58 59 58 58 58 57 57
56 55 56 56 56 55 54 53 52 53 53 53 53 54 53 52 51 50 49 49 48 48 48 47 42 41 41 40 41 42 42 42 44 47 49 53 56 59 61 62 62 62 62 61 61 59 54 50 48 48 49 50 50 52 55 59 59 59 58 57 57 57 58
55 55 55 55 56 55 54 53 52 51 51 52 52 51 52 51 50 50 49 48 48 48 48 45 41 41 40 40 40 41 42 43 44 45 48 51 54 57 60 61 61 61 62 61 61 61 61 58 50 48 49 49 49 49 49 50 53 61 60 59 58 57 58
53 54 55 55 55 54 53 53 53 52 51 51 50 50 51 50 49 48 48 47 47 47 47 44 41 41 40 40 39 40 46 46 45 47 49 51 54 57 59 60 60 60 61 61 60 61 61 59 57 53 53 55 56 54 50 48 49 50 55 60 59 58 59
53 53 54 53 53 52 52 52 52 52 51 50 50 49 49 48 48 48 47 47 46 46 46 43 41 40 40 40 39 42 51 53 53 53 53 54 56 57 58 60 60 60 61 61 60 60 60 58 56 56 56 56 57 58 58 57 58 59 59 60 60 60 59
50 50 51 50 50 49 50 50 50 51 51 51 51 50 50 49 47 47 47 46 45 45 46 42 41 40 40 40 40 46 50 51 50 49 50 50 50 51 52 53 56 60 61 61 56 50 54 57 57 57 56 55 54 53 50 46 42 44 54 61 61 61 59
48 48 49 48 48 47 47 48 48 50 49 50 49 49 48 48 48 47 46 46 45 44 45 44 41 40 40 40 42 45 46 48 48 47 47 48 48 49 49 50 49 51 59 60 53 47 48 51 58 57 55 53 53 52 49 47 42 41 41 41 41 42 42
47 46 47 47 47 47 47 48 48 49 48 48 48 49 49 48 48 47 46 45 45 44 44 44 41 40 40 40 42 44 44 45 46 45 46 47 47 46 47 48 49 47 49 58 51 46 46 53 58 56 55 53 52 51 50 50 49 46 43 43 43 42 42
47 46 46 46 47 46 46 46 47 48 48 48 48 49 49 48 47 47 47 46 47 44 43 43 42 40 40 40 42 44 43 43 43 44 44 44 45 45 45 46 46 44 43 49 48 44 45 53 57 55 54 54 52 51 50 50 50 51 53 53 52 52 50
46 47 45 45 46 46 45 45 45 45 46 46 46 47 48 47 46 46 46 46 45 44 43 43 43 40 40 40 40 43 42 41 41 42 43 43 43 44 44 44 44 40 39 40 45 44 44 49 56 55 55 53 51 49 52 53 52 53 52 51 50 50 49
46 46 46 45 46 45 45 44 44 44 44 44 44 44 44 45 45 45 46 46 45 45 44 43 43 40 40 40 40 40 41 41 40 42 42 42 42 41 42 43 44 42 39 40 42 43 45 46 49 55 54 53 52 51 50 51 49 49 49 48 48 48 48
48 48 46 46 45 45 44 44 44 43 43 42 42 42 42 42 42 42 43 45 45 44 45 45 42 41 40 40 40 40 40 41 40 42 41 41 41 41 41 42 42 41 40 40 40 41 42 43 44 50 47 43 43 44 50 50 50 49 49 48 48 47 48
48 49 47 46 45 45 44 44 43 43 42 41 41 40 40 40 40 40 41 42 43 44 44 44 42 41 40 39 39 39 39 39 39 42 41 40 40 40 41 41 42 41 40 40 40 41 41 42 43 42 41 42 42 43 46 48 47 48 47 47 47 46 46
47 47 47 45 45 45 44 44 43 43 41 40 39 39 39 39 39 39 39 39 41 42 43 42 42 40 40 39 39 39 39 39 39 40 42 40 40 40 40 40 40 39 40 40 41 41 40 41 42 41 42 42 43 44 47 46 46 46 45 45 45 45 45

ECMWFFLT1_sfc_temp_090.txt.gz
Temp
63 64 64 65 64 65 64 64 65 65 66 67 66 65 66 66 66 65 65 65 65 65 65 66 66 66 66 66 66 66 65 64 62 62 62 61 60 61 63 62 62 63 62 61 60 62 58 57 59 62 63 63 62 63 64 64 65 65 64 65 66 65 65
65 65 66 66 65 65 64 64 64 64 65 65 65 65 65 65 65 65 65 64 65 65 65 65 64 65 66 66 65 65 64 64 64 63 62 61 61 61 61 61 62 61 61 61 61 61 57 56 56 59 60 62 62 62 63 65 65 65 65 65 66 66 65
65 65 65 64 65 65 65 65 64 63 63 63 64 64 65 65 64 64 65 65 64 64 64 64 63 63 64 65 66 65 65 64 64 63 63 63 63 63 63 63 61 61 60 60 60 59 58 58 57 58 60 60 59 62 63 63 64 64 65 65 65 66 66
63 64 63 63 63 64 64 64 65 65 64 64 63 63 63 64 64 64 63 63 64 64 64 63 63 63 63 63 65 65 64 64 63 62 62 63 63 62 62 61 62 61 61 60 60 60 60 59 57 58 59 61 61 61 62 64 64 65 65 65 65 66 66
62 62 62 62 62 62 63 63 63 63 64 64 63 62 63 63 63 62 62 62 63 63 63 63 63 64 64 64 63 64 64 64 64 63 63 63 63 61 61 62 62 63 62 62 63 63 61 60 60 58 58 59 59 60 61 62 64 65 65 65 66 66 66
60 61 62 62 62 61 62 61 62 61 62 63 63 63 62 62 62 62 62 61 61 62 63 63 63 64 63 64 64 63 63 62 63 63 62 62 62 61 61 62 62 62 62 63 63 61 61 61 60 58 58 59 58 59 60 61 61 63 64 65 67 67 67
60 61 61 61 61 62 62 61 61 61 61 61 62 62 63 63 63 62 62 62 62 63 63 63 63 63 63 63 63 63 62 63 63 62 62 62 63 63 63 62 62 62 63 63 63 62 61 60 59 59 58 57 58 58 59 59 61 60 62 64 67 68 67
60 59 60 60 61 61 61 61 61 61 61 61 62 63 65 64 64 63 62 62 63 63 64 64 64 63 63 63 63 63 63 63 63 63 62 62 62 62 62 62 62 62 62 63 62 62 62 61 61 60 59 56 56 56 56 57 58 61 62 63 66 67 67
59 58 58 59 59 59 60 61 61 61 62 62 63 64 64 64 64 63 63 63 64 64 63 63 63 62 62 61 62 63 62 64 63 62 62 62 62 62 62 62 62 62 62 63 63 63 62 62 62 61 60 59 57 54 56 56 57 59 64 61 63 67 67
56 56 56 56 57 57 58 59 59 60 62 62 63 64 64 64 64 65 64 64 64 63 63 62 62 63 62 61 61 61 62 64 63 62 62 61 62 62 62 62 62 62 62 63 63 63 63 62 62 62 61 60 60 57 55 55 57 58 61 64 61 64 68
56 56 56 57 57 57 57 58 58 58 59 61 63 64 64 63 63 64 63 64 64 64 63 63 63 63 63 62 61 61 62 62 62 62 62 62 62 62 62 62 62 61 62 62 62 62 62 62 62 62 61 61 61 58 58 56 57 60 60 63 65 63 67
56 56 56 57 56 57 58 58 58 58 59 60 61 62 62 62 62 62 62 62 63 63 63 63 63 63 63 61 61 61 62 62 62 62 63 62 62 62 62 61 62 61 62 62 62 62 62 62 62 62 61 62 61 61 61 58 56 59 63 61 64 67 66
56 56 57 57 58 59 59 59 58 57 57 58 58 59 59 60 61 60 61 61 62 62 62 61 59 59 61 61 61 61 61 61 61 62 62 62 62 62 61 61 62 62 62 62 62 62 62 62 62 62 62 61 62 61 61 59 58 59 61 63 64 66 68
56 58 59 59 59 59 58 57 57 57 57 56 56 56 56 57 58 58 59 59 60 60 56 55 55 55 54 54 55 56 59 61 62 62 62 62 62 62 62 62 62 62 63 62 62 62 62 62 62 62 62 62 61 62 61 59 58 59 61 62 63 64 65
56 57 57 57 57 57 56 56 56 56 55 55 56 55 55 55 56 56 55 56 57 57 54 54 53 53 52 52 53 54 54 54 57 60 62 62 62 62 62 62 62 63 63 62 62 62 62 62 62 62 62 62 61 61 61 59 59 59 59 60 59 60 61
55 54 54 55 55 56 57 57 58 56 56 56 56 56 55 55 54 54 54 54 54 55 53 52 51 51 50 50 50 51 51 52 53 55 58 61 62 62 62 62 62 62 62 62 62 62 63 62 63 62 62 62 61 61 62 61 59 58 58 59 59 59 61
54 54 55 56 55 56 57 57 58 57 56 56 55 56 56 55 55 54 53 52 52 53 51 51 49 49 48 48 48 48 49 50 51 53 55 57 61 62 62 62 62 61 61 61 62 61 62 62 62 62 62 62 62 61 62 61 62 60 59 58 58 60 62
53 53 54 54 53 55 56 57 57 57 56 56 55 55 55 55 54 53 52 52 52 53 50 50 48 47 47 47 46 47 47 48 49 50 52 54 58 60 62 62 62 62 62 60 61 61 61 61 62 62 62 62 62 62 62 61 61 60 58 57 58 59 60
52 52 53 52 52 53 55 56 56 56 56 55 55 54 54 54 53 52 52 52 52 52 51 49 48 47 46 46 45 45 46 46 47 48 50 52 55 57 60 62 62 62 62 61 60 61 61 61 62 62 62 62 62 62 61 61 60 60 59 59 58 57 59
54 52 52 51 52 52 53 55 55 55 56 55 54 53 53 52 52 52 52 51 51 51 51 49 48 46 45 44 44 44 44 45 46 47 48 50 52 54 57 61 62 62 62 62 61 61 61 61 61 62 62 62 62 62 60 60 60 59 59 59 58 59 58
55 55 53 52 52 51 52 53 54 54 54 54 54 53 51 51 51 51 51 50 50 50 50 48 47 46 44 44 43 43 43 44 44 45 46 48 50 52 54 58 61 62 63 62 62 62 61 60 60 60 62 61 61 61 60 59 59 59 58 58 58 58 58
55 54 54 53 52 51 51 51 52 52 52 52 53 52 50 50 49 49 50 50 50 50 48 47 47 45 43 43 43 42 43 43 44 44 45 47 48 50 52 54 58 62 63 63 59 58 59 59 61 60 61 62 62 61 60 59 58 58 58 58 57 58 58
54 54 54 53 53 51 50 51 51 50 50 50 50 50 49 49 49 49 49 49 49 48 48 47 47 44 43 43 42 42 43 44 44 45 45 46 47 50 51 53 57 60 58 57 56 53 52 53 55 60 62 62 61 61 59 59 58 58 58 57 57 57 56
53 52 52 53 53 52 52 52 51 50 49 49 49 49 48 47 47 47 47 47 47 47 47 47 43 40 41 42 43 43 43 44 46 47 46 46 47 49 51 53 55 58 59 58 58 52 50 50 50 50 52 56 59 62 60 58 58 58 58 57 57 57 57
50 50 50 50 50 50 50 50 50 49 48 47 48 47 46 46 46 46 46 46 46 47 47 45 40 41 40 40 43 44 45 46 49 50 49 48 48 49 50 52 53 56 59 61 61 60 56 50 48 48 47 48 49 50 53 59 59 58 58 57 57 57 57
48 48 48 48 48 48 48 47 48 48 47 48 47 45 45 45 44 45 44 44 44 45 45 44 40 40 40 40 40 44 47 48 49 49 49 49 50 50 51 51 53 55 58 59 60 61 61 60 52 48 48 48 48 47 46 47 51 59 61 59 59 58 58
47 47 47 47 47 46 46 45 46 46 47 47 46 45 45 44 44 44 44 43 43 43 44 43 40 40 40 39 39 42 46 47 48 48 48 48 48 48 48 48 48 49 52 54 58 60 61 60 60 58 55 53 54 54 48 46 46 48 55 61 60 58 59
46 46 46 46 45 45 45 44 45 45 45 45 45 45 44 43 44 44 43 43 42 42 43 42 40 40 40 39 39 43 45 46 47 47 48 48 48 47 47 47 47 47 49 50 51 53 57 60 60 59 58 56 56 57 57 56 55 56 57 60 60 60 60
45 45 45 44 44 44 43 43 43 44 44 44 45 44 44 44 43 43 43 43 42 41 42 42 40 40 40 39 40 44 44 45 45 45 46 47 47 47 47 47 47 47 47 47 48 45 46 52 58 59 58 58 57 57 57 56 53 53 58 60 61 61 60
44 43 43 43 43 42 42 42 43 44 42 42 42 43 43 43 43 43 42 42 42 41 41 42 40 40 39 39 40 42 43 43 44 44 45 46 46 47 46 48 48 47 46 45 44 41 41 43 49 57 58 57 57 56 56 50 44 45 47 49 51 51 50
43 42 42 42 41 41 41 42 41 42 41 40 41 41 42 42 42 42 42 41 43 41 40 42 41 40 39 39 40 41 42 42 42 43 44 45 45 45 46 48 48 46 44 43 41 40 40 42 47 53 57 56 55 54 51 48 48 46 44 45 45 46 46
42 42 42 41 41 41 41 41 41 41 40 40 40 40 42 40 41 41 41 42 45 42 40 42 41 39 39 39 40 41 41 41 40 41 42 43 44 44 44 45 46 44 43 41 39 38 38 41 48 53 57 55 53 52 50 50 50 49 50 51 50 50 48
42 42 41 41 41 40 40 40 40 40 40 39 39 39 39 40 39 40 40 41 41 41 40 40 41 40 40 40 39 40 41 39 38 39 41 42 41 42 42 42 43 41 39 39 39 38 38 40 49 55 56 54 53 52 50 51 52 53 52 51 50 50 49
42 41 41 41 41 41 40 39 39 39 39 39 38 39 39 39 39 39 39 40 40 40 42 40 40 40 40 40 39 39 39 39 39 39 40 40 40 39 40 40 41 42 39 39 39 40 40 40 44 54 53 54 54 50 49 51 49 48 49 48 48 48 48
43 44 41 41 40 40 40 40 40 38 37 38 38 38 38 38 38 38 39 39 40 39 41 43 40 40 40 39 39 39 38 39 39 39 40 40 39 39 39 39 40 40 39 39 39 39 40 41 41 45 43 40 41 43 49 49 49 49 48 48 47 47 47
42 43 42 41 39 39 39 39 39 39 38 38 37 37 37 37 37 37 38 38 39 39 39 41 41 40 40 39 39 39 38 38 38 40 39 38 38 38 39 39 40 40 39 39 39 39 39 40 42 41 40 41 42 42 45 48 47 47 46 46 46 45 45
40 40 40 40 40 38 38 38 38 39 37 37 36 37 37 37 36 37 36 37 38 38 39 38 40 40 40 39 39 38 38 37 38 38 40 39 39 39 38 38 39 38 39 39 39 39 39 39 39 39 40 41 42 43 47 46 46 45 44 44 44 44 44

ECMWFFLT1_sfc_temp_096.txt.gz
Temp
61 61 62 63 64 64 63 63 64 64 65 65 65 65 66 66 66 65 64 63 63 63 64 64 64 64 64 65 65 65 65 64 64 62 62 63 61 61 62 62 62 63 63 62 61 59 57 56 58 61 62 63 63 63 64 65 65 65 64 64 66 66 66
63 62 63 63 62 63 62 62 63 63 64 64 64 64 65 65 65 64 64 63 63 63 64 64 64 64 64 64 63 63 63 64 64 64 63 62 62 62 61 61 61 61 61 61 61 61 57 56 57 58 59 62 62 63 63 65 66 65 65 65 66 65 65
61 62 62 60 60 60 60 61 61 61 61 62 63 64 64 64 64 64 63 63 63 63 64 64 64 64 63 63 63 63 64 63 64 64 63 63 63 63 63 62 60 60 60 59 59 59 59 59 56 58 59 59 58 61 63 63 64 65 66 66 65 65 65
60 60 59 59 60 60 59 59 60 60 61 61 62 62 62 63 64 64 63 63 63 63 63 63 63 63 63 63 64 64 63 63 63 64 63 63 63 62 62 61 60 60 59 58 59 59 59 58 57 57 59 60 60 59 62 64 64 66 66 65 64 64 66
59 59 58 58 58 58 59 58 58 58 59 60 61 60 61 62 63 62 63 63 63 63 63 63 63 64 64 64 64 63 63 64 64 64 63 63 63 63 62 62 62 62 61 60 61 60 59 59 59 58 58 60 60 60 62 62 65 65 65 65 66 66 66
57 57 57 57 57 57 57 57 57 57 58 58 59 59 59 60 61 61 61 61 61 61 60 60 61 63 63 63 63 63 63 63 63 63 62 63 63 62 62 63 62 62 61 62 62 61 61 61 60 58 59 60 58 59 61 62 61 63 65 66 66 67 68
55 55 55 54 55 55 56 55 55 56 55 55 57 57 58 59 59 60 61 60 58 58 58 58 58 58 59 60 62 62 63 63 63 63 63 63 62 63 63 62 62 62 62 62 62 61 60 60 59 58 59 59 59 58 59 59 61 60 62 64 66 68 68
54 54 54 54 53 53 54 53 54 54 54 55 55 56 58 57 58 59 59 57 57 56 56 56 56 56 56 57 57 58 60 61 60 62 62 62 62 62 62 62 62 62 62 62 62 62 62 61 60 60 58 56 57 58 58 59 59 60 61 63 65 67 68
55 54 53 53 53 53 52 52 52 52 54 54 55 55 55 56 56 57 58 57 56 55 55 55 55 54 55 54 55 55 55 57 56 57 59 61 62 63 62 63 62 62 63 63 63 62 62 62 62 61 60 58 56 55 57 56 57 58 63 62 63 66 67
53 52 52 52 52 53 52 52 52 52 53 53 53 54 53 54 55 55 56 56 55 55 54 53 53 52 52 53 52 53 54 54 54 54 55 57 59 61 62 62 62 62 62 63 63 63 63 62 62 62 61 60 59 56 55 55 57 57 60 63 61 63 66
52 52 52 52 53 52 52 53 52 52 52 53 53 53 53 52 53 54 54 55 54 53 52 52 51 51 50 49 49 50 51 52 52 53 54 54 55 57 60 62 62 62 63 62 62 63 62 62 62 62 61 61 61 58 57 55 57 59 59 62 63 62 64
52 52 52 52 52 53 53 53 52 52 52 53 53 52 52 52 52 52 53 53 53 52 51 50 50 49 49 47 47 47 48 49 49 50 51 52 53 55 56 57 60 61 62 62 62 62 63 62 62 62 62 61 61 60 59 58 55 59 62 59 61 64 64
52 51 52 52 52 53 55 55 54 52 52 53 54 54 53 53 53 52 52 53 52 51 50 49 49 48 47 47 46 46 48 48 48 48 49 51 52 52 53 54 55 57 60 62 62 62 62 62 62 62 62 61 61 61 60 58 57 58 61 61 61 63 65
50 51 51 52 53 54 55 56 54 52 52 50 52 53 53 53 53 52 52 52 52 50 49 48 49 48 47 46 46 46 47 47 47 48 49 50 51 51 51 51 53 55 57 58 60 62 62 62 62 62 62 61 61 62 60 59 58 58 61 62 61 61 63
50 50 50 51 52 52 53 53 54 52 49 49 50 50 52 52 52 52 51 51 50 50 49 49 48 48 46 46 45 46 46 46 46 47 48 48 49 50 50 50 51 52 55 55 56 58 60 62 62 62 61 61 61 61 62 60 58 58 58 61 60 62 62
49 49 49 49 49 50 50 51 53 50 49 49 50 50 51 51 51 51 50 50 49 49 49 48 48 47 46 45 45 45 46 46 46 46 46 47 48 49 49 50 50 52 52 52 53 54 56 58 61 61 62 62 61 61 62 62 60 58 58 59 62 61 61
49 48 48 48 48 49 49 49 51 50 49 49 49 50 51 51 51 50 50 49 49 49 48 47 46 46 45 45 44 44 45 46 46 46 46 47 48 49 49 49 50 51 51 51 51 52 54 56 57 59 61 62 62 62 62 62 61 59 59 58 61 61 62
48 48 48 48 48 48 48 49 49 49 48 47 48 48 50 51 50 50 48 49 49 48 47 46 45 45 44 45 45 44 45 45 46 47 47 47 49 49 49 49 50 51 51 50 51 51 52 53 54 55 57 59 61 62 62 62 61 61 59 59 60 61 62
48 48 48 47 48 48 48 48 48 48 48 46 47 47 47 48 49 48 48 48 48 47 46 46 45 44 44 44 44 44 45 45 46 47 48 49 49 50 50 50 50 51 50 50 50 51 52 53 54 54 54 55 57 60 61 62 61 61 60 60 60 60 60
47 47 47 47 47 48 47 47 47 47 48 47 46 45 46 46 46 46 46 46 46 46 45 45 44 43 43 43 43 43 44 45 46 46 48 49 50 50 51 51 51 51 51 51 51 51 51 51 52 52 53 53 54 54 56 59 61 60 60 60 60 60 60
47 47 47 47 46 46 47 47 47 47 47 46 46 45 45 45 45 46 45 45 46 46 45 44 44 43 43 43 43 43 43 44 45 47 48 49 50 51 51 51 51 51 51 52 51 50 49 49 49 49 50 51 52 53 54 56 58 59 59 59 59 59 59
46 46 46 46 46 46 46 46 46 46 46 46 46 46 45 45 44 44 45 44 44 45 44 44 44 43 42 42 42 42 43 44 45 46 47 48 49 49 50 50 50 51 52 52 50 49 49 49 48 47 48 49 49 49 51 54 56 58 59 59 59 60 59
45 45 45 45 45 45 45 45 45 45 45 45 45 45 44 45 44 43 43 43 44 44 43 44 44 42 42 42 42 42 43 44 45 46 46 46 47 48 49 49 49 51 49 49 49 47 46 46 47 48 47 47 47 47 47 49 52 55 58 58 58 58 57
44 44 44 44 44 44 44 44 44 44 44 44 44 44 44 43 43 43 43 42 42 43 43 44 42 40 40 41 42 42 42 43 45 45 45 45 45 46 47 48 48 49 49 49 49 47 45 45 44 44 45 46 47 46 45 45 48 52 55 57 59 59 58
43 43 43 43 43 43 43 43 42 42 42 42 43 43 42 42 42 42 42 42 42 42 43 44 40 40 40 40 41 42 42 42 43 44 45 45 45 46 46 46 47 47 48 49 49 48 47 45 44 43 42 42 43 43 43 45 46 48 52 55 57 58 59
42 42 42 42 42 42 42 41 41 41 41 42 42 41 41 41 41 41 41 41 41 42 42 42 40 40 40 39 39 41 42 42 42 43 43 44 45 45 45 45 45 46 47 48 48 47 46 45 44 43 43 43 43 43 41 41 42 46 51 52 55 57 59
41 41 41 41 41 41 40 40 40 41 41 41 40 40 40 40 41 40 41 41 40 41 42 42 40 40 40 39 39 40 42 42 42 43 43 43 44 44 45 44 44 44 45 46 46 45 44 43 43 43 44 45 45 46 44 43 42 42 45 50 53 55 59
40 40 40 40 40 40 40 39 40 40 39 39 39 39 39 39 40 40 40 40 40 40 41 41 40 40 39 39 39 40 41 42 42 42 42 43 43 44 45 44 44 44 44 44 44 44 42 41 41 42 43 44 46 46 46 47 48 50 51 50 51 54 57
39 39 39 39 39 39 39 38 38 39 40 39 39 39 39 39 39 38 39 40 40 40 41 40 40 40 39 39 39 41 41 41 41 41 41 42 43 44 45 44 44 43 43 43 43 40 40 41 41 41 42 45 46 46 46 47 45 46 51 56 56 55 56
39 38 38 39 39 38 38 38 38 39 38 38 38 38 38 38 39 38 39 39 39 40 40 41 40 40 39 39 40 41 41 41 41 40 40 41 43 44 44 45 44 43 42 42 41 39 39 40 41 41 42 44 46 45 45 48 46 44 43 44 46 47 48
38 38 38 38 37 37 37 38 38 39 36 37 38 37 39 38 38 38 39 38 41 39 39 41 40 40 39 39 40 40 40 40 39 39 40 41 42 43 44 45 45 43 41 41 40 38 38 40 41 41 42 43 44 46 47 50 51 52 46 45 45 45 45
37 37 38 37 37 37 37 38 37 37 37 36 37 37 40 37 38 38 39 39 42 39 39 41 41 39 39 39 40 41 40 39 38 38 39 40 42 42 42 43 43 42 41 40 38 38 38 40 40 41 42 41 42 44 46 47 50 53 55 53 52 51 50
38 37 36 36 37 37 38 36 36 36 37 36 37 37 37 37 36 38 38 38 39 39 39 40 42 39 40 39 39 40 40 38 37 37 39 40 39 40 41 41 42 40 38 38 38 38 38 39 40 41 41 40 40 41 45 48 48 49 53 52 53 52 52
37 36 37 37 39 38 36 36 36 36 36 36 36 36 36 37 36 37 37 38 38 39 40 41 41 40 40 39 39 39 39 38 38 38 38 39 39 38 39 39 40 40 38 38 38 38 39 39 39 41 40 39 40 40 43 47 47 47 48 48 47 47 48
39 40 39 37 36 37 36 36 37 35 35 35 35 36 36 36 36 36 37 37 38 38 40 42 41 40 39 39 39 39 39 38 38 38 38 38 38 38 38 39 39 40 38 38 38 38 38 39 39 41 39 38 39 39 44 46 46 46 46 46 46 45 45
39 40 39 37 36 36 36 36 36 36 35 35 35 36 36 35 35 36 36 37 38 38 38 40 40 40 40 39 39 39 38 38 37 39 38 37 37 38 39 39 40 40 38 38 38 38 39 38 40 39 38 38 39 39 43 45 45 45 44 44 44 43 43
36 35 38 37 37 37 36 36 36 36 35 35 35 36 36 35 35 35 35 36 37 38 38 38 39 40 40 39 39 38 38 37 38 38 39 38 39 39 39 39 39 38 38 38 38 38 38 39 38 38 38 38 39 40 42 42 43 43 43 42 42 42 42

ECMWFFLT1_sfc_temp_099.txt.gz
Temp
65 64 65 65 66 67 67 67 67 68 68 69 68 70 71 70 69 68 68 68 69 69 69 69 67 67 67 68 69 69 69 68 67 65 64 66 63 66 69 67 67 68 67 67 67 62 61 59 66 72 71 71 70 70 70 70 70 70 69 69 72 73 71
66 66 66 66 66 67 66 67 67 67 67 67 68 68 69 69 68 67 67 67 67 67 67 67 67 68 69 67 66 66 67 68 69 69 67 65 65 64 64 66 68 67 66 65 65 65 61 60 61 64 67 71 69 70 70 72 72 71 71 70 72 73 72
65 65 66 65 65 66 65 65 66 66 66 65 66 67 67 69 68 68 66 66 67 67 66 66 67 66 66 66 67 68 67 67 68 68 65 65 66 66 65 64 63 64 63 63 64 63 63 62 58 63 66 66 65 69 71 69 70 70 70 70 71 71 71
64 64 64 65 66 66 65 65 65 65 65 64 65 65 65 66 66 66 65 65 65 65 66 66 64 63 64 64 65 66 66 66 68 67 67 67 66 66 65 64 64 63 62 61 63 64 62 61 60 61 64 67 66 65 69 71 71 72 72 70 68 69 69
64 64 63 61 62 62 63 63 64 64 64 64 64 64 64 65 65 64 63 64 63 63 63 65 65 64 63 64 63 64 65 66 67 67 66 65 65 65 65 65 65 65 64 63 64 63 61 61 62 62 62 65 66 69 71 71 72 70 70 70 70 70 71
61 61 61 61 62 61 61 61 62 62 63 62 62 62 62 63 63 61 60 61 62 62 63 63 63 63 63 63 62 60 61 61 61 62 62 63 64 63 64 66 66 66 65 65 64 63 63 64 63 60 64 67 61 65 70 69 69 72 71 71 72 71 72
61 60 60 60 61 62 62 60 60 60 60 59 60 59 61 62 62 61 61 61 62 62 62 61 60 60 61 61 60 59 60 61 61 61 61 61 62 64 64 64 66 67 66 66 65 65 64 63 61 61 62 64 65 63 66 68 70 67 68 68 68 69 68
61 60 60 60 60 60 60 59 59 60 59 60 59 60 61 61 61 61 60 60 60 59 59 58 58 59 59 59 59 57 58 59 59 59 59 59 59 60 60 61 64 66 67 66 65 64 65 63 62 61 60 58 60 62 62 67 69 67 68 72 71 69 69
61 61 61 61 60 60 59 59 58 58 59 59 59 59 59 60 60 60 60 59 59 58 57 57 57 56 56 56 57 56 56 57 56 56 57 58 58 58 59 60 61 62 66 67 67 66 65 65 65 64 62 60 57 57 63 64 66 67 71 69 70 71 70
60 59 59 59 59 60 59 59 58 58 59 58 58 58 58 59 59 59 58 58 58 58 57 57 57 56 55 55 54 53 53 55 55 56 56 56 57 57 57 57 58 60 62 63 65 66 66 65 65 65 64 62 60 57 57 59 62 65 70 71 66 68 70
59 59 59 59 59 59 59 59 59 58 57 57 57 57 57 57 57 57 57 57 57 57 57 57 56 56 55 54 53 53 53 54 54 56 56 55 56 56 57 57 57 58 62 61 61 63 64 65 65 65 65 64 63 59 58 57 59 66 67 71 71 69 71
60 60 60 60 59 58 57 57 57 56 57 57 56 56 56 56 56 56 56 56 56 56 56 56 56 55 56 54 53 53 53 53 53 54 55 55 56 56 56 56 57 58 59 60 61 62 63 63 64 64 64 65 64 63 61 60 57 64 69 67 71 73 71
60 59 59 58 58 58 57 56 56 55 55 57 56 56 55 55 55 55 55 55 55 55 55 55 55 55 55 54 53 52 52 53 53 54 54 56 56 56 56 56 57 58 59 59 59 60 60 61 62 62 63 64 65 65 63 60 58 60 67 68 70 72 73
57 58 58 58 57 56 55 55 55 55 56 54 56 55 54 54 55 54 55 55 55 54 54 53 54 54 54 54 53 52 52 52 53 54 54 55 56 56 55 56 57 58 59 57 57 58 59 60 61 61 62 60 61 64 64 62 59 60 66 69 68 70 72
57 57 56 56 55 56 55 54 55 56 54 55 56 55 55 54 54 54 55 55 54 55 54 54 53 53 53 52 53 53 51 52 52 52 53 54 55 55 54 55 56 57 58 57 57 58 59 58 59 59 60 60 59 60 62 60 62 62 61 68 68 71 70
56 55 54 55 55 55 55 54 55 54 54 55 55 55 54 55 55 55 55 54 54 54 54 53 53 53 52 53 52 53 53 52 51 51 51 52 53 54 54 54 55 55 56 55 56 56 57 57 58 58 58 59 58 59 61 60 58 58 62 65 69 69 70
55 54 54 54 53 53 54 54 55 54 54 54 54 54 55 55 55 54 53 54 54 54 53 53 53 53 52 52 52 52 54 53 52 51 51 52 52 53 53 53 54 54 54 54 54 55 56 56 55 56 56 57 58 58 59 59 57 55 57 60 65 68 70
55 54 54 53 53 54 54 54 54 54 54 53 54 54 54 55 54 54 52 53 53 53 53 53 52 52 52 52 52 52 53 52 52 52 52 53 52 53 53 53 53 54 54 53 53 53 54 52 53 54 54 55 55 56 57 57 57 57 55 56 61 68 70
54 54 54 53 53 53 54 54 54 54 54 53 54 53 53 53 54 53 53 53 53 53 53 52 52 52 52 52 52 52 53 52 52 52 52 53 54 54 53 53 53 54 53 52 52 52 52 51 52 52 52 52 53 54 53 55 56 56 56 56 58 61 66
54 54 53 53 53 54 53 53 54 53 54 53 53 53 53 53 53 53 53 53 53 53 52 51 50 50 51 51 51 52 52 52 52 52 53 54 55 54 54 54 53 53 52 52 51 50 50 50 50 50 50 50 51 51 51 52 54 54 55 56 58 59 60
54 54 54 54 54 53 53 53 53 53 53 53 52 52 52 52 53 53 52 53 53 53 52 51 49 49 50 50 50 51 51 50 50 52 53 54 54 54 54 54 54 54 53 53 51 51 50 49 49 49 50 49 49 48 48 49 50 51 52 54 56 57 59
54 54 54 53 53 53 52 53 53 53 53 52 52 52 52 52 52 52 52 52 53 53 51 49 48 46 46 48 50 50 50 50 50 50 52 53 53 53 54 54 54 55 53 51 49 48 48 48 48 47 48 48 47 46 46 46 47 48 50 52 54 58 59
54 53 53 52 52 52 52 52 52 52 52 52 52 52 52 52 52 52 51 52 52 51 49 48 45 42 42 45 48 50 51 51 50 50 50 51 51 52 52 53 53 52 49 49 48 47 45 45 46 47 47 46 45 44 44 44 44 46 47 48 51 54 55
53 52 52 52 52 53 52 52 52 52 51 51 51 51 51 51 51 51 51 51 51 51 49 47 41 40 40 40 45 49 51 52 51 51 51 50 49 49 50 52 52 51 51 50 50 46 45 44 43 43 43 44 45 44 43 42 43 45 46 47 49 51 53
53 52 52 53 53 53 52 52 51 51 51 50 51 51 50 50 50 51 51 52 51 50 49 43 40 40 40 40 41 48 52 51 51 51 50 49 49 48 48 49 50 50 51 50 49 50 47 45 43 42 42 42 42 42 42 44 44 44 45 45 46 49 52
53 52 52 52 52 53 52 52 51 51 50 50 50 50 50 50 50 51 51 51 51 51 49 42 40 40 40 39 39 44 52 52 51 51 50 49 48 47 47 47 47 48 49 48 49 48 47 46 44 43 43 44 44 44 42 40 41 45 46 44 45 46 49
52 52 52 52 52 53 52 51 51 51 51 50 49 49 49 49 50 50 50 50 50 51 48 43 40 40 40 39 39 43 52 52 51 51 49 48 47 47 47 46 45 46 47 48 47 46 45 44 45 46 48 49 50 49 46 45 43 41 43 45 46 45 49
52 52 53 52 52 52 51 51 51 51 51 50 49 49 48 48 49 50 50 50 50 50 48 41 40 39 39 39 39 44 51 51 51 50 49 48 48 48 47 46 46 45 46 46 46 44 42 42 43 44 46 47 49 50 51 53 54 55 53 51 48 47 48
52 53 53 52 52 51 50 50 50 51 51 50 50 50 50 50 49 49 50 49 48 48 49 41 40 40 39 39 40 50 50 50 49 48 48 48 49 49 49 48 46 45 45 45 44 40 40 42 43 44 44 46 47 49 51 50 48 48 50 51 52 52 52
52 52 52 52 51 50 50 50 50 51 50 50 49 49 49 49 50 49 49 48 47 48 49 44 40 40 39 39 44 50 49 50 49 47 47 48 49 49 49 49 47 45 44 44 41 38 38 40 42 43 43 43 44 47 49 52 48 45 44 44 43 43 44
53 52 52 51 50 50 51 51 50 50 50 49 49 49 50 49 50 50 49 48 47 47 49 46 40 40 39 39 43 48 49 48 47 46 47 48 49 50 50 47 47 46 44 43 39 38 38 40 41 41 41 42 42 44 47 48 48 48 47 46 45 44 42
53 52 51 51 50 50 50 50 51 52 51 51 50 51 50 49 49 49 49 49 46 47 49 47 42 40 39 39 43 49 48 48 45 44 45 47 48 49 49 48 46 45 43 41 38 38 38 40 41 41 41 41 41 43 44 44 43 46 49 50 50 52 49
52 52 52 51 51 50 51 51 51 51 51 52 51 50 50 49 48 49 49 49 49 49 48 49 46 39 40 40 39 47 49 45 43 43 45 46 46 47 48 48 47 42 39 38 38 38 38 38 40 42 41 40 39 38 41 42 44 46 47 47 48 48 48
51 51 52 51 51 51 51 51 51 51 51 51 51 50 49 49 49 49 49 49 49 49 48 48 47 40 40 39 39 41 48 45 44 45 46 46 46 46 46 47 48 43 38 38 38 38 38 38 38 41 41 39 39 39 40 42 44 45 46 47 46 46 47
52 51 52 52 52 51 51 51 51 51 52 51 50 49 49 49 49 49 50 49 49 49 49 45 47 43 40 39 39 39 44 45 43 46 46 47 46 46 47 47 47 43 38 38 38 38 38 38 38 41 39 37 38 38 40 43 44 45 45 45 45 45 44
52 52 52 52 52 52 52 52 51 51 51 51 50 50 49 49 49 49 49 50 50 49 50 50 43 45 41 39 39 39 38 41 39 46 47 46 46 47 48 47 47 41 38 38 38 38 38 38 39 38 37 37 38 39 40 42 43 44 43 43 43 43 43
52 52 53 53 53 53 52 52 52 52 51 51 51 50 50 49 49 48 48 48 49 50 50 51 46 41 43 40 39 39 38 38 38 43 47 48 48 47 47 46 44 39 39 39 38 38 38 39 38 37 37 37 38 39 40 41 41 41 41 41 42 42 42

ECMWFFLT1_sfc_temp_102.txt.gz
Temp
71 69 70 71 72 72 71 71 72 71 72 73 73 74 75 75 75 74 74 73 72 73 73 71 71 73 73 74 74 75 75 75 74 72 71 73 70 71 73 70 68 69 70 68 65 64 64 62 69 76 75 73 74 75 76 77 77 77 76 76 78 79 76
71 71 72 72 70 71 70 70 70 71 71 71 73 72 73 74 73 71 72 72 72 72 73 73 73 73 71 70 70 72 72 72 73 73 72 72 72 71 72 72 71 70 70 69 68 68 64 64 66 69 69 73 71 73 73 75 78 79 78 77 79 79 77
71 71 71 69 69 70 69 69 69 69 70 70 71 72 72 72 70 69 71 71 71 72 73 73 73 72 71 70 71 71 70 69 71 71 70 72 72 72 71 71 70 70 69 69 67 67 68 65 62 64 66 68 64 69 77 75 76 78 79 77 75 76 78
69 69 68 67 68 69 68 68 69 69 69 69 70 69 69 69 69 71 70 70 71 71 71 71 71 71 70 70 70 70 69 66 67 69 70 70 70 71 71 70 70 70 68 67 68 69 67 65 63 64 68 70 67 65 72 79 78 80 81 79 77 77 77
68 67 66 65 66 66 67 67 69 69 69 69 68 68 66 67 66 68 69 69 69 68 67 69 68 68 69 70 70 69 68 67 67 67 68 69 68 69 70 70 70 71 71 70 70 69 67 66 65 64 66 69 70 73 77 78 81 81 80 81 82 80 79
67 67 66 66 67 67 67 67 67 67 67 66 65 65 65 65 66 66 67 67 67 67 67 66 66 66 66 68 69 67 66 65 65 65 67 66 66 67 67 68 68 69 69 69 69 70 70 70 69 66 67 70 66 70 76 76 76 81 82 81 82 82 81
66 66 66 67 67 67 67 66 66 65 64 63 63 62 63 64 64 64 64 65 66 66 67 68 67 66 67 67 67 66 65 66 66 65 66 66 67 66 65 64 65 66 68 71 69 66 66 68 66 64 63 65 65 68 72 75 79 77 80 83 83 83 81
66 66 66 66 65 65 65 64 64 65 63 63 62 62 63 63 63 62 63 63 65 64 65 64 64 65 64 66 66 65 65 65 64 64 65 64 64 64 63 64 64 64 66 68 68 67 68 66 66 68 66 63 64 67 69 75 77 77 78 79 77 81 80
65 65 64 64 64 64 64 64 62 62 62 62 61 61 61 62 61 62 64 64 64 64 64 64 64 64 63 63 63 64 63 63 62 63 63 63 62 62 63 64 64 65 67 67 67 68 69 68 66 67 66 63 61 61 66 67 71 74 80 79 81 84 82
62 62 61 61 63 64 64 63 62 62 61 61 60 61 61 62 63 64 64 63 63 63 63 63 63 63 63 63 62 62 61 62 62 63 63 62 62 63 63 62 64 66 67 66 66 67 67 68 69 69 69 65 63 61 60 61 66 69 76 80 77 82 83
62 62 62 61 63 63 63 63 63 61 61 61 61 61 62 62 63 63 63 63 63 63 63 63 63 63 63 63 62 62 62 61 62 64 63 63 62 63 63 63 64 65 66 66 66 66 65 65 66 67 67 68 66 59 60 58 62 70 71 76 78 79 83
62 62 62 62 62 62 62 61 60 61 61 61 61 61 61 63 63 63 63 63 62 63 63 62 62 62 62 62 62 62 62 62 62 63 63 62 62 62 62 62 64 65 65 64 65 66 66 66 65 66 67 67 67 65 63 62 57 66 73 70 75 81 81
63 62 62 61 61 62 62 62 61 60 60 61 61 62 63 62 63 63 63 63 62 62 63 62 62 62 62 61 61 61 62 62 61 62 62 62 62 61 61 61 62 62 63 63 63 64 64 65 63 63 65 65 65 66 65 63 60 61 69 69 70 74 80
60 62 62 62 62 62 62 62 61 61 62 62 63 62 62 63 63 63 63 63 63 62 62 61 61 61 61 61 61 61 61 62 61 61 62 61 62 61 60 60 61 62 62 60 61 62 63 63 63 63 64 63 62 63 62 60 58 60 65 71 71 73 75
61 62 62 62 62 64 64 63 63 63 61 61 62 63 63 62 63 63 62 63 62 62 62 61 61 61 60 59 60 60 60 60 60 61 60 60 61 60 59 59 60 60 60 59 60 61 63 62 62 61 61 61 61 60 61 59 58 57 58 64 67 71 71
61 61 61 62 62 62 61 61 62 61 62 62 63 62 62 62 62 63 62 61 62 61 61 61 60 60 59 59 60 60 60 60 59 59 59 59 61 61 60 59 60 60 59 58 59 59 60 60 60 59 59 61 59 59 60 59 57 56 57 59 65 67 69
60 60 61 61 60 60 61 61 62 61 61 62 62 62 62 63 62 61 61 61 61 61 60 60 60 60 60 59 59 59 60 60 60 60 59 60 61 61 61 59 59 59 58 57 57 57 58 57 57 57 57 58 58 58 58 58 58 56 56 56 61 65 68
59 60 60 60 59 60 60 61 61 62 61 61 62 62 62 63 62 61 60 61 61 60 59 59 58 59 59 59 59 59 60 60 59 60 60 61 60 61 60 60 60 59 58 56 56 56 56 55 56 56 55 55 56 57 57 57 56 56 55 55 57 62 64
59 60 59 59 59 60 60 61 61 61 62 61 61 61 61 61 61 61 61 61 60 60 59 58 57 57 58 58 59 59 59 59 59 60 61 61 62 61 59 60 60 59 57 55 54 54 54 53 54 54 53 53 54 54 54 54 56 56 55 55 56 57 62
59 59 59 59 60 60 60 60 61 61 61 61 61 60 61 60 60 60 60 60 59 58 57 56 55 55 56 57 57 59 58 59 59 59 60 61 61 61 60 60 59 58 56 55 52 52 51 51 51 51 51 51 52 51 51 51 53 53 54 55 57 59 60
60 60 60 60 60 60 60 60 60 60 60 59 59 60 60 59 60 60 60 60 58 58 56 54 53 52 54 54 56 58 59 58 58 59 60 61 60 59 59 59 58 57 55 54 52 52 52 50 50 50 51 50 50 49 49 50 50 51 52 54 55 57 60
61 60 60 60 59 59 59 59 60 60 60 59 58 60 60 60 60 60 60 59 59 57 54 51 50 48 49 51 54 57 58 58 58 59 58 59 59 58 58 57 57 56 54 53 50 49 49 48 49 48 49 49 48 48 48 48 49 49 50 51 52 56 58
60 60 60 59 59 59 59 59 59 59 59 59 59 59 59 59 60 59 59 59 58 55 53 50 45 42 42 47 52 57 58 59 58 59 57 57 56 56 56 56 56 54 51 51 50 47 45 45 46 48 48 48 48 47 47 46 47 48 49 49 50 52 53
61 60 59 59 59 59 59 58 58 58 58 58 57 58 58 58 58 58 58 58 56 55 52 48 41 40 40 40 47 54 57 58 58 58 57 56 54 54 55 56 56 54 53 52 52 47 45 44 43 43 43 44 45 46 45 45 46 48 48 48 50 50 51
60 59 59 59 59 59 59 59 58 58 57 56 57 57 56 57 57 58 58 58 56 54 52 43 40 40 40 39 42 50 58 57 57 58 57 56 55 55 54 54 54 54 54 53 52 51 48 45 43 42 42 42 43 43 43 46 47 47 47 47 46 47 49
57 57 57 58 58 59 59 58 58 57 56 57 57 56 56 56 56 57 57 57 55 54 52 42 40 40 40 39 40 44 59 57 57 57 57 55 54 54 53 53 52 52 53 50 51 50 48 47 45 43 44 45 47 47 44 42 42 47 49 47 46 46 48
57 57 57 58 58 58 58 57 57 57 57 57 56 55 55 55 56 56 56 56 56 54 51 43 40 39 40 38 39 41 59 57 57 57 56 55 54 53 53 52 51 50 51 51 51 48 46 45 45 47 50 52 53 51 47 46 45 44 45 48 47 47 50
58 58 59 58 58 57 57 57 57 58 57 56 56 56 55 55 54 55 55 56 56 54 49 40 40 39 40 39 38 44 58 57 57 56 56 56 55 54 54 51 50 49 50 50 49 44 44 44 44 46 48 49 51 51 52 53 53 53 52 52 51 50 50
59 59 58 58 57 57 56 56 56 57 57 57 57 57 56 56 55 55 55 55 55 54 51 40 40 40 39 39 39 56 57 57 56 57 57 56 57 56 55 52 50 49 49 49 45 40 41 43 44 45 45 46 48 50 52 51 47 47 49 50 50 50 51
59 59 58 57 57 56 56 56 57 59 57 57 56 56 56 56 56 55 54 54 55 55 53 44 40 40 39 39 44 57 57 57 56 56 57 56 56 56 55 53 52 51 49 48 43 38 38 40 44 44 44 44 45 47 49 51 47 45 44 43 43 42 42
59 58 58 57 56 56 57 58 57 58 57 57 56 57 58 57 56 56 54 53 54 54 54 46 40 40 39 39 43 54 56 55 55 56 57 57 57 56 55 50 50 51 49 48 40 38 38 41 43 43 43 42 42 44 46 48 47 48 46 45 45 44 43
59 58 57 57 57 57 57 57 58 59 59 59 58 59 59 57 56 56 55 54 50 52 54 49 42 40 39 40 44 54 55 54 54 55 57 56 57 56 55 54 48 47 47 44 38 39 38 41 42 41 42 41 40 41 42 43 43 45 47 49 51 51 50
59 58 58 57 58 58 58 58 58 58 59 60 59 59 58 58 56 56 56 56 54 53 53 53 48 39 40 40 39 49 55 51 52 54 56 55 54 55 55 56 53 44 40 39 39 38 39 38 41 42 41 39 37 37 40 42 44 44 44 45 46 47 48
58 58 59 58 58 58 59 58 58 58 58 59 58 57 57 57 57 56 56 56 56 54 53 53 50 40 41 40 40 42 53 51 50 54 56 55 55 54 54 55 55 47 41 39 39 39 39 39 39 42 41 39 39 39 40 42 43 42 42 42 43 44 46
59 58 59 59 58 58 59 59 59 59 59 58 57 56 57 58 57 57 57 56 56 56 52 48 53 45 41 41 40 40 48 50 48 53 55 55 55 54 54 54 54 47 41 39 39 39 39 39 39 43 41 38 38 38 41 42 42 42 42 41 41 41 42
58 58 58 59 59 58 59 59 59 59 58 58 57 57 57 57 57 56 57 57 57 57 56 54 44 50 43 40 39 41 39 45 42 51 54 54 54 54 55 53 52 45 40 39 39 39 40 39 42 42 38 38 38 38 41 42 41 41 40 40 40 40 40
59 59 59 60 59 58 58 59 59 59 59 59 58 57 58 57 57 56 56 56 57 58 57 57 48 43 48 42 40 40 40 40 40 49 52 55 54 55 53 53 50 41 40 40 40 40 41 41 41 38 39 38 39 41 42 42 40 40 40 39 39 38 38

ECMWFFLT1_sfc_temp_105.txt.gz
Temp
72 71 73 74 75 75 74 73 73 72 74 75 75 76 76 74 74 73 74 73 74 75 75 74 72 72 73 74 74 73 73 73 72 69 69 73 72 73 75 74 74 74 74 72 70 66 65 64 70 77 78 78 77 77 76 75 74 73 72 73 72 77 77
74 73 74 74 73 73 71 72 71 72 72 73 74 74 73 73 73 73 73 73 73 72 73 72 71 71 71 71 71 70 70 70 70 70 69 69 70 70 71 71 72 73 74 74 73 73 68 65 66 70 71 76 76 77 75 76 76 74 73 73 74 71 70
72 73 72 71 70 70 69 70 70 70 71 71 71 72 71 71 71 72 72 72 70 70 69 71 71 71 70 70 70 70 70 69 71 69 68 69 71 71 72 71 69 69 70 71 71 71 71 70 65 67 70 70 69 74 76 74 74 75 74 73 72 71 72
69 69 69 68 69 70 69 69 70 70 71 71 71 70 69 70 70 71 70 70 71 70 71 71 70 70 70 70 70 70 69 68 69 69 69 70 69 69 70 70 69 68 67 66 67 68 66 65 64 66 69 72 72 71 75 79 78 78 76 73 72 72 72
69 68 67 67 68 68 69 69 70 70 70 70 68 68 67 68 68 67 68 68 68 68 68 70 70 69 69 70 70 69 68 68 69 68 68 68 67 68 68 68 67 68 69 68 69 69 67 66 65 64 66 70 71 75 77 77 81 80 79 76 75 75 74
68 68 68 68 69 69 68 69 70 69 68 66 65 65 64 65 65 65 65 66 67 68 68 68 69 69 68 70 70 68 68 68 67 66 67 66 65 65 65 67 68 69 68 69 69 69 69 69 67 65 68 70 65 68 74 77 77 81 82 81 80 77 76
68 68 68 68 68 68 68 67 67 67 65 64 63 62 64 65 65 65 66 67 68 69 69 69 68 68 68 69 69 67 67 67 67 66 67 65 65 65 65 65 66 66 67 69 69 68 67 66 65 64 63 65 67 68 72 74 78 78 81 83 83 83 77
68 67 66 67 66 66 65 65 65 65 64 64 63 63 63 64 65 67 67 67 68 67 67 67 67 68 67 68 68 66 66 66 66 67 67 66 65 65 64 65 65 67 68 69 68 66 67 65 64 64 62 59 62 66 67 72 74 75 77 82 85 84 83
67 66 65 66 66 66 64 64 63 63 63 63 63 63 64 66 67 67 68 67 67 67 67 67 66 66 66 66 66 66 65 66 65 66 67 66 65 64 65 65 65 66 67 68 67 67 68 67 67 66 65 63 60 59 64 64 68 71 77 76 80 84 83
64 63 63 64 65 65 64 63 63 63 63 63 63 65 65 67 67 67 66 66 66 66 66 66 66 66 66 66 65 65 64 65 65 66 66 65 65 65 65 64 64 65 66 66 66 66 66 67 67 66 66 63 62 59 58 59 63 65 71 76 72 76 82
63 63 64 65 65 64 63 63 64 63 63 65 65 65 67 67 66 66 66 66 66 66 65 66 66 66 66 65 65 66 65 65 65 65 65 65 64 64 64 64 64 63 64 64 63 64 64 65 65 65 64 65 64 60 59 56 59 65 67 72 75 75 78
63 63 64 65 65 63 63 63 63 63 64 65 66 66 66 66 66 66 66 66 66 66 65 65 65 65 66 64 65 65 65 65 65 64 64 64 64 64 63 63 63 63 64 62 62 63 63 63 64 64 64 64 63 62 59 58 54 62 68 65 70 74 74
65 65 65 64 64 65 64 63 64 65 65 66 65 66 66 66 66 66 66 66 65 65 65 64 65 65 64 64 64 63 64 64 64 63 63 64 64 64 63 63 64 64 63 63 62 62 62 63 63 62 62 62 62 62 61 58 55 56 64 65 67 69 72
64 65 65 65 64 64 64 65 66 65 66 65 66 65 65 66 66 66 66 65 66 65 64 63 64 64 64 63 63 63 64 64 63 63 63 63 65 64 64 64 64 64 63 61 62 62 62 62 61 61 61 61 60 60 59 56 54 55 60 64 64 65 68
65 65 64 64 64 66 66 65 64 65 64 65 66 66 66 65 66 65 65 65 65 65 64 64 63 64 63 62 62 63 62 63 62 63 62 63 63 63 63 63 63 63 63 61 61 61 61 60 60 59 60 59 58 58 59 56 54 53 53 59 61 64 64
63 63 64 64 64 64 64 65 66 65 65 64 65 65 65 65 65 66 65 64 64 64 63 63 62 62 62 62 62 62 62 62 61 61 61 62 63 63 62 62 62 62 62 60 58 58 58 57 57 57 56 57 56 56 57 57 54 52 52 54 58 60 62
64 64 62 63 63 64 64 64 65 64 65 65 65 64 65 66 65 65 64 64 63 62 62 61 61 62 62 61 62 62 62 62 62 62 62 62 62 62 62 61 61 60 59 57 56 55 56 56 55 54 54 55 55 54 55 55 55 52 52 50 55 58 61
63 62 62 62 62 63 64 64 65 65 64 64 65 65 65 66 65 64 62 63 62 61 60 60 60 60 60 61 61 62 62 62 61 62 61 62 61 61 61 60 60 59 57 54 54 54 54 53 54 54 53 54 54 54 54 54 53 53 51 50 52 56 59
62 62 62 62 62 63 64 64 64 64 65 64 64 64 63 64 64 64 63 63 62 61 60 59 58 57 59 59 60 62 62 62 62 62 62 62 62 61 60 59 59 58 56 53 53 53 53 52 53 52 52 52 53 53 53 53 53 53 52 52 52 53 57
62 62 62 62 63 63 63 63 64 64 64 64 64 63 63 63 63 63 62 61 60 59 58 56 55 54 56 57 59 62 61 61 61 62 62 62 62 61 61 60 59 57 55 54 53 52 51 51 51 50 51 50 51 51 50 51 52 52 51 51 53 54 55
63 63 63 63 63 63 63 63 63 63 63 63 63 63 63 63 63 63 62 61 59 58 56 55 53 52 53 55 57 61 61 61 61 61 60 61 61 61 61 60 59 58 56 55 53 53 52 50 50 49 50 50 49 48 48 49 50 50 50 50 50 51 54
63 63 63 63 62 62 62 62 63 63 62 62 62 63 64 64 63 62 62 60 59 57 54 52 49 48 49 52 54 59 61 61 60 60 60 60 60 60 60 60 59 57 55 53 51 50 49 48 49 48 48 48 48 47 47 47 48 48 48 48 49 52 52
63 63 63 62 62 62 62 62 62 62 62 62 62 62 62 63 63 62 60 60 58 55 53 51 45 42 42 47 52 55 59 60 60 60 59 58 59 59 59 59 58 55 53 52 50 48 45 46 46 47 47 47 46 45 45 45 45 46 46 46 48 49 48
63 63 62 62 62 62 61 61 60 59 59 59 59 60 61 61 61 61 60 58 57 55 53 48 41 40 40 40 47 53 57 60 60 59 59 58 57 58 58 58 57 55 55 53 53 48 46 45 44 44 44 44 45 46 45 44 45 46 46 46 47 47 47
63 62 62 61 60 60 59 58 58 58 58 58 59 60 59 60 60 60 59 59 56 54 53 43 40 40 40 40 42 48 57 60 59 59 59 58 58 57 56 56 56 55 55 54 53 52 49 46 44 44 43 43 43 43 43 45 46 46 46 45 45 46 47
61 60 59 58 57 57 56 57 57 58 58 58 59 58 58 58 59 60 59 58 55 54 52 42 40 40 41 40 40 44 59 59 59 59 59 59 58 57 56 55 54 55 55 52 52 50 49 49 46 45 45 46 47 47 44 43 43 48 49 47 46 46 47
60 59 58 58 59 59 59 58 59 59 59 59 58 57 57 57 58 58 59 58 56 53 51 43 40 40 41 39 40 41 60 59 59 59 59 59 59 57 56 54 53 53 54 53 51 48 48 47 47 48 49 50 50 50 47 46 46 45 47 48 46 44 46
61 62 61 61 61 60 60 59 60 60 60 59 59 58 58 57 57 58 59 59 56 53 49 41 41 40 40 40 40 44 60 59 59 59 59 60 60 58 57 55 55 54 53 53 50 46 46 46 46 47 48 48 49 50 50 52 52 51 49 48 47 46 47
62 62 62 61 60 60 59 59 59 60 60 60 60 59 59 58 57 57 58 59 56 53 50 40 40 41 41 40 41 57 59 59 59 59 59 59 60 60 59 56 55 53 53 52 47 41 42 45 47 47 46 47 48 49 50 50 46 45 47 47 47 47 47
61 62 62 61 60 59 59 60 60 61 60 60 59 59 58 57 57 57 56 57 56 53 51 44 40 41 41 40 45 58 58 59 59 59 59 59 60 61 57 57 55 53 52 52 46 39 39 42 47 46 45 46 46 47 48 50 46 44 43 42 42 42 42
62 61 61 60 60 59 60 61 61 62 60 59 59 59 59 58 58 57 56 55 56 54 52 46 41 41 41 40 45 55 58 57 57 58 59 59 60 60 54 49 53 54 52 52 43 40 39 43 47 46 45 44 44 44 46 47 47 47 45 44 44 43 43
62 61 61 60 60 60 60 60 62 62 61 61 60 61 61 59 58 58 57 55 53 55 54 50 42 41 41 41 46 55 56 56 55 55 58 58 60 59 59 55 49 49 50 48 41 41 39 42 46 47 46 45 43 42 44 44 44 45 46 46 47 47 46
62 61 61 60 61 61 61 61 61 62 62 63 62 62 61 59 58 58 58 58 56 56 55 54 49 41 41 42 41 50 56 53 53 53 56 58 58 59 57 57 54 46 43 43 42 40 40 39 44 49 49 45 42 40 44 44 45 45 44 44 45 45 44
61 61 61 60 61 61 62 61 61 61 61 61 61 60 60 60 59 58 59 59 58 56 55 56 51 41 42 41 40 43 54 52 52 52 54 57 57 57 57 58 56 49 44 42 42 40 40 40 39 49 50 45 43 42 42 45 45 44 44 44 43 43 43
61 61 62 62 60 60 61 62 62 62 62 61 60 59 60 60 60 59 59 59 59 57 53 50 56 45 42 41 41 39 50 52 51 52 53 56 56 56 56 56 56 50 43 42 41 41 40 40 39 51 48 40 40 40 44 47 47 45 44 44 42 42 41
60 61 61 62 61 60 61 61 61 62 61 61 60 59 59 60 59 59 59 60 60 60 58 54 46 52 45 42 41 41 39 45 43 51 52 53 54 55 57 56 55 48 42 41 41 41 42 38 44 49 40 41 41 40 45 49 46 46 45 43 42 40 40
61 61 62 62 62 61 61 62 62 62 62 62 61 60 61 60 60 59 59 59 59 60 60 59 48 45 50 44 41 40 40 40 40 51 52 54 55 55 55 55 53 43 41 40 42 43 41 43 49 41 43 42 43 46 51 50 48 46 44 42 40 40 40

ECMWFFLT1_sfc_temp_108.txt.gz
Temp
67 69 71 71 72 71 70 70 70 70 71 71 70 70 70 70 70 70 69 68 68 68 69 67 66 67 67 68 68 68 67 67 66 65 64 66 64 65 67 67 67 68 68 67 66 62 59 57 61 68 70 71 72 70 70 70 71 71 70 69 69 68 67
71 70 71 72 70 70 69 69 69 70 69 69 69 69 69 69 69 68 68 68 67 67 68 67 66 67 66 66 66 66 65 65 65 66 65 65 65 64 65 65 65 65 65 66 66 66 61 59 59 61 63 68 69 70 70 72 72 72 71 71 71 69 68
70 70 70 69 68 68 68 68 68 68 68 67 67 67 67 68 67 67 67 66 66 66 66 66 66 65 65 65 65 65 65 64 65 65 64 65 65 65 65 64 62 62 62 62 63 63 63 63 58 59 62 62 62 66 69 70 72 72 73 72 70 70 70
69 69 67 67 67 67 67 68 67 67 66 65 65 65 65 66 65 66 65 66 66 66 66 65 65 65 64 65 66 65 65 64 63 63 64 64 63 63 62 62 61 61 60 59 60 62 61 60 59 60 62 64 63 62 67 70 71 74 75 72 71 70 70
68 67 66 66 67 67 68 67 67 66 64 64 64 63 63 64 64 65 65 65 65 64 64 65 65 64 65 66 65 63 63 63 63 62 63 61 62 61 61 61 61 62 62 61 62 62 61 60 59 59 60 62 62 63 66 68 72 72 74 76 73 72 71
68 68 67 67 67 66 66 66 65 63 63 62 62 61 62 63 64 64 64 63 63 64 64 64 64 64 64 64 64 63 62 61 62 62 61 61 61 60 60 62 62 62 62 63 63 62 62 62 60 57 59 61 58 60 64 66 67 72 74 75 77 74 73
66 66 66 66 66 65 65 64 64 63 61 60 60 61 63 64 64 64 64 63 64 64 64 63 64 64 64 63 63 62 62 61 62 62 62 62 61 62 62 60 60 62 63 63 63 62 60 59 58 57 57 58 59 58 62 64 67 66 69 73 75 77 72
65 65 64 64 63 63 63 62 62 62 61 60 61 62 64 64 64 63 63 62 63 62 63 62 63 63 63 63 63 61 61 61 61 62 61 61 61 60 60 60 60 61 62 62 62 60 61 60 59 58 57 53 54 57 57 60 62 64 65 69 72 73 74
65 65 64 63 63 63 62 62 61 61 61 62 63 63 63 63 63 63 63 62 63 62 62 63 62 62 62 61 61 61 60 63 61 61 60 60 60 60 60 60 60 60 61 60 60 60 61 60 60 60 58 56 52 49 54 54 57 59 65 63 67 71 71
63 63 62 62 62 62 62 61 61 61 62 62 63 64 63 63 63 62 62 62 62 62 62 62 62 62 62 61 60 60 59 61 61 60 60 60 59 59 59 59 58 59 59 59 59 59 59 59 59 60 60 57 55 50 49 50 53 55 60 63 60 65 68
63 63 63 62 62 62 62 62 62 62 62 63 64 63 63 62 62 63 62 62 61 61 61 61 62 61 61 60 60 60 60 60 60 60 60 60 59 59 59 59 59 59 60 59 59 59 59 58 58 58 58 58 58 53 51 48 50 56 56 60 61 60 64
63 63 63 63 62 62 61 61 62 62 63 63 63 62 62 62 62 62 61 61 61 61 61 60 61 60 60 59 59 59 60 60 59 58 59 59 60 59 59 58 59 58 58 58 59 59 59 58 57 57 57 57 56 55 53 51 47 53 57 54 58 61 61
64 63 63 62 62 62 63 63 63 62 61 63 62 63 63 62 62 61 62 61 61 61 60 60 60 60 59 59 59 58 59 60 59 58 59 60 60 59 58 58 58 58 58 57 57 56 56 57 56 55 55 54 55 55 54 51 48 47 55 55 56 58 60
62 63 63 63 63 63 63 63 62 62 63 62 62 62 62 62 62 61 61 61 61 60 59 58 59 59 58 59 59 59 59 60 59 58 59 58 59 59 58 58 58 57 57 55 55 55 55 55 55 54 54 54 53 53 52 50 47 47 51 56 55 55 57
63 63 63 63 62 62 62 62 62 62 61 62 62 62 63 62 62 61 60 60 59 59 59 59 58 58 58 58 58 59 58 58 58 58 57 57 57 58 57 57 56 55 55 54 54 54 54 54 53 53 53 52 52 51 53 50 48 47 46 51 52 54 54
62 62 62 61 61 62 62 62 63 61 61 61 62 62 61 61 61 61 60 59 58 58 57 57 56 57 57 57 58 58 58 57 57 57 57 57 57 57 56 55 55 54 54 53 52 52 53 52 52 52 51 51 50 51 52 51 48 46 46 47 51 51 53
61 61 60 61 60 61 61 61 62 62 62 61 61 61 62 62 61 60 59 58 57 56 55 55 55 56 57 57 58 58 58 57 58 57 57 57 56 56 55 54 54 54 53 52 51 51 51 51 51 50 50 50 50 49 50 50 49 47 47 45 49 50 52
60 60 60 60 60 61 61 61 61 62 61 61 62 61 61 61 60 59 57 57 56 55 54 53 52 53 55 56 57 58 58 58 57 57 57 56 58 56 55 54 54 54 53 51 50 50 51 50 50 49 48 49 49 49 49 48 48 48 46 45 47 50 52
60 60 60 60 60 61 61 61 61 61 62 61 60 60 60 60 60 58 57 56 55 54 53 51 50 51 52 54 54 57 57 57 57 57 57 57 57 56 55 55 54 53 52 50 49 49 50 49 49 48 48 48 48 48 47 47 47 47 47 46 46 47 50
60 59 59 60 60 61 61 61 61 61 62 61 60 60 60 59 58 58 57 55 54 52 51 49 48 48 50 52 52 54 57 56 57 56 56 57 57 56 56 55 54 53 52 51 50 49 48 47 47 46 47 46 47 46 45 46 46 46 46 45 46 47 48
60 60 60 60 60 60 60 60 60 60 61 60 60 60 60 59 58 58 56 55 53 52 50 48 46 46 48 49 51 52 56 56 56 56 55 56 56 56 55 55 54 53 53 51 50 48 47 46 46 45 46 46 46 45 44 45 45 45 44 45 45 46 48
60 60 60 60 59 59 60 59 60 60 59 59 60 61 60 59 58 57 56 55 53 51 49 46 45 43 44 46 48 51 52 55 55 55 55 55 55 55 55 54 54 54 54 54 50 48 48 47 45 44 45 45 45 44 44 44 44 44 45 45 45 47 46
60 60 60 59 59 59 59 59 59 58 58 59 59 59 59 58 57 56 54 54 52 50 47 46 44 42 43 43 46 49 50 54 55 54 54 53 54 54 54 53 54 55 53 52 49 47 45 45 46 46 45 45 44 44 44 43 44 44 44 43 44 44 44
60 59 59 59 58 58 58 57 57 57 57 57 57 58 58 58 56 55 54 52 51 49 47 45 42 40 41 41 44 47 49 54 55 54 54 53 52 53 52 53 52 54 53 52 49 47 45 45 44 44 44 45 45 45 44 43 44 45 44 43 44 44 43
60 59 59 58 58 57 57 56 56 56 56 56 56 57 56 57 56 55 53 52 50 49 47 43 41 41 41 41 42 44 49 54 55 54 54 53 53 52 51 52 52 52 52 51 50 49 47 46 44 44 44 44 44 44 44 44 44 44 44 42 42 43 43
58 57 57 56 56 57 57 56 56 55 55 56 56 55 56 56 56 55 53 51 49 48 47 43 41 41 42 41 41 43 51 55 54 54 54 54 53 52 51 51 51 51 52 52 51 48 47 46 46 46 46 47 47 47 43 43 43 46 46 44 42 42 42
57 56 57 57 57 57 57 56 56 56 56 56 54 54 55 55 55 55 53 51 49 48 47 43 41 42 42 41 41 42 52 55 54 55 54 54 53 52 51 51 49 49 49 50 49 47 45 44 45 47 48 48 48 48 46 45 45 44 45 45 44 42 44
58 58 58 58 58 57 57 56 57 56 56 56 55 54 54 53 54 55 53 51 49 48 47 42 42 41 42 41 42 45 55 56 55 54 54 54 53 52 52 51 49 48 49 49 49 45 43 43 43 46 48 48 48 48 48 48 47 47 46 45 45 44 45
58 58 58 58 57 57 56 56 56 56 56 55 55 55 54 54 53 54 54 51 49 48 47 41 42 42 42 41 43 52 54 54 54 54 53 54 54 52 52 50 48 49 49 49 49 43 42 42 43 45 46 47 48 48 48 49 46 45 46 46 46 46 46
58 58 58 57 57 56 56 56 56 57 55 55 54 54 53 53 53 53 53 52 49 48 47 43 41 42 42 41 44 51 53 53 53 53 53 54 53 52 51 51 50 50 49 49 47 41 41 42 44 45 45 46 47 46 47 49 47 45 44 44 43 43 42
59 58 58 57 56 56 56 56 56 57 55 55 54 54 54 53 53 52 52 51 52 50 47 44 42 42 42 41 44 49 52 51 51 51 51 53 53 49 50 53 53 50 49 49 45 41 41 42 43 44 44 45 45 45 46 47 47 48 46 46 45 44 44
59 58 57 57 57 56 56 56 56 57 56 56 55 56 56 54 53 53 52 52 54 52 49 47 42 41 41 41 44 48 51 49 48 48 49 51 53 53 52 51 50 49 49 47 42 42 41 42 42 43 44 45 44 44 45 46 45 45 47 47 47 47 46
58 58 57 57 57 57 57 57 57 57 57 58 57 56 56 55 54 53 53 53 53 52 51 48 47 42 41 42 42 46 50 48 46 47 48 50 51 52 51 52 51 46 44 43 42 42 41 41 42 43 44 45 43 44 46 45 46 48 47 46 45 46 45
58 58 58 57 57 57 57 56 56 56 56 56 56 55 55 54 54 53 54 54 53 52 52 50 47 42 43 42 41 42 48 48 47 47 48 49 50 50 50 51 51 48 43 43 42 42 41 41 41 42 45 44 44 44 43 46 49 48 47 45 44 44 44
58 58 58 58 57 57 58 58 57 57 56 56 55 55 55 55 54 54 54 54 53 51 51 50 50 45 42 43 43 39 45 48 47 46 47 48 49 49 50 50 50 48 44 43 42 41 41 41 40 43 45 42 41 41 43 49 49 48 47 45 43 42 42
58 59 58 58 57 56 57 57 57 57 56 56 55 55 55 55 54 54 54 54 53 52 50 50 47 49 44 42 42 42 41 43 41 46 47 47 48 49 50 50 50 48 43 41 41 41 41 41 42 46 43 40 41 41 44 50 48 48 46 45 43 41 41
59 58 58 58 58 57 57 57 57 57 57 56 55 55 55 55 54 54 53 53 54 54 53 51 46 46 48 43 42 43 41 40 41 45 47 48 49 49 49 49 47 42 42 41 40 41 43 43 45 45 44 42 41 42 49 49 48 47 45 43 41 40 41

ECMWFFLT1_sfc_temp_111.txt.gz
Temp
63 64 67 68 68 67 66 65 64 64 64 64 63 64 64 64 64 62 62 62 62 63 63 60 60 60 61 62 62 61 61 61 59 57 57 59 58 58 61 60 60 61 61 60 60 57 56 54 56 61 63 64 64 64 65 67 67 67 67 67 68 67 66
66 66 67 67 67 67 65 64 63 62 62 62 62 62 62 62 62 61 61 61 61 61 62 61 60 60 60 59 59 59 59 59 59 59 58 57 58 58 59 57 57 57 57 58 58 58 55 53 53 55 57 61 62 61 63 65 66 67 68 69 69 69 67
65 65 65 64 64 65 63 62 61 60 60 60 60 61 60 61 60 61 60 60 59 60 61 59 60 59 59 59 59 59 58 57 58 58 58 58 58 58 58 56 55 55 55 56 56 56 55 56 53 55 56 55 54 58 61 62 64 66 68 68 68 69 69
64 64 63 64 64 62 61 60 59 59 59 59 59 59 60 60 60 61 60 60 60 60 60 59 58 58 58 58 59 58 58 57 57 57 58 57 57 56 56 55 55 54 54 54 55 56 56 54 53 53 54 55 55 55 59 62 63 65 67 67 68 68 68
64 64 63 63 64 64 63 60 59 58 58 58 58 57 57 58 59 58 59 58 59 58 58 58 59 59 59 58 58 57 57 57 57 58 57 56 56 55 55 56 55 56 56 56 57 57 55 53 53 52 52 54 55 56 59 60 63 63 65 66 67 67 67
63 64 64 62 63 62 62 60 58 56 56 57 56 56 56 57 58 57 57 56 56 58 58 58 58 58 57 57 57 56 56 56 56 56 55 55 55 54 54 55 55 56 56 58 57 56 55 55 53 50 53 55 51 53 56 58 58 62 64 64 65 66 66
62 62 62 61 61 61 61 59 58 57 57 56 56 55 56 58 57 57 57 57 57 57 57 57 57 57 57 57 56 55 56 56 57 56 55 55 55 54 54 53 54 54 55 55 55 55 53 52 51 52 52 53 52 51 54 55 58 57 59 63 64 65 63
62 61 61 61 60 60 60 59 58 58 56 57 55 57 59 57 57 57 57 56 56 56 56 56 57 57 57 56 57 56 56 56 56 56 55 55 55 54 54 53 55 55 55 55 54 54 55 53 52 52 51 47 48 50 49 53 54 55 55 59 62 62 62
62 61 60 60 60 60 60 59 58 57 57 55 55 57 57 56 55 56 56 56 56 56 56 56 56 56 55 55 54 55 55 58 55 54 54 54 54 54 53 54 54 54 55 54 55 54 54 53 52 52 50 48 45 42 46 46 48 50 56 55 57 59 59
60 59 59 59 60 60 60 59 59 58 57 56 58 56 55 55 55 55 55 55 55 55 55 55 55 55 55 54 54 53 53 54 54 54 53 54 54 54 54 54 53 53 53 53 53 53 53 52 52 51 50 48 47 43 42 41 44 45 51 54 50 54 58
60 59 59 59 60 60 60 58 56 56 56 58 58 58 55 55 55 57 54 54 54 55 54 54 54 54 54 53 54 53 53 53 54 54 54 54 53 54 53 53 52 51 52 52 51 52 52 51 50 51 51 50 49 45 44 41 42 47 48 51 52 51 55
60 60 60 60 60 59 58 56 55 55 57 57 57 55 55 55 55 55 54 54 54 54 54 53 54 53 52 52 53 52 53 53 53 52 53 54 54 53 52 51 51 51 51 50 50 51 51 51 50 51 51 51 50 49 47 45 41 47 50 47 50 54 53
61 59 59 59 58 57 56 57 57 56 56 56 55 56 55 55 54 54 54 53 53 53 53 52 52 52 52 52 52 53 53 53 53 52 53 54 54 52 51 50 50 50 50 50 49 49 49 50 50 49 49 49 49 49 48 46 43 42 49 48 49 51 53
59 59 57 57 57 57 57 57 55 55 56 55 55 54 55 54 54 53 53 53 52 51 51 51 51 51 51 51 52 52 52 53 53 52 52 52 53 52 51 50 50 50 50 48 48 48 49 49 49 48 48 47 46 47 47 45 42 42 46 50 49 49 51
58 58 57 57 57 57 56 55 56 55 54 55 55 55 54 53 53 52 52 51 50 50 50 50 50 50 51 50 51 53 52 52 51 51 51 50 50 51 50 49 49 49 49 48 48 48 48 48 48 47 46 46 46 46 48 45 43 42 41 46 47 50 50
57 57 57 56 56 56 56 56 56 54 54 54 55 54 54 53 52 52 51 50 49 48 48 48 48 49 49 49 49 51 51 51 51 50 50 50 50 50 49 48 48 48 48 47 46 46 47 46 47 46 45 46 46 46 47 47 44 41 41 43 47 47 48
56 56 55 54 54 54 54 55 56 55 55 55 54 54 54 53 52 50 49 48 47 47 46 46 46 47 48 48 48 50 51 51 50 50 50 50 50 49 48 47 47 47 47 45 45 45 46 46 45 45 44 45 46 46 46 46 46 44 43 42 45 46 48
55 54 53 53 53 54 54 55 55 54 53 53 53 53 53 52 51 50 48 47 46 46 45 45 45 45 47 47 48 48 50 51 50 49 50 51 52 49 48 47 47 46 46 45 44 44 44 43 44 43 43 45 45 46 46 46 46 46 44 43 44 47 49
54 53 54 53 54 54 54 54 54 54 54 54 53 53 52 51 51 49 48 47 46 45 44 43 43 44 45 46 47 48 48 49 50 50 50 50 50 49 48 47 47 46 45 44 43 43 43 43 43 42 43 45 46 46 45 46 46 45 45 45 45 45 48
53 53 52 52 53 53 53 53 54 54 54 53 53 52 51 50 50 49 48 47 45 44 43 43 42 42 43 44 45 47 47 48 49 49 50 50 50 49 48 47 47 46 45 44 44 43 43 43 43 42 43 44 45 44 44 44 45 44 45 44 45 46 46
53 53 53 53 53 53 53 52 52 52 53 53 52 52 51 50 49 49 47 46 45 44 43 42 41 41 42 43 44 45 46 47 48 48 48 49 48 48 47 47 47 47 46 45 45 44 43 42 42 41 42 43 44 43 43 44 44 44 44 44 44 44 45
53 53 53 53 53 53 52 52 52 53 53 53 53 52 51 50 49 48 47 46 45 44 42 42 42 41 41 42 42 44 45 45 48 46 47 48 47 47 46 46 47 48 51 51 50 48 47 47 43 41 42 42 43 42 42 43 44 44 44 44 43 44 43
53 53 53 52 51 51 51 51 52 51 52 52 52 51 50 49 48 46 45 45 44 43 42 42 44 43 43 41 41 43 44 45 47 46 47 46 45 46 47 47 50 53 51 50 49 47 45 45 46 45 43 42 42 42 42 43 43 43 43 42 42 42 41
52 51 51 51 51 51 51 51 50 50 50 50 50 51 49 47 46 46 44 43 42 43 42 43 42 41 41 43 43 41 43 45 47 46 45 46 45 47 46 46 44 50 49 48 47 46 45 44 43 43 44 45 45 44 42 41 42 43 42 41 42 42 41
51 51 51 51 51 50 50 49 49 49 49 49 50 49 48 47 46 45 44 43 41 42 42 43 41 42 41 41 43 42 42 45 47 48 46 46 46 46 45 45 44 46 46 46 45 43 44 44 43 43 43 43 43 44 43 42 42 42 43 41 41 41 41
50 50 50 50 50 49 49 48 48 49 48 48 48 48 47 47 45 44 43 42 41 41 40 42 41 42 41 41 42 44 44 45 46 47 47 46 45 45 45 45 44 44 46 51 49 42 41 42 44 43 44 45 45 46 42 42 42 44 44 42 42 42 42
50 50 50 49 49 49 49 48 47 48 48 48 46 46 47 46 45 44 43 42 40 40 41 43 42 42 42 41 42 44 47 47 47 47 47 46 45 44 43 43 43 43 42 43 42 42 41 40 40 41 42 43 43 45 45 44 44 43 44 44 42 41 44
50 50 49 49 50 49 49 48 48 48 47 46 46 46 46 45 45 44 43 42 42 41 42 42 42 42 41 42 43 45 46 47 47 46 46 44 45 43 43 44 43 43 44 44 45 43 41 40 39 40 41 42 43 43 44 44 45 45 45 45 44 44 45
50 49 49 49 49 48 47 47 47 47 47 45 45 45 45 46 44 43 42 41 41 40 41 42 42 42 42 41 43 46 45 45 45 45 45 44 44 44 43 43 43 43 45 44 46 42 42 41 39 39 40 41 42 43 43 47 45 45 45 44 44 45 46
49 49 49 49 48 48 47 47 47 48 46 45 44 44 43 44 44 43 42 41 40 39 39 42 42 42 42 41 43 43 44 44 43 43 43 45 44 44 45 45 44 45 44 44 45 42 41 42 40 39 39 39 41 41 43 46 46 45 44 43 43 42 43
50 49 49 48 48 47 47 47 48 48 46 45 44 44 44 43 42 42 42 41 41 40 39 42 42 42 42 41 43 41 42 42 42 42 43 44 45 42 44 53 52 46 43 44 43 42 41 42 40 39 39 39 39 40 42 45 45 45 45 44 44 44 44
49 49 48 47 47 47 47 48 48 48 47 47 46 45 46 44 43 42 42 44 48 43 40 42 42 41 41 41 42 41 42 41 41 41 41 43 44 43 42 47 50 48 46 44 42 42 41 42 40 40 39 38 38 40 42 43 42 42 43 45 45 46 46
49 49 48 47 48 48 48 48 48 48 46 47 46 44 44 44 43 42 43 44 45 42 41 41 41 42 41 41 41 41 41 39 40 40 40 43 43 42 43 44 45 44 42 42 41 41 40 41 41 40 39 38 39 40 44 42 43 44 44 45 44 45 44
49 48 48 48 48 48 47 46 45 46 46 47 45 45 45 44 44 42 42 43 43 41 42 40 42 42 42 42 41 41 39 39 37 39 38 41 40 40 42 42 42 45 42 42 41 40 40 41 42 41 40 40 41 43 41 40 43 46 45 44 44 44 43
50 50 49 49 47 47 47 48 48 47 46 46 46 45 43 43 44 43 43 43 42 42 46 46 41 42 41 41 41 41 41 39 39 38 39 38 39 41 41 40 42 44 42 41 40 40 40 41 42 43 43 42 42 42 42 43 43 45 45 44 44 43 42
50 51 50 49 48 48 47 48 47 48 46 45 45 44 44 43 42 42 42 42 41 41 40 43 45 42 41 41 41 41 40 40 40 40 39 38 38 41 41 42 43 44 41 40 40 40 41 42 44 43 42 42 41 43 43 43 45 44 44 43 42 42 42
50 49 49 48 47 47 47 48 48 48 45 45 43 45 43 45 42 43 42 40 42 41 40 40 42 43 43 41 41 41 40 40 40 41 41 40 39 40 41 41 42 40 40 40 40 40 42 44 44 41 43 42 42 44 43 42 44 43 42 42 41 41 41

ECMWFFLT1_sfc_temp_114.txt.gz
Temp
63 63 64 64 64 63 61 60 60 60 60 61 61 61 61 62 61 60 60 59 59 60 60 58 57 57 58 58 58 57 57 57 56 54 53 54 53 53 57 55 56 58 58 58 56 53 52 51 53 56 57 58 59 58 59 60 60 61 61 62 64 63 61
65 65 66 65 63 62 60 59 59 59 59 59 60 60 60 60 61 59 58 58 58 58 59 58 57 57 56 56 56 56 55 55 56 56 54 53 53 52 53 53 54 53 54 55 55 54 51 49 49 50 52 55 55 56 57 59 60 60 61 61 63 63 61
65 65 64 62 61 61 58 57 57 57 57 58 58 59 59 59 58 58 58 57 57 58 59 57 57 56 56 55 55 55 55 55 55 55 54 53 53 53 53 53 51 51 51 52 51 51 51 51 48 49 50 49 49 52 56 57 58 59 61 61 60 61 60
63 63 62 60 59 58 56 56 56 56 57 57 57 58 58 58 58 59 57 57 57 58 57 56 56 55 55 54 55 55 55 54 54 54 54 54 53 53 52 51 51 51 49 49 49 51 50 49 48 47 48 50 50 50 53 56 57 58 60 60 59 59 59
63 62 61 58 57 56 56 55 56 56 56 56 56 56 56 56 57 56 56 56 56 55 55 55 55 55 55 55 54 54 54 54 54 54 52 52 52 52 52 52 52 52 51 50 50 50 48 47 47 45 46 48 49 50 53 54 56 56 57 58 59 58 58
60 60 60 58 57 56 56 55 56 55 55 55 55 55 55 55 56 55 55 54 54 55 55 55 54 55 54 54 54 54 54 53 52 52 52 51 51 51 51 52 52 51 50 51 51 49 48 48 46 43 45 47 44 46 49 51 50 54 56 56 57 57 56
59 59 58 58 57 57 56 56 56 55 55 55 55 54 55 55 55 55 54 54 54 55 55 55 54 54 54 53 53 53 53 52 53 52 52 52 52 51 51 50 50 50 50 50 50 49 47 46 44 43 43 44 44 44 47 48 50 49 51 55 56 56 55
59 58 58 58 57 57 57 57 57 57 56 54 54 54 55 54 54 54 55 53 53 53 54 54 54 53 53 53 53 53 53 52 52 53 52 51 50 50 50 49 50 49 49 49 49 48 48 47 45 44 43 40 41 44 43 45 46 47 47 51 54 54 54
59 58 58 59 59 59 58 57 57 57 55 53 54 54 54 54 53 53 53 52 53 53 53 53 53 52 52 52 52 52 52 54 52 51 51 51 50 49 49 49 49 48 49 48 49 48 48 47 46 46 44 43 40 38 42 41 42 44 49 48 50 52 52
57 57 57 58 59 59 59 59 58 56 55 54 55 54 53 53 53 53 52 52 52 52 52 52 52 52 52 51 51 51 51 52 52 51 50 50 49 49 49 48 48 48 47 48 48 48 47 47 46 46 46 44 44 40 38 38 40 41 45 48 44 48 51
59 59 59 59 59 59 59 58 57 56 54 55 55 54 53 52 52 53 51 51 51 51 50 51 51 51 51 51 51 51 51 51 51 51 51 50 49 49 48 48 47 46 47 46 46 47 46 46 45 45 44 45 45 42 41 38 39 43 43 46 47 46 49
59 59 59 60 60 59 57 56 55 53 54 54 53 52 52 51 51 50 50 50 50 50 50 49 50 50 51 51 51 50 50 50 50 49 49 50 49 48 47 46 46 45 46 45 45 45 46 46 45 45 44 44 45 46 43 42 37 43 45 42 45 49 48
59 59 59 58 58 57 56 55 54 54 53 53 52 52 51 50 50 49 49 49 48 48 48 48 49 48 49 49 50 50 50 50 49 48 48 49 49 47 46 45 45 45 44 45 45 45 45 45 45 44 44 44 45 46 45 42 39 39 45 45 46 47 49
57 57 56 56 56 55 55 55 54 53 53 52 52 50 50 49 48 48 47 48 47 47 47 47 47 48 48 48 49 49 49 49 48 48 48 47 47 47 46 45 45 45 45 44 44 44 44 44 44 44 45 45 45 46 45 43 41 41 45 49 48 47 49
55 55 55 55 54 55 54 53 54 53 52 51 51 50 49 48 47 47 46 46 45 46 46 46 46 47 47 47 48 50 48 48 47 47 46 45 45 46 44 44 44 44 44 44 43 43 43 43 43 43 44 45 45 45 47 44 42 41 41 45 46 48 48
54 54 53 53 54 53 53 53 54 52 51 50 50 49 48 47 46 46 45 44 44 44 44 44 45 46 46 46 46 47 48 48 47 46 45 45 45 44 44 44 43 43 45 42 42 42 42 41 42 42 43 45 44 45 46 46 43 41 41 43 46 46 47
54 53 52 53 52 52 52 52 53 51 50 50 49 48 47 46 45 44 44 43 43 43 43 43 44 44 45 45 45 46 47 47 47 46 46 44 44 44 43 42 42 42 42 41 41 41 41 41 40 41 41 43 43 43 44 44 44 43 43 41 44 45 47
52 52 51 51 51 52 52 52 52 51 49 48 48 47 47 46 44 44 43 43 42 42 42 42 43 43 44 44 45 46 47 47 46 46 45 45 48 43 43 42 42 41 41 40 40 40 41 40 40 40 40 41 41 42 43 43 43 43 42 41 42 46 47
51 51 51 51 51 51 52 52 51 50 50 48 47 47 45 45 45 43 43 42 42 42 41 41 41 42 42 43 44 45 46 46 46 45 44 44 44 44 42 42 43 42 41 40 40 40 39 39 40 40 39 40 41 41 40 41 42 42 42 42 42 42 45
51 51 51 51 51 52 52 51 51 49 50 48 47 46 45 44 44 43 42 42 42 41 41 41 40 40 41 42 43 44 44 45 45 45 44 44 44 43 43 44 43 42 42 41 41 40 39 39 41 39 41 40 41 40 40 40 41 41 41 41 42 43 43
50 50 50 51 51 51 51 51 50 50 49 47 46 46 45 44 44 43 42 42 42 41 41 41 40 40 40 40 41 42 42 44 44 43 44 43 44 43 43 44 44 44 43 44 43 41 40 40 40 40 40 40 40 39 39 39 39 40 40 41 41 41 42
50 51 51 50 50 50 50 50 50 49 49 48 47 45 45 44 43 42 42 41 41 41 41 41 41 40 39 39 39 41 41 42 44 43 42 42 42 43 43 43 44 45 49 52 50 47 46 45 41 39 40 39 40 39 39 39 39 39 39 40 40 42 41
50 50 50 49 49 49 49 49 49 48 47 46 45 45 44 44 42 42 41 40 41 41 41 41 44 43 43 41 40 40 42 42 43 43 43 42 41 42 43 41 45 53 51 50 49 46 44 44 45 43 41 39 39 38 39 38 38 39 39 39 40 40 39
49 49 48 48 48 49 49 49 48 47 46 45 44 45 43 42 41 41 40 40 40 40 41 42 42 40 40 43 42 40 41 41 43 42 42 41 41 43 42 41 40 47 49 47 46 46 44 44 43 43 43 44 44 41 39 38 39 39 39 39 39 39 39
48 48 48 48 48 48 49 48 47 46 45 44 44 43 42 41 40 40 40 40 39 40 40 43 40 41 42 42 45 43 41 41 43 43 42 41 42 42 42 41 41 43 44 44 44 42 43 44 43 43 42 43 43 43 43 41 39 39 39 38 38 39 40
48 48 48 47 47 48 47 47 46 45 44 44 43 42 41 41 40 40 40 40 39 39 38 42 41 42 42 42 43 45 44 43 43 42 41 41 40 41 42 43 42 43 42 50 47 41 40 41 43 43 43 44 44 44 42 41 42 42 41 39 39 39 41
48 47 47 47 47 47 47 46 45 45 45 44 42 42 41 41 40 40 40 39 38 38 39 42 41 42 42 42 42 43 42 43 42 41 41 41 41 40 42 42 40 42 42 41 40 41 41 40 40 40 41 41 41 43 43 43 43 43 44 42 40 39 42
47 47 47 47 46 46 46 45 45 45 44 43 42 41 41 40 41 40 39 38 39 39 40 41 41 41 41 41 42 42 41 43 42 40 40 40 40 39 40 42 40 40 42 42 44 43 41 39 39 39 40 40 41 41 41 42 43 43 44 43 42 42 42
47 47 46 46 46 45 45 45 44 44 43 42 42 41 40 41 39 38 38 37 38 37 38 41 41 41 41 41 42 42 40 41 40 39 40 39 39 39 40 40 41 41 42 42 45 42 42 41 38 39 39 39 40 40 41 45 44 44 44 43 43 43 43
47 46 46 46 45 44 44 43 43 44 43 42 41 41 40 40 40 38 38 38 37 35 37 40 40 40 40 40 41 40 38 40 38 38 38 40 40 39 39 41 41 41 42 42 44 41 40 41 38 38 38 38 39 39 41 44 45 44 43 43 43 43 43
47 46 46 45 44 44 43 43 43 44 43 42 41 41 41 40 39 39 38 37 37 37 38 41 41 40 40 40 41 37 38 39 37 37 37 39 40 38 40 50 49 42 41 42 42 40 40 41 38 37 37 37 38 39 41 42 42 44 45 44 44 44 43
47 46 46 45 45 44 44 44 43 43 42 42 42 41 42 40 38 37 37 37 47 39 37 41 41 40 40 40 39 36 38 38 38 36 37 39 38 40 40 44 47 45 43 42 40 40 39 40 37 36 36 35 37 38 41 39 40 41 42 43 44 44 44
47 47 46 45 45 45 44 44 43 43 42 42 42 40 41 41 39 39 39 39 41 38 37 38 39 40 41 40 41 37 37 38 38 35 35 39 40 39 39 40 42 42 40 40 39 39 39 40 38 37 37 36 37 39 41 40 43 43 42 42 42 43 43
47 46 46 46 46 45 44 44 43 43 42 42 41 40 41 40 40 39 39 38 37 37 38 37 38 40 41 40 40 40 35 36 34 36 34 36 35 36 38 39 39 42 40 39 39 39 39 40 41 41 39 36 37 41 41 41 42 44 41 42 42 42 42
47 47 46 46 45 44 44 45 44 44 42 41 41 41 39 40 39 38 37 38 37 37 43 44 36 40 40 40 40 41 38 37 38 37 36 35 37 37 38 36 38 41 40 39 39 39 40 40 41 43 40 39 40 41 42 42 41 41 41 41 41 41 41
47 48 47 46 45 44 44 44 44 44 42 41 41 40 40 39 38 38 37 37 37 36 37 41 43 39 40 39 39 39 39 38 40 38 36 36 35 37 37 37 39 42 39 39 39 39 40 41 42 41 40 40 40 40 42 40 40 40 40 40 39 39 40
47 46 46 45 45 44 44 45 44 44 43 42 41 41 38 39 39 38 38 36 38 37 36 37 41 42 39 39 39 39 39 38 39 38 39 37 35 36 37 37 39 38 39 39 39 39 40 41 40 40 40 40 41 41 40 38 39 38 38 38 38 38 38

ECMWFFLT1_sfc_temp_117.txt.gz
Temp
62 61 61 61 61 60 60 60 60 60 60 59 58 58 59 59 58 57 57 57 57 57 58 55 55 55 56 57 57 56 56 55 53 52 51 51 50 50 54 53 53 54 53 53 51 48 49 47 49 52 52 53 54 53 54 54 54 55 55 56 57 56 55
64 62 62 62 60 60 58 59 59 58 57 57 57 57 57 58 59 57 56 56 56 56 57 56 55 55 55 54 54 54 54 53 54 53 52 50 50 49 50 50 50 50 50 50 50 49 47 45 46 46 46 50 50 50 52 53 54 54 55 55 56 55 55
63 62 61 60 59 59 58 57 57 56 56 56 56 56 57 57 56 57 56 55 55 56 57 55 55 55 54 54 54 53 53 52 52 53 51 51 51 50 50 49 47 47 47 47 47 46 45 46 42 43 44 43 43 46 50 51 52 52 54 54 53 53 53
62 61 59 58 58 58 57 56 56 55 55 55 55 55 55 55 56 57 55 55 56 56 55 54 54 54 53 53 53 53 52 52 51 51 52 51 50 50 49 48 47 46 44 43 43 44 44 42 41 41 42 43 43 43 47 50 51 52 52 53 52 52 52
62 60 58 57 57 56 56 55 55 55 54 54 54 54 54 55 55 54 55 55 55 54 54 54 54 54 54 53 53 52 52 51 52 51 50 49 48 48 47 47 47 47 46 44 45 44 43 42 41 39 40 42 42 43 47 48 49 51 50 52 52 52 51
61 60 58 57 57 56 55 54 54 53 53 53 53 53 53 53 54 53 53 53 53 54 54 54 53 53 53 53 52 51 51 50 50 49 48 47 47 46 46 47 47 46 45 45 45 44 44 44 42 39 41 41 39 41 43 46 45 49 50 51 51 52 51
60 59 58 57 56 56 55 54 54 54 53 52 52 52 52 53 53 53 53 52 53 54 54 53 53 53 53 52 52 50 50 50 50 48 48 47 47 47 47 46 45 45 45 45 44 44 43 42 40 39 39 40 40 40 43 43 45 44 45 50 51 51 50
59 58 58 57 56 55 55 55 54 54 53 52 52 52 53 52 52 53 53 52 52 52 52 52 53 52 52 52 52 50 50 49 49 48 47 47 46 46 45 45 46 45 45 45 44 44 44 43 41 40 39 37 38 39 40 41 42 43 43 47 49 49 50
59 58 58 57 56 56 56 55 54 53 53 53 52 52 51 52 51 51 51 51 51 52 52 52 52 52 51 51 50 50 49 50 48 47 47 47 46 45 45 45 45 44 44 44 45 44 44 43 43 42 41 39 37 36 40 38 40 40 45 43 46 48 49
58 58 57 57 56 56 57 57 55 54 54 52 52 52 51 51 51 50 50 50 50 51 51 51 51 51 51 50 49 48 48 48 48 46 47 46 45 45 45 44 44 44 44 44 44 44 44 43 43 42 42 41 42 39 36 36 38 38 43 44 41 46 50
58 58 58 58 58 57 57 56 56 54 52 52 51 51 50 50 50 51 49 49 49 49 49 50 50 50 50 49 48 48 48 48 47 47 47 46 45 45 45 44 44 43 44 43 43 43 43 42 42 42 42 43 44 41 39 36 36 41 41 44 45 45 49
59 59 59 59 58 58 56 55 54 53 52 51 51 50 49 49 49 48 48 48 48 48 48 48 49 49 49 48 48 47 47 47 46 45 45 46 45 45 43 43 43 43 43 42 42 42 43 43 42 43 43 45 45 44 41 40 36 42 44 41 45 48 47
59 59 59 58 58 56 55 54 53 51 50 50 49 49 48 48 48 47 47 47 47 47 47 47 48 48 48 47 47 47 47 46 45 44 44 45 45 44 43 43 43 42 42 41 41 41 41 42 42 42 43 43 42 42 43 42 39 38 43 43 45 46 48
58 58 58 57 56 55 54 53 51 50 49 48 48 47 47 46 46 46 46 47 46 45 46 46 46 47 47 47 47 46 46 46 45 44 44 43 44 44 43 43 42 42 41 40 40 41 41 40 41 41 43 42 41 42 41 40 37 37 41 45 44 45 47
56 56 56 56 55 54 53 51 50 49 47 47 47 46 46 45 45 45 45 44 44 45 45 45 45 47 47 46 46 47 45 45 44 43 43 42 42 43 42 41 41 41 40 39 39 40 40 39 40 40 40 41 40 40 42 39 38 37 37 42 43 45 45
55 55 54 54 53 52 51 49 49 47 46 46 46 45 45 44 44 44 44 43 44 44 44 44 44 45 46 46 45 45 45 44 44 43 42 42 42 41 41 41 40 40 42 39 39 39 39 39 40 39 39 40 40 40 41 41 38 37 37 39 43 42 44
53 52 51 51 50 50 49 48 48 47 46 45 44 44 44 44 44 43 43 43 43 43 43 43 44 44 45 46 45 44 44 44 43 42 42 42 41 41 40 40 39 39 39 39 38 38 39 39 39 39 39 40 40 40 40 41 40 38 38 37 41 42 44
50 50 49 49 49 48 48 47 48 46 45 44 44 44 44 43 43 43 42 42 42 42 42 43 44 44 44 45 45 44 44 43 43 43 42 42 45 40 41 39 40 39 38 39 39 39 39 38 39 39 38 39 39 40 41 40 40 39 38 37 39 42 44
50 49 49 49 48 48 48 47 46 46 45 44 43 43 42 42 43 41 41 41 41 41 41 41 42 43 43 44 44 44 44 43 43 42 41 41 41 41 40 40 41 40 39 38 38 38 38 38 38 38 38 39 39 39 38 39 39 39 39 39 39 39 42
49 49 49 48 48 48 47 46 46 45 45 44 43 42 42 41 42 41 41 41 41 41 40 40 41 41 42 42 43 43 43 42 42 41 41 41 41 40 41 42 41 40 40 40 39 39 39 38 39 38 40 39 39 38 38 38 39 38 38 38 39 40 40
49 49 49 49 48 47 47 46 45 45 45 43 42 42 41 41 41 41 41 41 41 41 40 40 39 40 40 41 43 42 42 42 41 40 40 41 41 41 40 40 40 41 40 42 42 40 39 40 39 39 39 39 39 38 37 38 38 38 37 38 38 38 40
49 50 49 48 47 47 46 45 45 45 44 43 43 41 41 41 40 40 39 40 39 40 41 40 40 40 40 40 40 42 41 41 41 40 39 40 39 39 39 39 40 41 48 52 50 48 46 45 41 39 40 38 39 38 37 37 38 37 37 37 38 39 39
48 48 48 47 47 46 46 45 44 43 42 42 41 41 40 40 40 40 40 39 39 40 40 40 44 45 45 41 39 41 42 40 40 40 40 40 40 40 39 37 42 52 51 50 48 46 44 44 45 42 40 38 37 36 37 36 37 37 37 37 37 37 37
48 48 47 47 46 46 45 44 43 42 41 41 40 41 40 39 39 39 39 39 39 39 39 41 42 40 42 44 42 41 42 41 40 40 39 39 41 42 39 37 37 44 47 45 45 45 43 43 43 42 43 44 44 39 37 36 36 37 37 37 37 37 37
48 47 47 46 46 45 44 43 42 41 40 40 40 39 39 38 38 38 39 39 38 39 39 43 41 42 42 43 45 42 42 42 41 40 39 39 41 40 38 38 39 41 41 43 44 41 42 43 42 42 42 42 42 43 43 39 38 37 37 36 36 37 37
47 46 46 46 46 45 44 42 41 41 40 40 39 38 37 38 37 37 39 39 38 38 37 42 41 42 42 41 42 43 42 42 42 40 39 39 38 39 38 40 41 42 41 47 46 40 39 39 42 42 43 43 43 44 41 40 42 41 39 37 36 37 39
46 46 46 46 45 44 43 42 41 41 41 40 38 38 37 37 37 37 38 38 37 37 37 42 41 41 41 41 41 42 40 41 40 39 39 39 38 37 37 38 39 41 41 40 39 40 39 38 37 38 38 39 39 41 42 42 42 42 43 40 38 37 40
46 46 46 45 45 44 43 41 41 41 40 39 38 38 37 37 37 38 37 37 38 37 38 41 40 41 41 41 41 41 40 41 39 38 37 37 36 37 36 38 37 39 39 39 41 41 38 37 36 37 37 38 39 39 39 40 41 41 42 41 40 40 41
46 46 45 45 44 43 42 42 41 40 40 38 37 37 36 37 37 36 36 37 38 36 36 40 40 40 40 40 42 41 39 39 37 37 38 37 37 36 37 37 37 39 39 38 42 41 40 38 35 36 37 37 38 39 40 44 44 43 43 42 41 42 42
45 45 45 44 43 42 42 41 40 41 39 38 37 37 36 36 36 36 36 37 37 34 35 39 39 40 40 40 40 39 38 39 37 36 37 37 36 37 37 38 39 38 38 38 42 39 39 41 34 36 36 36 37 37 39 42 43 43 42 42 42 42 42
46 45 45 44 43 42 42 41 41 42 40 38 37 36 36 36 35 36 36 35 36 36 35 39 40 40 39 39 40 37 37 37 34 35 35 35 35 35 37 48 46 39 37 39 40 38 38 39 35 35 35 35 36 37 39 41 40 42 43 43 43 42 42
47 45 45 43 43 42 42 42 41 41 40 39 38 37 39 36 34 35 35 37 47 38 35 39 40 39 39 40 38 34 37 37 36 33 32 35 36 36 37 41 44 43 40 40 38 39 38 39 35 34 34 33 35 36 38 38 38 39 40 40 41 42 42
46 45 44 42 42 42 42 42 40 40 39 39 38 37 37 37 35 35 37 38 38 35 35 36 38 39 39 40 40 36 35 36 36 35 32 37 38 36 36 37 40 40 39 39 38 38 39 39 36 35 34 34 35 37 38 37 40 40 38 39 39 40 40
45 45 44 44 43 43 42 41 40 40 39 39 38 36 37 35 36 35 36 36 35 34 36 34 37 39 40 40 40 38 33 34 32 34 32 35 32 33 36 36 36 40 39 38 38 38 39 39 40 37 34 34 35 38 39 37 39 41 38 39 39 39 40
46 45 45 44 43 41 40 41 41 40 38 38 38 37 35 37 36 35 35 36 36 35 41 42 34 39 39 40 40 40 36 36 33 33 34 34 32 33 33 35 35 39 39 38 38 39 39 39 40 39 37 38 39 38 39 39 37 37 37 37 37 38 38
45 45 45 44 43 41 40 40 40 40 39 38 38 37 36 36 35 35 34 35 34 34 34 39 42 37 39 39 39 40 40 37 40 37 35 37 34 34 33 34 36 40 38 38 38 39 39 39 40 38 38 38 39 38 39 36 37 36 36 36 36 36 37
45 45 45 44 43 41 40 40 40 40 39 39 38 37 35 36 35 35 35 34 35 34 33 34 40 41 38 38 38 38 38 38 39 36 36 35 32 33 34 33 37 38 37 38 38 38 39 39 38 38 38 38 39 39 36 35 35 35 35 35 35 35 36

ECMWFFLT1_sfc_temp_120.txt.gz
Temp
60 58 60 60 61 61 60 60 60 59 60 60 60 60 60 60 59 58 58 57 57 57 58 56 55 55 56 56 56 55 55 54 53 51 50 51 50 49 53 51 52 52 51 50 49 49 48 46 49 52 52 52 53 52 53 52 53 53 53 53 55 53 53
60 60 61 61 60 60 58 59 58 59 59 59 59 59 59 59 59 57 57 56 56 56 57 55 55 55 54 54 53 53 53 53 53 52 50 49 49 48 49 49 49 49 49 48 48 49 46 44 46 46 46 49 51 51 52 52 53 53 53 53 54 53 52
60 59 59 58 59 59 58 58 58 58 58 57 57 58 57 57 56 57 56 56 56 57 56 54 54 54 53 53 53 53 52 51 51 51 50 49 49 49 48 48 46 47 47 46 45 45 45 45 42 43 44 42 43 47 50 50 52 53 53 53 52 52 52
59 59 58 57 58 58 56 56 56 56 56 56 56 56 55 56 56 57 56 56 56 57 55 54 53 53 53 52 52 52 51 50 50 49 49 49 48 48 47 47 45 45 44 42 42 44 44 42 42 43 43 44 44 44 49 51 52 53 53 52 52 52 52
60 59 58 57 57 56 56 55 56 56 55 55 55 54 54 55 55 54 55 55 55 54 53 54 53 53 53 52 52 51 50 50 50 49 48 47 47 47 46 46 46 46 45 44 45 44 43 42 42 41 42 43 45 46 49 50 52 52 52 52 52 52 52
59 59 58 57 57 57 56 56 55 54 55 54 53 52 53 53 54 53 54 53 53 54 54 53 53 53 52 51 50 49 49 48 48 48 47 46 46 46 45 46 46 46 45 46 45 44 44 44 43 41 43 44 42 44 47 48 48 51 52 51 52 53 53
58 59 59 58 58 58 57 56 56 55 54 53 52 51 52 53 53 53 53 53 53 54 54 53 52 52 51 50 49 49 48 48 48 47 47 47 46 46 47 46 45 45 45 46 45 45 43 43 41 40 40 43 43 44 46 47 49 47 49 52 53 53 53
58 59 59 58 58 57 57 56 55 55 53 52 52 52 53 52 53 53 53 52 53 53 53 52 52 51 51 50 50 49 48 48 48 47 47 46 45 45 45 45 45 45 45 45 45 44 45 43 43 42 41 39 41 44 43 46 46 46 46 50 52 52 53
59 59 58 58 58 57 56 56 54 54 53 52 52 52 52 52 52 51 52 52 52 52 52 52 51 50 50 49 49 48 48 49 47 46 46 46 45 45 45 45 44 44 45 45 45 45 45 45 44 44 43 42 39 38 41 41 43 44 48 47 50 52 52
58 58 57 57 57 57 56 55 54 54 53 53 52 52 51 51 51 51 51 51 51 51 51 51 51 50 50 49 48 47 47 48 47 46 46 45 45 45 45 44 44 44 44 45 45 45 45 45 45 45 45 43 42 39 37 37 40 41 46 48 45 49 52
58 58 57 57 57 56 56 55 54 53 53 52 52 51 51 50 51 52 50 50 50 50 50 50 50 50 49 48 48 47 47 47 47 47 46 46 45 45 45 44 44 44 44 44 44 45 45 44 45 45 45 45 45 41 39 37 38 43 44 47 48 47 50
58 58 58 58 57 56 55 54 53 53 52 52 51 50 49 49 49 49 50 50 50 50 50 49 49 49 49 48 48 47 47 47 46 45 46 46 45 45 44 43 43 43 44 43 44 44 44 45 44 45 45 45 45 43 41 40 37 43 46 43 46 50 49
59 58 58 57 56 55 54 53 53 52 51 51 49 49 49 49 49 48 49 49 49 49 49 49 49 48 48 47 47 46 46 46 45 45 45 45 45 44 44 43 43 43 43 44 43 43 44 44 44 44 44 44 44 44 43 41 38 39 45 45 46 48 50
57 57 56 56 55 54 54 53 52 51 51 49 49 48 48 48 48 48 48 49 48 48 48 48 48 48 47 46 46 46 46 46 45 45 45 44 45 44 44 43 43 43 43 43 43 43 44 43 44 43 44 44 43 44 43 41 39 40 43 47 46 47 49
57 56 55 55 54 53 52 51 51 51 48 47 48 47 47 47 47 47 47 47 47 48 48 48 48 48 47 46 46 46 45 45 44 44 44 43 44 44 44 43 43 43 43 42 43 43 43 43 43 43 44 43 43 43 44 41 41 39 39 44 45 47 47
55 54 54 53 52 52 51 50 51 49 47 46 46 46 46 46 46 47 46 46 47 47 47 47 47 47 47 46 46 45 45 45 44 44 43 43 43 43 43 43 43 43 44 43 43 43 43 43 43 43 43 44 43 43 44 43 41 39 39 41 44 44 46
54 53 52 52 51 50 50 49 49 47 46 45 45 45 45 46 46 46 46 46 46 46 46 47 47 47 47 46 46 45 45 44 44 44 44 43 43 44 44 43 43 43 43 43 43 43 43 43 43 43 43 43 43 43 43 43 43 40 40 39 42 44 46
53 52 51 51 49 49 48 48 48 46 45 44 44 45 45 45 45 46 45 45 45 46 46 47 46 46 46 46 46 45 44 44 44 44 44 45 46 44 44 44 43 43 43 44 44 44 43 43 43 43 42 43 43 43 43 43 43 42 41 40 41 44 45
51 50 50 49 48 48 47 46 46 45 45 44 43 44 44 44 45 44 44 44 45 45 46 46 46 46 46 45 45 45 45 44 44 44 44 43 44 44 44 44 44 44 44 44 44 44 44 43 43 43 42 43 43 42 42 42 43 42 41 41 41 41 44
49 49 48 47 47 46 46 45 45 44 45 44 43 43 43 43 44 43 43 44 44 45 45 45 45 45 44 44 44 44 44 43 43 44 43 43 43 43 44 44 44 44 45 45 45 44 44 43 43 42 43 42 42 41 41 42 42 41 41 41 42 43 42
48 47 47 47 46 45 45 44 44 44 44 43 43 43 43 43 43 43 43 43 43 44 44 44 43 43 44 44 44 44 44 44 43 43 43 43 44 44 44 44 44 45 47 47 47 45 44 43 43 43 43 43 42 41 41 41 41 41 41 41 41 41 42
48 48 47 46 45 44 44 44 44 44 44 43 43 42 42 42 42 42 42 43 43 44 44 44 43 43 43 43 43 44 44 44 44 44 43 44 44 44 44 44 45 48 51 50 48 47 46 45 44 42 43 42 42 42 41 41 41 41 41 41 41 42 41
47 47 46 45 44 44 44 44 43 42 42 42 42 42 42 42 42 42 42 42 42 43 43 44 46 45 45 44 43 43 43 43 44 44 45 44 44 44 43 43 46 50 49 48 47 45 43 43 44 44 43 43 42 41 41 41 41 41 41 40 40 40 39
47 46 45 45 44 44 43 43 42 41 41 41 41 43 41 41 41 42 42 42 42 42 42 44 44 42 42 44 44 44 44 43 43 43 44 44 44 46 44 44 43 47 46 45 46 44 42 42 42 42 42 43 44 43 42 41 41 41 40 40 40 40 40
46 45 45 45 44 43 43 42 42 41 41 40 41 41 40 40 40 41 41 41 41 42 42 44 40 42 42 42 45 44 44 44 44 44 43 43 44 43 44 44 44 44 45 47 47 43 43 42 41 41 41 41 41 42 42 41 41 41 41 40 39 40 40
46 45 45 44 43 43 42 42 41 41 40 40 40 39 39 39 39 40 41 41 41 42 42 42 41 42 42 42 43 44 44 44 45 44 43 42 41 41 42 44 44 45 44 46 45 42 42 41 41 41 42 42 42 43 40 40 41 43 43 41 40 40 41
46 45 44 43 42 41 41 40 40 41 41 40 38 38 38 39 39 39 40 40 40 40 41 42 40 41 41 41 41 43 44 44 44 42 42 41 42 42 41 42 42 43 43 43 42 43 42 41 40 41 42 42 42 43 42 42 41 41 43 43 41 40 42
46 45 44 43 42 42 41 40 41 40 39 39 38 38 38 38 40 40 39 39 40 40 41 41 40 40 40 40 41 42 43 43 42 41 40 40 41 42 41 41 41 41 42 41 43 43 41 40 40 40 41 42 42 42 42 43 44 44 44 43 43 42 43
45 44 43 42 42 41 39 40 40 41 40 39 38 38 38 39 39 38 38 39 39 38 39 40 40 40 40 40 42 44 43 43 42 42 42 41 41 41 41 41 42 42 42 40 42 40 40 41 40 40 41 41 41 42 43 44 43 42 44 44 44 44 44
45 44 43 42 41 40 39 39 39 41 39 38 38 38 38 38 38 38 39 39 39 37 38 40 39 40 40 40 41 42 42 42 41 41 41 41 40 40 41 43 44 42 41 41 41 38 38 41 39 40 39 40 40 41 42 44 43 41 41 41 41 41 41
45 44 43 43 42 41 42 41 41 41 40 39 38 37 38 37 37 38 38 37 39 38 38 40 39 39 40 40 42 42 42 41 40 41 40 39 39 40 40 46 47 43 41 42 40 38 38 41 40 40 39 39 39 40 41 42 42 42 42 42 41 41 41
46 44 44 43 43 42 41 41 41 41 40 40 39 38 39 37 37 37 37 39 45 39 38 40 39 39 39 40 40 40 41 41 41 38 37 39 40 39 39 41 43 42 42 41 37 38 38 41 40 40 39 38 39 39 41 40 39 40 41 41 42 43 43
46 45 45 44 43 43 42 41 40 40 39 40 39 38 39 38 38 38 39 40 40 38 38 38 40 39 39 39 39 40 40 42 42 40 38 43 42 40 40 40 41 39 38 38 38 37 38 38 41 40 39 39 38 39 41 40 41 41 40 40 41 42 42
45 46 46 44 44 43 42 41 40 40 39 39 38 37 37 37 38 37 37 36 36 37 39 38 40 38 39 39 39 39 39 40 38 38 37 40 37 38 40 40 39 40 38 38 37 37 38 38 39 42 39 39 39 40 40 40 40 40 40 40 41 41 42
46 45 45 45 43 42 42 42 41 41 40 39 39 38 37 38 37 37 37 37 38 37 41 42 38 39 39 39 39 39 39 40 38 38 38 38 37 37 38 39 39 40 38 37 37 37 38 38 39 42 40 37 37 37 40 41 40 40 40 40 40 41 41
45 45 44 45 44 42 41 41 41 41 40 39 39 38 37 37 37 37 37 37 36 36 35 40 41 40 39 39 39 39 39 38 38 42 40 42 39 39 38 38 38 39 37 37 37 37 38 38 40 40 37 37 37 37 39 40 40 39 39 39 39 39 39
46 45 45 44 44 42 41 41 41 41 40 40 39 38 37 37 37 37 37 37 38 37 36 36 40 40 40 38 38 38 38 38 38 38 40 39 38 37 38 37 39 37 37 37 37 37 38 38 40 37 37 37 38 38 39 38 38 38 38 38 38 38 38

ECMWFFLT1_sfc_temp_123.txt.gz
Temp
61 59 60 59 60 61 60 61 61 62 63 64 64 65 65 65 65 64 65 65 65 65 65 64 63 64 63 63 62 62 62 62 62 62 60 61 61 58 60 59 58 59 59 58 58 58 57 57 59 60 59 59 59 59 60 60 60 59 58 59 62 60 61
61 60 61 60 59 60 60 60 61 61 61 61 62 63 64 64 64 64 65 65 64 64 65 63 62 62 61 61 60 60 60 60 60 60 60 59 59 58 59 57 58 58 57 57 57 59 56 57 58 56 56 57 57 58 59 60 60 60 60 60 61 60 60
61 60 60 59 58 60 59 59 60 60 61 61 62 64 65 65 64 64 64 63 63 63 63 62 61 60 60 60 59 59 59 58 59 58 57 57 57 57 58 58 58 58 58 57 56 57 57 56 55 56 56 55 55 56 58 58 59 61 61 60 60 61 61
60 59 58 58 58 59 59 58 59 59 61 62 63 63 63 64 64 64 63 63 63 62 62 62 61 61 60 59 59 58 58 57 57 56 56 56 56 56 56 57 56 56 55 54 54 55 55 54 56 55 56 56 55 56 57 59 60 62 62 61 61 60 61
60 59 58 57 59 59 58 57 58 59 60 60 61 62 62 63 63 62 62 62 62 62 61 61 60 60 60 59 58 58 57 56 57 56 56 55 55 55 55 56 55 55 55 55 55 55 55 54 55 55 55 56 59 59 59 58 61 60 61 61 62 61 62
60 60 58 58 60 59 58 57 58 58 60 60 60 60 61 61 62 62 62 61 61 60 60 60 59 59 58 58 57 56 56 56 55 55 55 54 54 55 54 55 56 56 55 55 56 55 55 56 55 54 56 56 54 57 59 59 58 62 62 62 63 63 63
60 60 60 60 60 60 60 60 60 59 59 58 59 60 61 62 62 62 61 61 61 60 60 59 58 58 58 57 56 56 55 56 56 55 54 54 54 54 56 55 55 55 55 55 55 55 54 54 53 52 53 56 55 56 58 60 60 59 60 63 63 63 62
59 59 61 61 60 59 60 59 59 58 58 59 60 60 61 61 61 61 61 60 59 59 59 58 58 57 57 57 57 56 56 56 55 55 54 54 53 53 53 55 54 55 55 55 55 55 55 54 53 52 52 51 54 56 55 59 60 58 56 61 63 62 62
60 60 60 60 60 59 58 58 57 57 58 58 58 59 60 61 60 59 59 59 59 59 58 58 58 57 57 56 56 56 55 56 54 54 54 54 53 53 53 54 54 54 54 55 55 55 55 55 54 54 53 52 50 50 53 54 56 57 61 57 61 63 62
60 60 59 58 58 58 58 57 57 57 57 58 57 59 59 60 60 59 59 58 58 58 58 58 57 57 57 57 56 55 55 56 55 54 54 54 54 54 54 53 54 54 54 55 55 55 55 55 55 55 54 52 52 49 48 49 52 52 57 59 55 60 62
60 59 59 58 58 57 57 57 57 57 57 57 58 59 60 60 59 59 59 58 58 58 58 58 58 57 57 56 56 56 56 55 55 55 55 55 54 54 54 54 54 54 54 54 54 54 55 55 55 55 55 55 54 50 49 47 49 54 53 57 58 57 60
59 58 58 57 57 57 56 56 57 56 57 58 60 60 60 59 59 58 59 58 58 57 58 57 57 57 57 56 56 55 55 56 55 54 54 54 54 55 54 53 54 54 54 54 55 55 55 56 56 57 56 56 54 53 51 50 48 55 56 53 56 59 59
59 59 59 58 57 57 57 57 57 56 57 59 60 60 60 59 59 59 59 58 58 58 58 57 58 57 57 56 56 56 55 55 55 54 54 55 54 54 54 53 54 54 55 56 55 55 56 56 56 56 56 56 55 54 53 51 49 49 56 55 55 58 60
58 59 58 58 56 55 56 57 56 56 57 58 60 60 59 60 60 59 59 59 59 58 57 56 57 57 56 55 56 56 56 56 55 55 55 54 55 55 55 54 54 54 56 55 55 56 56 57 57 57 57 56 56 55 53 51 49 50 54 57 56 56 58
58 57 56 55 55 56 57 56 56 57 56 58 60 60 60 59 60 59 60 59 59 59 58 58 57 57 56 55 54 55 55 56 55 55 54 54 54 54 54 55 55 55 56 55 55 57 57 57 58 57 57 56 56 54 55 51 50 50 49 54 55 57 57
56 55 55 55 56 56 55 55 56 55 56 57 59 60 59 59 59 60 59 58 59 58 58 58 57 57 56 56 55 55 55 56 55 54 54 55 55 56 55 55 55 55 56 55 55 56 56 56 58 57 56 57 55 54 55 54 51 49 49 51 55 55 56
55 54 54 54 53 54 55 54 55 55 57 58 58 58 59 59 59 59 58 58 58 58 58 57 57 58 57 57 56 56 56 56 56 55 55 56 56 56 56 55 55 56 56 55 55 56 56 56 56 56 55 56 55 54 54 54 53 51 51 49 53 54 56
53 53 53 53 52 53 53 53 54 56 57 57 57 57 58 59 59 59 57 58 58 58 58 58 57 57 57 57 57 56 56 56 55 56 55 55 55 56 56 55 55 56 56 55 55 55 56 55 57 56 54 56 55 55 54 54 53 53 51 50 51 54 56
53 53 52 52 52 53 53 53 54 56 58 57 57 57 57 58 59 59 59 59 59 59 59 58 58 58 58 57 56 56 56 56 56 56 56 56 56 56 56 56 55 56 56 54 54 55 55 55 55 55 54 54 55 54 53 54 54 53 52 52 52 52 55
53 52 52 52 53 53 53 54 56 57 57 57 57 57 57 57 58 59 59 59 59 58 58 58 58 58 58 58 57 56 55 55 55 55 56 56 57 56 57 56 56 56 55 55 54 54 54 54 54 54 54 53 54 53 53 53 53 53 52 52 53 53 53
53 53 52 53 53 52 53 55 56 56 57 56 56 57 57 57 57 58 58 59 59 58 58 58 58 58 58 57 57 56 56 55 55 55 55 56 56 57 57 57 57 57 56 55 54 54 53 53 54 54 54 54 53 53 52 53 53 53 52 52 52 52 53
53 53 53 53 53 53 54 55 55 56 56 56 55 57 57 57 56 57 58 57 58 58 57 56 57 57 57 57 57 56 56 56 56 55 56 56 56 57 57 57 56 56 54 50 47 47 46 47 52 53 53 53 53 52 52 52 53 52 52 52 51 52 52
53 53 54 54 54 54 54 54 54 54 55 55 55 55 56 56 57 56 56 57 57 56 56 56 53 49 52 57 57 56 56 56 56 56 56 55 56 56 56 57 55 51 50 50 48 44 43 43 44 48 50 52 51 51 51 51 51 51 51 50 50 50 50
55 54 55 54 54 54 54 53 54 54 53 53 53 54 55 55 56 57 57 56 56 55 55 55 45 43 44 47 55 56 56 56 56 56 56 55 55 56 57 57 57 54 54 53 53 45 44 43 42 42 42 43 45 49 49 49 50 50 50 50 51 51 50
56 55 55 55 54 54 53 53 53 53 52 52 52 53 53 54 54 55 56 57 56 55 56 48 41 42 42 43 49 57 57 56 56 56 56 56 56 56 56 56 56 55 55 53 54 55 52 46 43 42 42 42 42 42 42 46 47 49 49 49 49 50 50
55 55 54 54 53 53 53 52 51 51 50 50 50 50 51 50 52 54 55 56 56 56 56 43 41 41 42 42 43 52 58 57 56 56 56 56 56 56 56 56 56 56 56 50 54 55 55 55 49 45 45 46 47 44 41 40 42 47 50 50 49 49 50
54 53 52 51 51 52 51 51 49 48 47 47 47 46 47 49 51 53 55 56 55 56 56 44 40 41 42 41 41 47 58 57 57 56 56 55 56 56 55 56 55 55 56 55 54 53 54 55 54 55 56 56 55 52 47 45 44 43 47 51 50 49 51
53 51 50 50 51 51 49 46 45 45 45 45 45 45 45 48 50 52 54 55 55 54 54 42 40 40 41 41 40 46 57 56 56 56 55 55 55 55 56 55 55 55 55 55 51 46 51 53 54 54 55 54 55 55 54 54 52 51 51 51 51 51 51
52 51 50 50 47 46 44 44 43 43 43 44 46 46 46 49 50 51 52 54 54 54 52 39 40 40 40 41 41 55 57 56 56 56 55 55 56 57 56 56 56 55 55 54 46 38 42 50 54 54 53 54 54 55 55 51 45 44 48 50 51 51 51
52 51 50 47 44 43 43 43 44 45 45 45 43 45 48 49 50 51 51 53 54 53 52 43 39 39 40 40 45 57 56 57 56 55 55 55 57 56 56 56 56 56 55 54 42 37 38 42 54 53 52 52 53 54 54 55 48 44 43 42 41 41 41
49 49 48 45 43 43 44 45 45 46 46 46 47 48 49 49 50 51 51 52 54 53 52 45 38 40 40 41 49 57 57 57 55 56 55 55 57 56 53 46 51 55 54 53 39 38 37 46 54 52 52 51 52 53 53 53 53 53 46 45 44 43 43
49 49 49 48 47 46 47 47 48 48 49 50 51 51 51 51 50 51 52 53 49 52 52 46 39 39 40 40 49 57 57 57 55 55 56 56 56 57 54 50 44 46 49 45 36 38 37 45 53 52 51 51 51 51 51 52 51 51 52 53 54 55 54
49 48 49 49 49 50 50 50 49 50 50 52 52 52 52 53 51 51 51 52 51 52 52 51 46 38 40 40 43 56 58 56 55 54 55 57 56 57 56 56 49 38 37 37 37 37 38 37 50 52 52 51 50 49 51 50 51 50 50 51 52 53 54
51 52 53 51 52 52 51 50 50 50 51 52 52 51 51 51 51 51 51 51 52 51 52 52 47 38 39 40 40 46 57 56 56 56 56 56 57 57 57 57 58 43 37 37 37 37 38 38 39 51 51 51 49 46 43 49 51 47 51 52 53 54 55
53 53 53 52 51 50 50 50 49 51 52 51 50 50 50 51 51 50 50 51 51 51 50 48 51 40 39 39 40 40 54 56 56 57 55 57 57 57 56 57 58 46 37 37 37 38 37 39 37 51 49 39 37 36 44 49 52 53 53 54 54 54 54
53 53 52 52 51 50 50 49 50 51 51 51 50 49 49 50 50 49 50 51 51 51 51 49 44 47 39 39 38 40 43 49 38 53 56 56 56 56 56 55 54 41 37 37 38 37 38 36 41 50 36 36 38 36 40 53 52 53 53 53 53 52 52
54 53 52 52 51 50 50 51 51 52 52 51 51 50 50 50 50 49 49 50 50 52 52 52 44 42 44 37 38 38 38 40 41 54 56 57 57 56 56 56 51 38 37 37 37 38 38 38 47 38 37 37 36 40 52 53 54 53 52 52 52 52 52

ECMWFFLT1_sfc_temp_126.txt.gz
Temp
68 64 66 64 63 63 64 66 66 66 67 67 69 71 72 73 72 71 72 72 72 73 72 71 70 70 70 69 68 68 69 69 68 68 67 69 67 64 67 67 67 67 67 66 66 66 68 64 62 64 65 64 65 64 66 66 66 66 65 66 69 68 68
66 64 64 64 62 62 63 64 67 66 66 67 69 69 70 70 70 69 69 70 70 71 72 70 69 68 67 67 67 66 66 66 66 67 66 66 67 66 67 65 66 66 67 65 66 68 65 65 63 63 61 62 63 64 64 65 67 67 67 66 67 67 67
65 63 62 62 62 62 62 63 64 65 65 67 68 69 68 69 69 69 69 69 70 70 70 69 68 67 66 66 66 65 65 65 66 65 64 65 65 65 66 66 65 66 65 65 65 65 66 66 63 63 63 63 61 62 64 65 66 68 69 68 67 68 69
66 65 63 63 63 62 62 62 63 63 66 67 67 67 68 69 69 71 69 69 70 69 69 68 67 67 66 66 66 65 64 64 64 64 63 63 64 63 64 64 64 63 62 61 62 64 63 63 64 64 64 65 65 62 63 65 67 69 70 69 69 68 68
66 66 65 63 63 63 63 62 63 64 65 67 67 67 68 69 68 68 69 69 68 68 67 67 67 68 68 67 66 65 64 64 64 64 63 63 63 64 63 64 63 63 63 63 63 63 63 63 64 64 64 66 68 68 67 67 69 70 70 70 71 69 69
67 66 65 64 65 65 66 64 63 64 65 65 66 67 69 68 69 69 69 69 68 67 67 67 67 67 66 66 65 64 64 63 63 63 62 61 62 62 62 63 64 64 63 64 64 64 64 65 64 63 65 66 63 65 68 68 67 72 72 71 71 71 71
67 67 65 64 64 64 67 65 64 65 65 64 66 67 69 69 70 69 68 67 67 67 66 66 66 66 65 65 64 63 63 63 63 62 62 61 61 62 63 63 63 63 63 64 63 63 62 62 61 60 62 64 64 65 68 70 70 68 69 72 72 72 71
66 66 65 63 62 64 65 65 65 65 64 65 66 67 69 68 68 68 67 66 66 65 65 65 65 65 65 65 64 63 63 63 62 62 62 61 60 61 61 62 62 62 62 63 63 62 63 62 61 61 61 60 63 64 64 68 69 67 66 70 72 72 70
67 66 65 63 64 64 65 65 64 64 64 65 66 67 68 68 67 65 65 65 65 65 65 65 65 65 64 64 63 63 62 63 61 61 61 61 60 60 61 62 62 61 62 62 63 62 63 63 62 62 62 60 58 59 62 62 63 65 69 66 70 72 70
65 63 62 62 62 63 63 63 63 63 63 65 65 66 66 66 65 65 65 64 65 65 65 65 65 65 64 64 63 62 62 63 62 62 62 61 61 62 61 61 62 61 61 62 62 62 62 63 63 63 63 60 60 58 56 58 59 60 65 67 64 68 70
65 65 64 63 63 63 63 63 63 62 63 65 66 66 67 66 66 66 66 65 65 65 65 65 65 65 64 63 63 63 63 63 62 62 62 62 61 62 61 61 62 61 62 62 61 62 62 62 63 63 62 62 61 58 57 56 58 62 61 65 67 65 68
67 67 66 64 65 65 63 63 62 63 64 66 67 67 67 67 66 66 65 65 65 65 65 64 64 64 64 62 62 62 63 63 62 61 61 61 62 62 61 60 61 61 62 61 62 62 62 63 63 64 63 63 61 59 58 58 56 62 64 60 64 68 67
68 66 65 65 64 63 62 62 62 63 65 68 68 67 67 67 66 66 66 65 65 65 65 65 65 64 64 63 63 63 62 63 62 61 61 62 62 62 61 60 61 61 62 63 62 62 63 63 63 64 64 63 62 61 60 58 56 57 63 62 63 66 68
65 64 63 64 62 62 63 62 62 63 66 67 68 67 67 67 68 67 66 66 66 65 64 64 64 64 64 63 63 63 63 64 63 62 62 61 62 62 62 61 61 61 62 62 63 64 64 65 65 64 64 64 62 62 60 58 57 57 62 64 64 64 66
65 64 62 62 64 64 60 61 62 65 66 67 68 68 68 67 67 67 67 67 66 66 65 65 65 65 64 62 61 62 62 62 62 62 61 61 61 61 61 61 61 61 62 62 62 64 65 65 66 65 64 63 63 61 61 58 58 57 56 62 62 65 65
63 62 61 61 60 60 61 62 65 65 67 68 69 68 67 67 67 68 67 66 67 66 65 65 64 64 63 62 62 62 62 62 61 61 61 61 62 62 61 61 61 61 62 61 62 62 63 63 65 64 63 64 62 61 61 61 58 57 56 58 62 63 63
63 62 60 60 59 60 62 63 64 65 67 68 68 67 68 68 67 67 66 66 66 65 65 64 64 65 64 63 63 62 63 62 62 62 62 62 62 62 62 61 61 61 62 61 62 62 62 63 63 62 62 63 63 61 61 61 61 58 58 57 60 62 63
60 59 59 59 59 60 61 62 63 67 67 67 67 67 67 68 67 67 65 66 66 65 65 65 64 64 63 63 63 63 63 63 62 62 61 61 61 62 61 61 61 62 62 60 60 61 62 60 63 62 60 62 62 62 61 61 61 61 59 58 59 62 63
60 58 58 58 58 59 60 61 63 66 68 67 67 67 67 67 68 67 67 67 66 66 66 65 65 65 64 63 63 63 62 62 62 62 62 62 62 62 61 62 61 62 61 60 59 60 60 60 61 61 60 60 62 61 60 61 61 60 60 59 59 59 62
58 57 57 57 58 59 60 61 64 67 68 67 66 66 67 67 67 67 67 67 66 65 65 65 64 64 64 64 63 62 61 61 61 61 62 62 63 62 63 62 61 61 60 60 59 59 59 59 60 60 59 59 61 59 60 60 60 60 60 59 60 60 60
57 57 58 58 59 59 60 62 65 67 67 66 66 67 67 66 66 67 67 67 66 66 65 64 65 65 65 63 62 62 62 61 61 61 61 62 62 62 62 62 61 61 60 60 59 59 58 57 59 59 59 59 59 58 59 59 60 60 59 59 59 58 60
56 57 58 58 59 59 61 63 65 66 66 66 66 67 67 67 66 66 66 65 65 65 64 63 64 64 64 63 63 62 61 61 61 61 61 61 62 62 62 61 61 60 57 51 47 50 50 50 56 57 58 58 58 58 58 59 59 59 58 58 58 59 58
57 58 58 58 59 61 62 64 65 65 65 66 66 66 66 66 66 65 65 65 65 63 63 63 58 54 56 63 63 62 61 61 61 61 61 60 61 62 62 61 59 53 52 51 48 45 44 45 46 52 55 56 56 56 56 56 57 57 57 56 57 56 55
58 57 58 59 60 61 63 64 64 65 64 64 64 65 65 65 65 65 65 64 63 62 62 61 47 46 45 51 61 62 62 61 62 61 61 61 60 61 62 62 61 58 58 55 54 44 44 43 43 42 43 45 49 54 54 54 55 56 55 56 56 56 55
59 59 60 61 61 64 64 64 64 64 63 62 63 64 63 64 64 64 63 64 62 61 61 50 43 44 46 46 51 61 62 62 61 62 62 62 62 62 61 61 61 61 60 59 61 60 53 45 44 43 41 41 41 42 44 51 53 54 54 54 55 55 55
61 60 61 62 63 64 64 64 63 62 61 62 63 62 63 63 63 63 62 62 60 60 58 45 43 43 44 44 43 51 64 62 61 62 61 62 62 62 62 61 61 61 61 56 59 61 62 61 51 46 45 43 42 42 40 40 42 52 55 55 55 55 55
62 62 63 64 64 64 64 63 62 62 61 61 61 61 61 61 61 62 62 61 59 59 57 45 42 42 43 41 43 46 64 61 61 61 61 61 61 61 61 62 61 61 61 61 59 58 60 60 61 62 61 62 62 54 44 42 43 42 48 56 56 54 56
64 64 64 64 64 64 63 61 61 61 60 60 60 58 57 57 58 59 59 57 58 57 57 43 42 41 42 41 41 44 63 61 61 61 61 61 61 61 61 60 61 61 61 59 56 51 56 58 60 61 61 61 61 62 62 60 59 58 58 58 58 57 58
64 64 64 64 63 62 61 60 60 59 58 56 55 54 53 54 54 55 56 56 57 57 55 41 41 41 41 41 40 56 62 61 61 61 61 61 62 62 62 61 62 60 61 59 47 36 44 52 60 60 60 60 61 62 62 57 50 50 55 57 58 58 58
62 62 63 62 62 60 59 57 57 58 56 55 54 54 55 55 57 57 57 58 58 59 56 44 40 40 41 40 45 60 61 62 62 60 61 61 62 61 61 62 62 62 60 59 43 36 40 42 59 60 59 59 60 61 61 61 52 46 43 42 43 43 42
60 60 61 61 60 59 58 58 57 57 57 55 55 56 57 58 58 59 59 59 60 60 59 48 39 41 40 39 48 59 62 62 61 61 61 61 63 62 58 48 53 61 59 57 39 38 38 47 60 59 59 59 59 59 59 60 60 60 51 49 47 45 44
59 59 60 60 59 58 57 57 57 57 57 57 57 58 58 57 58 59 60 61 57 59 60 50 39 40 40 40 47 60 63 63 61 60 61 60 62 62 60 55 45 50 55 48 35 39 37 47 59 59 58 59 57 57 57 58 58 58 59 59 61 61 60
59 59 59 58 58 58 59 58 57 57 58 59 59 59 59 60 59 60 61 61 59 60 60 58 49 39 40 40 41 57 64 63 61 60 61 62 61 62 62 60 50 37 38 37 38 36 40 36 53 59 59 58 56 54 57 56 57 57 58 59 60 62 62
59 60 60 58 58 59 59 58 57 58 58 60 60 59 59 60 59 60 60 60 60 60 61 59 51 38 40 40 41 42 61 62 62 61 62 61 63 62 62 63 62 41 39 37 38 36 39 38 39 55 58 56 54 49 46 55 57 51 60 61 61 62 62
58 59 60 59 58 58 59 59 58 58 60 60 59 58 59 59 59 59 59 60 60 60 59 55 56 40 40 39 41 39 55 63 62 63 61 63 63 64 63 64 63 46 37 40 37 39 36 39 38 55 54 42 38 36 49 54 57 61 61 62 62 61 61
56 58 58 59 59 58 59 59 59 59 59 59 58 58 58 58 58 58 58 59 60 60 59 56 48 50 40 39 39 40 40 48 46 58 62 62 62 63 64 63 57 38 39 37 40 38 39 37 41 53 35 37 38 37 41 57 61 61 60 61 60 59 60
58 59 58 58 59 59 59 59 58 59 59 59 58 58 58 58 58 58 57 58 58 59 59 59 48 46 46 37 40 38 40 40 45 59 61 63 64 63 63 63 55 37 38 38 37 38 39 40 51 41 39 39 37 40 55 60 61 60 58 59 59 59 59